<?xml version="1.0" encoding="UTF-8" standalone="no" ?>
<gpx xmlns="http://www.topografix.com/GPX/1/1" xmlns:xsi="http://www.w3.org/2001/XMLSchema-instance" xsi:schemaLocation="http://www.topografix.com/GPX/1/1 http://www.topografix.com/GPX/1/1/gpx.xsd" version="1.1" creator="VisuGPX - https://www.visugpx.com">
  <metadata>
    <name>Plevenon Sables d'Or les pins</name>
    <desc><![CDATA[9éme étape du circuit Mont St Michel St Brieuc]]></desc>
  </metadata>
  <trk>
    <name><![CDATA[2016-07-05-01]]></name>
    <trkseg>
      <trkpt lat="48.66195" lon="-2.31355">
        <ele>60.5</ele>
        <time>2016-07-05T06:43:12Z</time>
      </trkpt>
      <trkpt lat="48.66194" lon="-2.31357">
        <ele>60</ele>
        <time>2016-07-05T06:43:13Z</time>
      </trkpt>
      <trkpt lat="48.66177" lon="-2.31363">
        <ele>67.2</ele>
        <time>2016-07-05T06:43:51Z</time>
      </trkpt>
      <trkpt lat="48.66175" lon="-2.31349">
        <ele>65.2</ele>
        <time>2016-07-05T06:43:59Z</time>
      </trkpt>
      <trkpt lat="48.66167" lon="-2.3134">
        <ele>66.1</ele>
        <time>2016-07-05T06:44:09Z</time>
      </trkpt>
      <trkpt lat="48.66167" lon="-2.31327">
        <ele>64.7</ele>
        <time>2016-07-05T06:44:24Z</time>
      </trkpt>
      <trkpt lat="48.66172" lon="-2.31316">
        <ele>66.3</ele>
        <time>2016-07-05T06:44:34Z</time>
      </trkpt>
      <trkpt lat="48.66178" lon="-2.31303">
        <ele>60.8</ele>
        <time>2016-07-05T06:45:42Z</time>
      </trkpt>
      <trkpt lat="48.66184" lon="-2.31291">
        <ele>68.6</ele>
        <time>2016-07-05T06:45:50Z</time>
      </trkpt>
      <trkpt lat="48.66189" lon="-2.31279">
        <ele>64.1</ele>
        <time>2016-07-05T06:45:59Z</time>
      </trkpt>
      <trkpt lat="48.66193" lon="-2.31268">
        <ele>64.9</ele>
        <time>2016-07-05T06:46:07Z</time>
      </trkpt>
      <trkpt lat="48.66189" lon="-2.31255">
        <ele>63.7</ele>
        <time>2016-07-05T06:46:16Z</time>
      </trkpt>
      <trkpt lat="48.66181" lon="-2.3125">
        <ele>67.3</ele>
        <time>2016-07-05T06:46:29Z</time>
      </trkpt>
      <trkpt lat="48.66174" lon="-2.31241">
        <ele>63.7</ele>
        <time>2016-07-05T06:46:44Z</time>
      </trkpt>
      <trkpt lat="48.66165" lon="-2.3124">
        <ele>67.4</ele>
        <time>2016-07-05T06:46:56Z</time>
      </trkpt>
      <trkpt lat="48.66159" lon="-2.31251">
        <ele>67.7</ele>
        <time>2016-07-05T06:47:07Z</time>
      </trkpt>
      <trkpt lat="48.66151" lon="-2.31257">
        <ele>67.8</ele>
        <time>2016-07-05T06:47:17Z</time>
      </trkpt>
      <trkpt lat="48.66142" lon="-2.31252">
        <ele>66.3</ele>
        <time>2016-07-05T06:47:29Z</time>
      </trkpt>
      <trkpt lat="48.66134" lon="-2.31248">
        <ele>67</ele>
        <time>2016-07-05T06:47:39Z</time>
      </trkpt>
      <trkpt lat="48.66126" lon="-2.3124">
        <ele>68.1</ele>
        <time>2016-07-05T06:47:49Z</time>
      </trkpt>
      <trkpt lat="48.66118" lon="-2.31232">
        <ele>68.9</ele>
        <time>2016-07-05T06:48:00Z</time>
      </trkpt>
      <trkpt lat="48.66111" lon="-2.31223">
        <ele>66.9</ele>
        <time>2016-07-05T06:48:10Z</time>
      </trkpt>
      <trkpt lat="48.66103" lon="-2.31215">
        <ele>68.5</ele>
        <time>2016-07-05T06:48:20Z</time>
      </trkpt>
      <trkpt lat="48.66096" lon="-2.31207">
        <ele>68.2</ele>
        <time>2016-07-05T06:48:29Z</time>
      </trkpt>
      <trkpt lat="48.6609" lon="-2.31195">
        <ele>68.2</ele>
        <time>2016-07-05T06:48:39Z</time>
      </trkpt>
      <trkpt lat="48.66084" lon="-2.31183">
        <ele>65.6</ele>
        <time>2016-07-05T06:48:49Z</time>
      </trkpt>
      <trkpt lat="48.66079" lon="-2.31172">
        <ele>68.6</ele>
        <time>2016-07-05T06:48:58Z</time>
      </trkpt>
      <trkpt lat="48.66073" lon="-2.3116">
        <ele>68.9</ele>
        <time>2016-07-05T06:49:08Z</time>
      </trkpt>
      <trkpt lat="48.66067" lon="-2.3115">
        <ele>70.7</ele>
        <time>2016-07-05T06:49:17Z</time>
      </trkpt>
      <trkpt lat="48.66062" lon="-2.31138">
        <ele>67.7</ele>
        <time>2016-07-05T06:49:25Z</time>
      </trkpt>
      <trkpt lat="48.66068" lon="-2.31127">
        <ele>67.6</ele>
        <time>2016-07-05T06:50:25Z</time>
      </trkpt>
      <trkpt lat="48.66077" lon="-2.31126">
        <ele>68.4</ele>
        <time>2016-07-05T06:50:33Z</time>
      </trkpt>
      <trkpt lat="48.66087" lon="-2.31124">
        <ele>68.6</ele>
        <time>2016-07-05T06:50:42Z</time>
      </trkpt>
      <trkpt lat="48.66095" lon="-2.3112">
        <ele>68.4</ele>
        <time>2016-07-05T06:50:51Z</time>
      </trkpt>
      <trkpt lat="48.66105" lon="-2.31115">
        <ele>64.4</ele>
        <time>2016-07-05T06:51:01Z</time>
      </trkpt>
      <trkpt lat="48.66113" lon="-2.31108">
        <ele>68.3</ele>
        <time>2016-07-05T06:51:11Z</time>
      </trkpt>
      <trkpt lat="48.6612" lon="-2.31098">
        <ele>66.4</ele>
        <time>2016-07-05T06:51:20Z</time>
      </trkpt>
      <trkpt lat="48.66127" lon="-2.31089">
        <ele>67.7</ele>
        <time>2016-07-05T06:51:29Z</time>
      </trkpt>
      <trkpt lat="48.66133" lon="-2.31079">
        <ele>68.8</ele>
        <time>2016-07-05T06:51:37Z</time>
      </trkpt>
      <trkpt lat="48.66139" lon="-2.31069">
        <ele>68.1</ele>
        <time>2016-07-05T06:51:46Z</time>
      </trkpt>
      <trkpt lat="48.66146" lon="-2.31058">
        <ele>65.9</ele>
        <time>2016-07-05T06:51:56Z</time>
      </trkpt>
      <trkpt lat="48.66153" lon="-2.31049">
        <ele>68.8</ele>
        <time>2016-07-05T06:52:23Z</time>
      </trkpt>
      <trkpt lat="48.6616" lon="-2.31039">
        <ele>66.6</ele>
        <time>2016-07-05T06:52:32Z</time>
      </trkpt>
      <trkpt lat="48.66166" lon="-2.31028">
        <ele>68.5</ele>
        <time>2016-07-05T06:52:41Z</time>
      </trkpt>
      <trkpt lat="48.66173" lon="-2.31019">
        <ele>71.9</ele>
        <time>2016-07-05T06:52:50Z</time>
      </trkpt>
      <trkpt lat="48.66181" lon="-2.3101">
        <ele>67.8</ele>
        <time>2016-07-05T06:52:59Z</time>
      </trkpt>
      <trkpt lat="48.66189" lon="-2.31002">
        <ele>69.3</ele>
        <time>2016-07-05T06:53:07Z</time>
      </trkpt>
      <trkpt lat="48.66194" lon="-2.3099">
        <ele>69.7</ele>
        <time>2016-07-05T06:53:27Z</time>
      </trkpt>
      <trkpt lat="48.66202" lon="-2.30985">
        <ele>71.3</ele>
        <time>2016-07-05T06:53:34Z</time>
      </trkpt>
      <trkpt lat="48.6621" lon="-2.30977">
        <ele>69.1</ele>
        <time>2016-07-05T06:53:43Z</time>
      </trkpt>
      <trkpt lat="48.66218" lon="-2.30968">
        <ele>71.8</ele>
        <time>2016-07-05T06:53:51Z</time>
      </trkpt>
      <trkpt lat="48.66226" lon="-2.3096">
        <ele>67.6</ele>
        <time>2016-07-05T06:54:00Z</time>
      </trkpt>
      <trkpt lat="48.66234" lon="-2.30952">
        <ele>68.2</ele>
        <time>2016-07-05T06:54:12Z</time>
      </trkpt>
      <trkpt lat="48.66244" lon="-2.30948">
        <ele>72.2</ele>
        <time>2016-07-05T06:54:21Z</time>
      </trkpt>
      <trkpt lat="48.66253" lon="-2.30941">
        <ele>73.3</ele>
        <time>2016-07-05T06:54:50Z</time>
      </trkpt>
      <trkpt lat="48.66261" lon="-2.30935">
        <ele>73.3</ele>
        <time>2016-07-05T06:54:58Z</time>
      </trkpt>
      <trkpt lat="48.6627" lon="-2.30929">
        <ele>74.2</ele>
        <time>2016-07-05T06:55:07Z</time>
      </trkpt>
      <trkpt lat="48.66278" lon="-2.30923">
        <ele>75.4</ele>
        <time>2016-07-05T06:55:15Z</time>
      </trkpt>
      <trkpt lat="48.66286" lon="-2.30916">
        <ele>72.7</ele>
        <time>2016-07-05T06:55:24Z</time>
      </trkpt>
      <trkpt lat="48.66295" lon="-2.3091">
        <ele>74.7</ele>
        <time>2016-07-05T06:55:33Z</time>
      </trkpt>
      <trkpt lat="48.66304" lon="-2.30904">
        <ele>76.1</ele>
        <time>2016-07-05T06:55:42Z</time>
      </trkpt>
      <trkpt lat="48.66313" lon="-2.30901">
        <ele>75.8</ele>
        <time>2016-07-05T06:55:51Z</time>
      </trkpt>
      <trkpt lat="48.66323" lon="-2.30898">
        <ele>75</ele>
        <time>2016-07-05T06:56:01Z</time>
      </trkpt>
      <trkpt lat="48.66332" lon="-2.30897">
        <ele>77.1</ele>
        <time>2016-07-05T06:56:10Z</time>
      </trkpt>
      <trkpt lat="48.66338" lon="-2.30886">
        <ele>77.4</ele>
        <time>2016-07-05T06:56:22Z</time>
      </trkpt>
      <trkpt lat="48.66335" lon="-2.30872">
        <ele>75.8</ele>
        <time>2016-07-05T06:56:41Z</time>
      </trkpt>
      <trkpt lat="48.6633" lon="-2.30859">
        <ele>76.5</ele>
        <time>2016-07-05T06:56:54Z</time>
      </trkpt>
      <trkpt lat="48.66328" lon="-2.30845">
        <ele>75.7</ele>
        <time>2016-07-05T06:57:02Z</time>
      </trkpt>
      <trkpt lat="48.66327" lon="-2.30831">
        <ele>80.2</ele>
        <time>2016-07-05T06:57:10Z</time>
      </trkpt>
      <trkpt lat="48.66322" lon="-2.30817">
        <ele>80</ele>
        <time>2016-07-05T06:57:19Z</time>
      </trkpt>
      <trkpt lat="48.66318" lon="-2.30803">
        <ele>78.3</ele>
        <time>2016-07-05T06:57:28Z</time>
      </trkpt>
      <trkpt lat="48.66314" lon="-2.30791">
        <ele>75.9</ele>
        <time>2016-07-05T06:57:36Z</time>
      </trkpt>
      <trkpt lat="48.6631" lon="-2.30779">
        <ele>78.9</ele>
        <time>2016-07-05T06:57:44Z</time>
      </trkpt>
      <trkpt lat="48.66308" lon="-2.30764">
        <ele>78.3</ele>
        <time>2016-07-05T06:57:53Z</time>
      </trkpt>
      <trkpt lat="48.66311" lon="-2.3075">
        <ele>76</ele>
        <time>2016-07-05T06:58:02Z</time>
      </trkpt>
      <trkpt lat="48.66312" lon="-2.30735">
        <ele>76.8</ele>
        <time>2016-07-05T06:58:11Z</time>
      </trkpt>
      <trkpt lat="48.66315" lon="-2.30721">
        <ele>74.1</ele>
        <time>2016-07-05T06:58:21Z</time>
      </trkpt>
      <trkpt lat="48.6632" lon="-2.30708">
        <ele>72.3</ele>
        <time>2016-07-05T06:58:30Z</time>
      </trkpt>
      <trkpt lat="48.66325" lon="-2.30697">
        <ele>75.4</ele>
        <time>2016-07-05T06:58:38Z</time>
      </trkpt>
      <trkpt lat="48.66331" lon="-2.30685">
        <ele>73</ele>
        <time>2016-07-05T06:58:49Z</time>
      </trkpt>
      <trkpt lat="48.66337" lon="-2.30674">
        <ele>74.6</ele>
        <time>2016-07-05T06:58:56Z</time>
      </trkpt>
      <trkpt lat="48.66343" lon="-2.30664">
        <ele>72.8</ele>
        <time>2016-07-05T06:59:04Z</time>
      </trkpt>
      <trkpt lat="48.66349" lon="-2.30653">
        <ele>71.6</ele>
        <time>2016-07-05T06:59:12Z</time>
      </trkpt>
      <trkpt lat="48.66356" lon="-2.30642">
        <ele>72.6</ele>
        <time>2016-07-05T06:59:21Z</time>
      </trkpt>
      <trkpt lat="48.66363" lon="-2.30631">
        <ele>69.6</ele>
        <time>2016-07-05T06:59:29Z</time>
      </trkpt>
      <trkpt lat="48.66369" lon="-2.3062">
        <ele>72.3</ele>
        <time>2016-07-05T06:59:37Z</time>
      </trkpt>
      <trkpt lat="48.66375" lon="-2.30608">
        <ele>71.5</ele>
        <time>2016-07-05T06:59:46Z</time>
      </trkpt>
      <trkpt lat="48.66382" lon="-2.30597">
        <ele>68</ele>
        <time>2016-07-05T06:59:54Z</time>
      </trkpt>
      <trkpt lat="48.66388" lon="-2.30587">
        <ele>72</ele>
        <time>2016-07-05T07:00:02Z</time>
      </trkpt>
      <trkpt lat="48.66393" lon="-2.30576">
        <ele>70.4</ele>
        <time>2016-07-05T07:00:10Z</time>
      </trkpt>
      <trkpt lat="48.66395" lon="-2.30562">
        <ele>65</ele>
        <time>2016-07-05T07:00:17Z</time>
      </trkpt>
      <trkpt lat="48.66394" lon="-2.30547">
        <ele>71.6</ele>
        <time>2016-07-05T07:00:33Z</time>
      </trkpt>
      <trkpt lat="48.66386" lon="-2.3054">
        <ele>70.6</ele>
        <time>2016-07-05T07:00:43Z</time>
      </trkpt>
      <trkpt lat="48.66378" lon="-2.30532">
        <ele>69.1</ele>
        <time>2016-07-05T07:01:01Z</time>
      </trkpt>
      <trkpt lat="48.6637" lon="-2.30521">
        <ele>67.1</ele>
        <time>2016-07-05T07:01:10Z</time>
      </trkpt>
      <trkpt lat="48.66363" lon="-2.3051">
        <ele>67.9</ele>
        <time>2016-07-05T07:01:19Z</time>
      </trkpt>
      <trkpt lat="48.66356" lon="-2.30502">
        <ele>69.4</ele>
        <time>2016-07-05T07:01:28Z</time>
      </trkpt>
      <trkpt lat="48.66348" lon="-2.30493">
        <ele>69.3</ele>
        <time>2016-07-05T07:01:38Z</time>
      </trkpt>
      <trkpt lat="48.66341" lon="-2.30483">
        <ele>66.9</ele>
        <time>2016-07-05T07:01:48Z</time>
      </trkpt>
      <trkpt lat="48.66334" lon="-2.30473">
        <ele>67.5</ele>
        <time>2016-07-05T07:01:58Z</time>
      </trkpt>
      <trkpt lat="48.66327" lon="-2.30464">
        <ele>67.3</ele>
        <time>2016-07-05T07:02:08Z</time>
      </trkpt>
      <trkpt lat="48.66319" lon="-2.30456">
        <ele>66.6</ele>
        <time>2016-07-05T07:02:17Z</time>
      </trkpt>
      <trkpt lat="48.66311" lon="-2.30448">
        <ele>64.3</ele>
        <time>2016-07-05T07:02:26Z</time>
      </trkpt>
      <trkpt lat="48.66303" lon="-2.30438">
        <ele>65.7</ele>
        <time>2016-07-05T07:02:37Z</time>
      </trkpt>
      <trkpt lat="48.66297" lon="-2.30427">
        <ele>65.1</ele>
        <time>2016-07-05T07:02:46Z</time>
      </trkpt>
      <trkpt lat="48.66289" lon="-2.3042">
        <ele>66.1</ele>
        <time>2016-07-05T07:02:54Z</time>
      </trkpt>
      <trkpt lat="48.66283" lon="-2.3041">
        <ele>63</ele>
        <time>2016-07-05T07:03:01Z</time>
      </trkpt>
      <trkpt lat="48.66276" lon="-2.30399">
        <ele>61.4</ele>
        <time>2016-07-05T07:03:10Z</time>
      </trkpt>
      <trkpt lat="48.66268" lon="-2.30389">
        <ele>67.5</ele>
        <time>2016-07-05T07:03:18Z</time>
      </trkpt>
      <trkpt lat="48.66262" lon="-2.30379">
        <ele>66.3</ele>
        <time>2016-07-05T07:03:28Z</time>
      </trkpt>
      <trkpt lat="48.66266" lon="-2.30367">
        <ele>65.4</ele>
        <time>2016-07-05T07:04:48Z</time>
      </trkpt>
      <trkpt lat="48.66275" lon="-2.30361">
        <ele>65.4</ele>
        <time>2016-07-05T07:05:02Z</time>
      </trkpt>
      <trkpt lat="48.66284" lon="-2.30354">
        <ele>64</ele>
        <time>2016-07-05T07:05:12Z</time>
      </trkpt>
      <trkpt lat="48.66292" lon="-2.30347">
        <ele>64.7</ele>
        <time>2016-07-05T07:05:20Z</time>
      </trkpt>
      <trkpt lat="48.663" lon="-2.30339">
        <ele>61.2</ele>
        <time>2016-07-05T07:05:28Z</time>
      </trkpt>
      <trkpt lat="48.66309" lon="-2.30333">
        <ele>65.3</ele>
        <time>2016-07-05T07:05:36Z</time>
      </trkpt>
      <trkpt lat="48.66318" lon="-2.30326">
        <ele>63.6</ele>
        <time>2016-07-05T07:05:45Z</time>
      </trkpt>
      <trkpt lat="48.66327" lon="-2.30321">
        <ele>68.1</ele>
        <time>2016-07-05T07:05:52Z</time>
      </trkpt>
      <trkpt lat="48.66336" lon="-2.30317">
        <ele>66.6</ele>
        <time>2016-07-05T07:06:01Z</time>
      </trkpt>
      <trkpt lat="48.66345" lon="-2.30315">
        <ele>63.6</ele>
        <time>2016-07-05T07:06:09Z</time>
      </trkpt>
      <trkpt lat="48.66355" lon="-2.30314">
        <ele>62.7</ele>
        <time>2016-07-05T07:06:28Z</time>
      </trkpt>
      <trkpt lat="48.66364" lon="-2.30314">
        <ele>61.1</ele>
        <time>2016-07-05T07:06:36Z</time>
      </trkpt>
      <trkpt lat="48.66373" lon="-2.30316">
        <ele>65.4</ele>
        <time>2016-07-05T07:06:45Z</time>
      </trkpt>
      <trkpt lat="48.66382" lon="-2.30319">
        <ele>68</ele>
        <time>2016-07-05T07:06:53Z</time>
      </trkpt>
      <trkpt lat="48.66392" lon="-2.30321">
        <ele>66.4</ele>
        <time>2016-07-05T07:07:01Z</time>
      </trkpt>
      <trkpt lat="48.66402" lon="-2.30323">
        <ele>68.2</ele>
        <time>2016-07-05T07:07:10Z</time>
      </trkpt>
      <trkpt lat="48.66411" lon="-2.30327">
        <ele>70.3</ele>
        <time>2016-07-05T07:07:19Z</time>
      </trkpt>
      <trkpt lat="48.6642" lon="-2.30331">
        <ele>67</ele>
        <time>2016-07-05T07:07:28Z</time>
      </trkpt>
      <trkpt lat="48.6643" lon="-2.30336">
        <ele>66.3</ele>
        <time>2016-07-05T07:07:37Z</time>
      </trkpt>
      <trkpt lat="48.66438" lon="-2.3034">
        <ele>64.2</ele>
        <time>2016-07-05T07:07:45Z</time>
      </trkpt>
      <trkpt lat="48.66447" lon="-2.30345">
        <ele>62.1</ele>
        <time>2016-07-05T07:07:53Z</time>
      </trkpt>
      <trkpt lat="48.66457" lon="-2.3035">
        <ele>67.7</ele>
        <time>2016-07-05T07:08:02Z</time>
      </trkpt>
      <trkpt lat="48.66466" lon="-2.30356">
        <ele>71.1</ele>
        <time>2016-07-05T07:08:12Z</time>
      </trkpt>
      <trkpt lat="48.66476" lon="-2.30362">
        <ele>70.9</ele>
        <time>2016-07-05T07:08:21Z</time>
      </trkpt>
      <trkpt lat="48.66485" lon="-2.30368">
        <ele>72.6</ele>
        <time>2016-07-05T07:08:30Z</time>
      </trkpt>
      <trkpt lat="48.66494" lon="-2.3037">
        <ele>71.7</ele>
        <time>2016-07-05T07:08:38Z</time>
      </trkpt>
      <trkpt lat="48.66504" lon="-2.30374">
        <ele>70.4</ele>
        <time>2016-07-05T07:08:47Z</time>
      </trkpt>
      <trkpt lat="48.66513" lon="-2.30375">
        <ele>73.6</ele>
        <time>2016-07-05T07:08:55Z</time>
      </trkpt>
      <trkpt lat="48.66522" lon="-2.30375">
        <ele>74.6</ele>
        <time>2016-07-05T07:09:03Z</time>
      </trkpt>
      <trkpt lat="48.66532" lon="-2.30375">
        <ele>75.3</ele>
        <time>2016-07-05T07:09:12Z</time>
      </trkpt>
      <trkpt lat="48.66542" lon="-2.30377">
        <ele>68.7</ele>
        <time>2016-07-05T07:09:20Z</time>
      </trkpt>
      <trkpt lat="48.66552" lon="-2.30379">
        <ele>72.6</ele>
        <time>2016-07-05T07:09:29Z</time>
      </trkpt>
      <trkpt lat="48.66561" lon="-2.30382">
        <ele>73.8</ele>
        <time>2016-07-05T07:09:38Z</time>
      </trkpt>
      <trkpt lat="48.66571" lon="-2.30385">
        <ele>74.1</ele>
        <time>2016-07-05T07:09:47Z</time>
      </trkpt>
      <trkpt lat="48.66579" lon="-2.30389">
        <ele>73.8</ele>
        <time>2016-07-05T07:09:56Z</time>
      </trkpt>
      <trkpt lat="48.66588" lon="-2.30395">
        <ele>74.1</ele>
        <time>2016-07-05T07:10:05Z</time>
      </trkpt>
      <trkpt lat="48.66598" lon="-2.30399">
        <ele>75.4</ele>
        <time>2016-07-05T07:10:36Z</time>
      </trkpt>
      <trkpt lat="48.66607" lon="-2.30401">
        <ele>75.1</ele>
        <time>2016-07-05T07:10:45Z</time>
      </trkpt>
      <trkpt lat="48.66617" lon="-2.30405">
        <ele>71.7</ele>
        <time>2016-07-05T07:10:54Z</time>
      </trkpt>
      <trkpt lat="48.66626" lon="-2.3041">
        <ele>75</ele>
        <time>2016-07-05T07:11:03Z</time>
      </trkpt>
      <trkpt lat="48.66636" lon="-2.30413">
        <ele>72</ele>
        <time>2016-07-05T07:11:11Z</time>
      </trkpt>
      <trkpt lat="48.66645" lon="-2.30418">
        <ele>76.9</ele>
        <time>2016-07-05T07:11:20Z</time>
      </trkpt>
      <trkpt lat="48.66654" lon="-2.30423">
        <ele>78.1</ele>
        <time>2016-07-05T07:11:29Z</time>
      </trkpt>
      <trkpt lat="48.66657" lon="-2.30409">
        <ele>77.5</ele>
        <time>2016-07-05T07:12:36Z</time>
      </trkpt>
      <trkpt lat="48.66654" lon="-2.30395">
        <ele>78.2</ele>
        <time>2016-07-05T07:12:45Z</time>
      </trkpt>
      <trkpt lat="48.66652" lon="-2.30381">
        <ele>76.1</ele>
        <time>2016-07-05T07:13:06Z</time>
      </trkpt>
      <trkpt lat="48.66648" lon="-2.30368">
        <ele>74.1</ele>
        <time>2016-07-05T07:13:25Z</time>
      </trkpt>
      <trkpt lat="48.66643" lon="-2.30355">
        <ele>76.5</ele>
        <time>2016-07-05T07:13:34Z</time>
      </trkpt>
      <trkpt lat="48.66637" lon="-2.30344">
        <ele>74.9</ele>
        <time>2016-07-05T07:13:44Z</time>
      </trkpt>
      <trkpt lat="48.66631" lon="-2.30332">
        <ele>76.6</ele>
        <time>2016-07-05T07:13:52Z</time>
      </trkpt>
      <trkpt lat="48.66626" lon="-2.30321">
        <ele>73.6</ele>
        <time>2016-07-05T07:14:00Z</time>
      </trkpt>
      <trkpt lat="48.6662" lon="-2.3031">
        <ele>75.4</ele>
        <time>2016-07-05T07:14:08Z</time>
      </trkpt>
      <trkpt lat="48.66614" lon="-2.30298">
        <ele>69.4</ele>
        <time>2016-07-05T07:14:16Z</time>
      </trkpt>
      <trkpt lat="48.66608" lon="-2.30287">
        <ele>75.1</ele>
        <time>2016-07-05T07:14:24Z</time>
      </trkpt>
      <trkpt lat="48.66602" lon="-2.30276">
        <ele>75.5</ele>
        <time>2016-07-05T07:14:31Z</time>
      </trkpt>
      <trkpt lat="48.66595" lon="-2.30266">
        <ele>74.3</ele>
        <time>2016-07-05T07:14:46Z</time>
      </trkpt>
      <trkpt lat="48.66589" lon="-2.30255">
        <ele>71.8</ele>
        <time>2016-07-05T07:14:54Z</time>
      </trkpt>
      <trkpt lat="48.66584" lon="-2.30244">
        <ele>73.8</ele>
        <time>2016-07-05T07:15:02Z</time>
      </trkpt>
      <trkpt lat="48.66578" lon="-2.30232">
        <ele>73.7</ele>
        <time>2016-07-05T07:15:10Z</time>
      </trkpt>
      <trkpt lat="48.66573" lon="-2.30221">
        <ele>72.6</ele>
        <time>2016-07-05T07:15:19Z</time>
      </trkpt>
      <trkpt lat="48.66566" lon="-2.3021">
        <ele>74.4</ele>
        <time>2016-07-05T07:15:27Z</time>
      </trkpt>
      <trkpt lat="48.6656" lon="-2.30199">
        <ele>68.7</ele>
        <time>2016-07-05T07:15:34Z</time>
      </trkpt>
      <trkpt lat="48.66554" lon="-2.30188">
        <ele>72</ele>
        <time>2016-07-05T07:15:42Z</time>
      </trkpt>
      <trkpt lat="48.66548" lon="-2.30177">
        <ele>74.6</ele>
        <time>2016-07-05T07:15:50Z</time>
      </trkpt>
      <trkpt lat="48.6654" lon="-2.30168">
        <ele>75.7</ele>
        <time>2016-07-05T07:15:57Z</time>
      </trkpt>
      <trkpt lat="48.66534" lon="-2.30158">
        <ele>68.4</ele>
        <time>2016-07-05T07:16:04Z</time>
      </trkpt>
      <trkpt lat="48.66526" lon="-2.30147">
        <ele>67.1</ele>
        <time>2016-07-05T07:16:12Z</time>
      </trkpt>
      <trkpt lat="48.66518" lon="-2.30138">
        <ele>72.6</ele>
        <time>2016-07-05T07:16:20Z</time>
      </trkpt>
      <trkpt lat="48.6651" lon="-2.3013">
        <ele>75</ele>
        <time>2016-07-05T07:16:28Z</time>
      </trkpt>
      <trkpt lat="48.66501" lon="-2.30121">
        <ele>75</ele>
        <time>2016-07-05T07:16:36Z</time>
      </trkpt>
      <trkpt lat="48.66494" lon="-2.30114">
        <ele>72.3</ele>
        <time>2016-07-05T07:16:43Z</time>
      </trkpt>
      <trkpt lat="48.66486" lon="-2.30106">
        <ele>66.9</ele>
        <time>2016-07-05T07:16:50Z</time>
      </trkpt>
      <trkpt lat="48.66479" lon="-2.30097">
        <ele>67.6</ele>
        <time>2016-07-05T07:16:58Z</time>
      </trkpt>
      <trkpt lat="48.66471" lon="-2.3009">
        <ele>70.4</ele>
        <time>2016-07-05T07:17:05Z</time>
      </trkpt>
      <trkpt lat="48.66463" lon="-2.30083">
        <ele>71.3</ele>
        <time>2016-07-05T07:17:12Z</time>
      </trkpt>
      <trkpt lat="48.66455" lon="-2.30077">
        <ele>71.2</ele>
        <time>2016-07-05T07:17:19Z</time>
      </trkpt>
      <trkpt lat="48.66446" lon="-2.3007">
        <ele>71.4</ele>
        <time>2016-07-05T07:17:27Z</time>
      </trkpt>
      <trkpt lat="48.66437" lon="-2.30062">
        <ele>71.5</ele>
        <time>2016-07-05T07:17:35Z</time>
      </trkpt>
      <trkpt lat="48.6643" lon="-2.30054">
        <ele>72.1</ele>
        <time>2016-07-05T07:17:42Z</time>
      </trkpt>
      <trkpt lat="48.66423" lon="-2.30045">
        <ele>69.7</ele>
        <time>2016-07-05T07:17:50Z</time>
      </trkpt>
      <trkpt lat="48.66415" lon="-2.30036">
        <ele>68.4</ele>
        <time>2016-07-05T07:18:51Z</time>
      </trkpt>
      <trkpt lat="48.66406" lon="-2.30029">
        <ele>71.3</ele>
        <time>2016-07-05T07:18:59Z</time>
      </trkpt>
      <trkpt lat="48.66398" lon="-2.30021">
        <ele>64.6</ele>
        <time>2016-07-05T07:19:06Z</time>
      </trkpt>
      <trkpt lat="48.6639" lon="-2.30014">
        <ele>67.6</ele>
        <time>2016-07-05T07:19:13Z</time>
      </trkpt>
      <trkpt lat="48.66382" lon="-2.30006">
        <ele>68.6</ele>
        <time>2016-07-05T07:19:20Z</time>
      </trkpt>
      <trkpt lat="48.66374" lon="-2.29998">
        <ele>67.6</ele>
        <time>2016-07-05T07:19:27Z</time>
      </trkpt>
      <trkpt lat="48.66365" lon="-2.2999">
        <ele>63.3</ele>
        <time>2016-07-05T07:19:35Z</time>
      </trkpt>
      <trkpt lat="48.66357" lon="-2.29983">
        <ele>62.4</ele>
        <time>2016-07-05T07:19:42Z</time>
      </trkpt>
      <trkpt lat="48.66349" lon="-2.29975">
        <ele>65.1</ele>
        <time>2016-07-05T07:19:49Z</time>
      </trkpt>
      <trkpt lat="48.66341" lon="-2.29967">
        <ele>65.8</ele>
        <time>2016-07-05T07:19:57Z</time>
      </trkpt>
      <trkpt lat="48.66333" lon="-2.29959">
        <ele>65.5</ele>
        <time>2016-07-05T07:20:05Z</time>
      </trkpt>
      <trkpt lat="48.66325" lon="-2.29951">
        <ele>66.1</ele>
        <time>2016-07-05T07:20:13Z</time>
      </trkpt>
      <trkpt lat="48.66317" lon="-2.29943">
        <ele>66.6</ele>
        <time>2016-07-05T07:20:20Z</time>
      </trkpt>
      <trkpt lat="48.6631" lon="-2.29935">
        <ele>65.3</ele>
        <time>2016-07-05T07:20:28Z</time>
      </trkpt>
      <trkpt lat="48.66303" lon="-2.29924">
        <ele>62.6</ele>
        <time>2016-07-05T07:20:36Z</time>
      </trkpt>
      <trkpt lat="48.66302" lon="-2.2991">
        <ele>66.6</ele>
        <time>2016-07-05T07:20:44Z</time>
      </trkpt>
      <trkpt lat="48.66303" lon="-2.29895">
        <ele>64.5</ele>
        <time>2016-07-05T07:21:05Z</time>
      </trkpt>
      <trkpt lat="48.6631" lon="-2.29884">
        <ele>68.1</ele>
        <time>2016-07-05T07:21:15Z</time>
      </trkpt>
      <trkpt lat="48.66314" lon="-2.29871">
        <ele>66.8</ele>
        <time>2016-07-05T07:21:25Z</time>
      </trkpt>
      <trkpt lat="48.66318" lon="-2.29858">
        <ele>67.5</ele>
        <time>2016-07-05T07:21:33Z</time>
      </trkpt>
      <trkpt lat="48.66321" lon="-2.29844">
        <ele>71</ele>
        <time>2016-07-05T07:21:43Z</time>
      </trkpt>
      <trkpt lat="48.66325" lon="-2.29831">
        <ele>73.4</ele>
        <time>2016-07-05T07:21:52Z</time>
      </trkpt>
      <trkpt lat="48.66324" lon="-2.29816">
        <ele>68.2</ele>
        <time>2016-07-05T07:22:00Z</time>
      </trkpt>
      <trkpt lat="48.66324" lon="-2.29803">
        <ele>65.4</ele>
        <time>2016-07-05T07:22:08Z</time>
      </trkpt>
      <trkpt lat="48.66324" lon="-2.29788">
        <ele>70</ele>
        <time>2016-07-05T07:22:17Z</time>
      </trkpt>
      <trkpt lat="48.66322" lon="-2.29774">
        <ele>69.3</ele>
        <time>2016-07-05T07:23:12Z</time>
      </trkpt>
      <trkpt lat="48.66325" lon="-2.2976">
        <ele>73</ele>
        <time>2016-07-05T07:23:21Z</time>
      </trkpt>
      <trkpt lat="48.66328" lon="-2.29746">
        <ele>72.5</ele>
        <time>2016-07-05T07:23:30Z</time>
      </trkpt>
      <trkpt lat="48.66331" lon="-2.29733">
        <ele>71.3</ele>
        <time>2016-07-05T07:23:38Z</time>
      </trkpt>
      <trkpt lat="48.66335" lon="-2.29719">
        <ele>66.8</ele>
        <time>2016-07-05T07:23:46Z</time>
      </trkpt>
      <trkpt lat="48.6634" lon="-2.29706">
        <ele>72.4</ele>
        <time>2016-07-05T07:23:55Z</time>
      </trkpt>
      <trkpt lat="48.66345" lon="-2.29694">
        <ele>69.8</ele>
        <time>2016-07-05T07:24:06Z</time>
      </trkpt>
      <trkpt lat="48.6635" lon="-2.29681">
        <ele>69.4</ele>
        <time>2016-07-05T07:24:14Z</time>
      </trkpt>
      <trkpt lat="48.66356" lon="-2.29671">
        <ele>74.1</ele>
        <time>2016-07-05T07:24:22Z</time>
      </trkpt>
      <trkpt lat="48.66362" lon="-2.2966">
        <ele>67.8</ele>
        <time>2016-07-05T07:24:30Z</time>
      </trkpt>
      <trkpt lat="48.66367" lon="-2.29648">
        <ele>73.3</ele>
        <time>2016-07-05T07:24:38Z</time>
      </trkpt>
      <trkpt lat="48.66371" lon="-2.29635">
        <ele>71.5</ele>
        <time>2016-07-05T07:24:45Z</time>
      </trkpt>
      <trkpt lat="48.66376" lon="-2.29623">
        <ele>73</ele>
        <time>2016-07-05T07:24:53Z</time>
      </trkpt>
      <trkpt lat="48.66381" lon="-2.29611">
        <ele>67.4</ele>
        <time>2016-07-05T07:25:01Z</time>
      </trkpt>
      <trkpt lat="48.66385" lon="-2.29598">
        <ele>72.7</ele>
        <time>2016-07-05T07:25:09Z</time>
      </trkpt>
      <trkpt lat="48.6639" lon="-2.29585">
        <ele>73.4</ele>
        <time>2016-07-05T07:25:27Z</time>
      </trkpt>
      <trkpt lat="48.66395" lon="-2.29572">
        <ele>66.5</ele>
        <time>2016-07-05T07:25:35Z</time>
      </trkpt>
      <trkpt lat="48.66399" lon="-2.2956">
        <ele>69.4</ele>
        <time>2016-07-05T07:25:43Z</time>
      </trkpt>
      <trkpt lat="48.66404" lon="-2.29546">
        <ele>70.2</ele>
        <time>2016-07-05T07:25:51Z</time>
      </trkpt>
      <trkpt lat="48.66406" lon="-2.29532">
        <ele>65.7</ele>
        <time>2016-07-05T07:25:59Z</time>
      </trkpt>
      <trkpt lat="48.6641" lon="-2.29518">
        <ele>68.1</ele>
        <time>2016-07-05T07:26:08Z</time>
      </trkpt>
      <trkpt lat="48.66412" lon="-2.29504">
        <ele>63.4</ele>
        <time>2016-07-05T07:26:16Z</time>
      </trkpt>
      <trkpt lat="48.66415" lon="-2.29491">
        <ele>64.1</ele>
        <time>2016-07-05T07:26:24Z</time>
      </trkpt>
      <trkpt lat="48.66417" lon="-2.29476">
        <ele>65.5</ele>
        <time>2016-07-05T07:26:32Z</time>
      </trkpt>
      <trkpt lat="48.66419" lon="-2.29463">
        <ele>58.7</ele>
        <time>2016-07-05T07:26:39Z</time>
      </trkpt>
      <trkpt lat="48.66421" lon="-2.29449">
        <ele>58.4</ele>
        <time>2016-07-05T07:26:50Z</time>
      </trkpt>
      <trkpt lat="48.66424" lon="-2.29436">
        <ele>59.4</ele>
        <time>2016-07-05T07:26:58Z</time>
      </trkpt>
      <trkpt lat="48.66428" lon="-2.29422">
        <ele>62.5</ele>
        <time>2016-07-05T07:27:06Z</time>
      </trkpt>
      <trkpt lat="48.6643" lon="-2.29408">
        <ele>63.1</ele>
        <time>2016-07-05T07:27:13Z</time>
      </trkpt>
      <trkpt lat="48.66434" lon="-2.29395">
        <ele>53.9</ele>
        <time>2016-07-05T07:27:21Z</time>
      </trkpt>
      <trkpt lat="48.66438" lon="-2.29381">
        <ele>58.3</ele>
        <time>2016-07-05T07:27:29Z</time>
      </trkpt>
      <trkpt lat="48.66442" lon="-2.29368">
        <ele>61.2</ele>
        <time>2016-07-05T07:27:37Z</time>
      </trkpt>
      <trkpt lat="48.66445" lon="-2.29354">
        <ele>55.8</ele>
        <time>2016-07-05T07:27:56Z</time>
      </trkpt>
      <trkpt lat="48.66448" lon="-2.2934">
        <ele>60</ele>
        <time>2016-07-05T07:28:04Z</time>
      </trkpt>
      <trkpt lat="48.66452" lon="-2.29327">
        <ele>59.5</ele>
        <time>2016-07-05T07:28:11Z</time>
      </trkpt>
      <trkpt lat="48.66455" lon="-2.29314">
        <ele>55.8</ele>
        <time>2016-07-05T07:28:18Z</time>
      </trkpt>
      <trkpt lat="48.66458" lon="-2.29301">
        <ele>59.3</ele>
        <time>2016-07-05T07:28:26Z</time>
      </trkpt>
      <trkpt lat="48.66462" lon="-2.29286">
        <ele>56.5</ele>
        <time>2016-07-05T07:28:36Z</time>
      </trkpt>
      <trkpt lat="48.66466" lon="-2.29273">
        <ele>54.3</ele>
        <time>2016-07-05T07:28:44Z</time>
      </trkpt>
      <trkpt lat="48.6647" lon="-2.29258">
        <ele>59.7</ele>
        <time>2016-07-05T07:28:52Z</time>
      </trkpt>
      <trkpt lat="48.66474" lon="-2.29246">
        <ele>60.6</ele>
        <time>2016-07-05T07:28:59Z</time>
      </trkpt>
      <trkpt lat="48.66477" lon="-2.29232">
        <ele>54</ele>
        <time>2016-07-05T07:29:06Z</time>
      </trkpt>
      <trkpt lat="48.66483" lon="-2.29219">
        <ele>57.2</ele>
        <time>2016-07-05T07:30:54Z</time>
      </trkpt>
      <trkpt lat="48.66485" lon="-2.29206">
        <ele>59.3</ele>
        <time>2016-07-05T07:31:02Z</time>
      </trkpt>
      <trkpt lat="48.66488" lon="-2.29193">
        <ele>59.1</ele>
        <time>2016-07-05T07:31:10Z</time>
      </trkpt>
      <trkpt lat="48.66493" lon="-2.2918">
        <ele>58.1</ele>
        <time>2016-07-05T07:31:24Z</time>
      </trkpt>
      <trkpt lat="48.66497" lon="-2.29167">
        <ele>59.3</ele>
        <time>2016-07-05T07:31:33Z</time>
      </trkpt>
      <trkpt lat="48.66501" lon="-2.29155">
        <ele>55.1</ele>
        <time>2016-07-05T07:31:40Z</time>
      </trkpt>
      <trkpt lat="48.66505" lon="-2.29141">
        <ele>59.3</ele>
        <time>2016-07-05T07:31:48Z</time>
      </trkpt>
      <trkpt lat="48.66509" lon="-2.29127">
        <ele>57.2</ele>
        <time>2016-07-05T07:31:56Z</time>
      </trkpt>
      <trkpt lat="48.66513" lon="-2.29113">
        <ele>58.6</ele>
        <time>2016-07-05T07:32:06Z</time>
      </trkpt>
      <trkpt lat="48.66516" lon="-2.291">
        <ele>58.7</ele>
        <time>2016-07-05T07:32:14Z</time>
      </trkpt>
      <trkpt lat="48.66522" lon="-2.29089">
        <ele>56.6</ele>
        <time>2016-07-05T07:32:31Z</time>
      </trkpt>
      <trkpt lat="48.66517" lon="-2.29101">
        <ele>52.3</ele>
        <time>2016-07-05T07:32:39Z</time>
      </trkpt>
      <trkpt lat="48.66514" lon="-2.29114">
        <ele>52.9</ele>
        <time>2016-07-05T07:32:45Z</time>
      </trkpt>
      <trkpt lat="48.6651" lon="-2.29128">
        <ele>58.3</ele>
        <time>2016-07-05T07:32:53Z</time>
      </trkpt>
      <trkpt lat="48.66506" lon="-2.29142">
        <ele>54.2</ele>
        <time>2016-07-05T07:33:01Z</time>
      </trkpt>
      <trkpt lat="48.66501" lon="-2.29155">
        <ele>58.1</ele>
        <time>2016-07-05T07:33:09Z</time>
      </trkpt>
      <trkpt lat="48.66497" lon="-2.29169">
        <ele>60.4</ele>
        <time>2016-07-05T07:33:17Z</time>
      </trkpt>
      <trkpt lat="48.66493" lon="-2.29182">
        <ele>60.4</ele>
        <time>2016-07-05T07:33:25Z</time>
      </trkpt>
      <trkpt lat="48.66501" lon="-2.29191">
        <ele>58.9</ele>
        <time>2016-07-05T07:33:39Z</time>
      </trkpt>
      <trkpt lat="48.6651" lon="-2.29198">
        <ele>56.6</ele>
        <time>2016-07-05T07:33:48Z</time>
      </trkpt>
      <trkpt lat="48.66518" lon="-2.29206">
        <ele>58.7</ele>
        <time>2016-07-05T07:33:56Z</time>
      </trkpt>
      <trkpt lat="48.66526" lon="-2.29215">
        <ele>61.3</ele>
        <time>2016-07-05T07:34:05Z</time>
      </trkpt>
      <trkpt lat="48.66535" lon="-2.2922">
        <ele>57.9</ele>
        <time>2016-07-05T07:34:14Z</time>
      </trkpt>
      <trkpt lat="48.66542" lon="-2.2923">
        <ele>61.1</ele>
        <time>2016-07-05T07:34:24Z</time>
      </trkpt>
      <trkpt lat="48.6655" lon="-2.2924">
        <ele>62.6</ele>
        <time>2016-07-05T07:35:20Z</time>
      </trkpt>
      <trkpt lat="48.66557" lon="-2.29251">
        <ele>59.4</ele>
        <time>2016-07-05T07:35:28Z</time>
      </trkpt>
      <trkpt lat="48.66561" lon="-2.29263">
        <ele>62.5</ele>
        <time>2016-07-05T07:35:36Z</time>
      </trkpt>
      <trkpt lat="48.66567" lon="-2.29275">
        <ele>62.5</ele>
        <time>2016-07-05T07:35:43Z</time>
      </trkpt>
      <trkpt lat="48.66572" lon="-2.29286">
        <ele>56.6</ele>
        <time>2016-07-05T07:35:51Z</time>
      </trkpt>
      <trkpt lat="48.66577" lon="-2.293">
        <ele>60.6</ele>
        <time>2016-07-05T07:35:59Z</time>
      </trkpt>
      <trkpt lat="48.66582" lon="-2.29311">
        <ele>62.5</ele>
        <time>2016-07-05T07:36:08Z</time>
      </trkpt>
      <trkpt lat="48.66586" lon="-2.29324">
        <ele>52.6</ele>
        <time>2016-07-05T07:36:15Z</time>
      </trkpt>
      <trkpt lat="48.66591" lon="-2.29338">
        <ele>57.4</ele>
        <time>2016-07-05T07:36:22Z</time>
      </trkpt>
      <trkpt lat="48.66592" lon="-2.29353">
        <ele>61.7</ele>
        <time>2016-07-05T07:36:30Z</time>
      </trkpt>
      <trkpt lat="48.66595" lon="-2.29367">
        <ele>57</ele>
        <time>2016-07-05T07:36:38Z</time>
      </trkpt>
      <trkpt lat="48.66598" lon="-2.29381">
        <ele>57.8</ele>
        <time>2016-07-05T07:36:46Z</time>
      </trkpt>
      <trkpt lat="48.66604" lon="-2.29393">
        <ele>59.8</ele>
        <time>2016-07-05T07:36:53Z</time>
      </trkpt>
      <trkpt lat="48.66607" lon="-2.29406">
        <ele>54.6</ele>
        <time>2016-07-05T07:37:01Z</time>
      </trkpt>
      <trkpt lat="48.66611" lon="-2.29419">
        <ele>60.7</ele>
        <time>2016-07-05T07:37:10Z</time>
      </trkpt>
      <trkpt lat="48.66615" lon="-2.29431">
        <ele>57.3</ele>
        <time>2016-07-05T07:37:18Z</time>
      </trkpt>
      <trkpt lat="48.66619" lon="-2.29444">
        <ele>60.2</ele>
        <time>2016-07-05T07:37:25Z</time>
      </trkpt>
      <trkpt lat="48.66626" lon="-2.29455">
        <ele>62.3</ele>
        <time>2016-07-05T07:37:33Z</time>
      </trkpt>
      <trkpt lat="48.66631" lon="-2.29467">
        <ele>58.4</ele>
        <time>2016-07-05T07:37:41Z</time>
      </trkpt>
      <trkpt lat="48.66638" lon="-2.29477">
        <ele>61.6</ele>
        <time>2016-07-05T07:37:48Z</time>
      </trkpt>
      <trkpt lat="48.66644" lon="-2.29488">
        <ele>59.3</ele>
        <time>2016-07-05T07:37:55Z</time>
      </trkpt>
      <trkpt lat="48.66652" lon="-2.29498">
        <ele>60.5</ele>
        <time>2016-07-05T07:38:07Z</time>
      </trkpt>
      <trkpt lat="48.6666" lon="-2.29491">
        <ele>56.4</ele>
        <time>2016-07-05T07:38:15Z</time>
      </trkpt>
      <trkpt lat="48.66669" lon="-2.29493">
        <ele>51.7</ele>
        <time>2016-07-05T07:38:22Z</time>
      </trkpt>
      <trkpt lat="48.66678" lon="-2.29499">
        <ele>57.6</ele>
        <time>2016-07-05T07:38:29Z</time>
      </trkpt>
      <trkpt lat="48.66686" lon="-2.29504">
        <ele>57.5</ele>
        <time>2016-07-05T07:38:36Z</time>
      </trkpt>
      <trkpt lat="48.66695" lon="-2.29509">
        <ele>54.8</ele>
        <time>2016-07-05T07:38:43Z</time>
      </trkpt>
      <trkpt lat="48.66703" lon="-2.29515">
        <ele>56.5</ele>
        <time>2016-07-05T07:38:50Z</time>
      </trkpt>
      <trkpt lat="48.66712" lon="-2.29521">
        <ele>55.5</ele>
        <time>2016-07-05T07:38:58Z</time>
      </trkpt>
      <trkpt lat="48.66721" lon="-2.29527">
        <ele>56.9</ele>
        <time>2016-07-05T07:39:06Z</time>
      </trkpt>
      <trkpt lat="48.6673" lon="-2.29528">
        <ele>54.1</ele>
        <time>2016-07-05T07:39:15Z</time>
      </trkpt>
      <trkpt lat="48.66739" lon="-2.29529">
        <ele>53.1</ele>
        <time>2016-07-05T07:39:33Z</time>
      </trkpt>
      <trkpt lat="48.66747" lon="-2.29521">
        <ele>53.1</ele>
        <time>2016-07-05T07:39:48Z</time>
      </trkpt>
      <trkpt lat="48.66744" lon="-2.29508">
        <ele>46.7</ele>
        <time>2016-07-05T07:40:31Z</time>
      </trkpt>
      <trkpt lat="48.66745" lon="-2.29493">
        <ele>52.5</ele>
        <time>2016-07-05T07:40:40Z</time>
      </trkpt>
      <trkpt lat="48.66745" lon="-2.29478">
        <ele>51.6</ele>
        <time>2016-07-05T07:40:47Z</time>
      </trkpt>
      <trkpt lat="48.66748" lon="-2.29465">
        <ele>49.4</ele>
        <time>2016-07-05T07:40:57Z</time>
      </trkpt>
      <trkpt lat="48.66751" lon="-2.29451">
        <ele>48.8</ele>
        <time>2016-07-05T07:41:06Z</time>
      </trkpt>
      <trkpt lat="48.66754" lon="-2.29436">
        <ele>50.4</ele>
        <time>2016-07-05T07:41:15Z</time>
      </trkpt>
      <trkpt lat="48.66756" lon="-2.29423">
        <ele>48.8</ele>
        <time>2016-07-05T07:41:23Z</time>
      </trkpt>
      <trkpt lat="48.66758" lon="-2.29409">
        <ele>50.5</ele>
        <time>2016-07-05T07:41:31Z</time>
      </trkpt>
      <trkpt lat="48.66758" lon="-2.29396">
        <ele>46.4</ele>
        <time>2016-07-05T07:41:42Z</time>
      </trkpt>
      <trkpt lat="48.66757" lon="-2.2938">
        <ele>49.8</ele>
        <time>2016-07-05T07:42:03Z</time>
      </trkpt>
      <trkpt lat="48.66757" lon="-2.29365">
        <ele>46.2</ele>
        <time>2016-07-05T07:42:11Z</time>
      </trkpt>
      <trkpt lat="48.66758" lon="-2.29351">
        <ele>48.2</ele>
        <time>2016-07-05T07:42:20Z</time>
      </trkpt>
      <trkpt lat="48.66753" lon="-2.29338">
        <ele>52.6</ele>
        <time>2016-07-05T07:42:28Z</time>
      </trkpt>
      <trkpt lat="48.66751" lon="-2.29324">
        <ele>38.9</ele>
        <time>2016-07-05T07:42:35Z</time>
      </trkpt>
      <trkpt lat="48.66752" lon="-2.2931">
        <ele>47.4</ele>
        <time>2016-07-05T07:42:43Z</time>
      </trkpt>
      <trkpt lat="48.66752" lon="-2.29295">
        <ele>51.8</ele>
        <time>2016-07-05T07:42:52Z</time>
      </trkpt>
      <trkpt lat="48.66748" lon="-2.29282">
        <ele>47.5</ele>
        <time>2016-07-05T07:43:00Z</time>
      </trkpt>
      <trkpt lat="48.6674" lon="-2.29274">
        <ele>49.5</ele>
        <time>2016-07-05T07:43:08Z</time>
      </trkpt>
      <trkpt lat="48.66737" lon="-2.29259">
        <ele>49.1</ele>
        <time>2016-07-05T07:43:16Z</time>
      </trkpt>
      <trkpt lat="48.66735" lon="-2.29244">
        <ele>47</ele>
        <time>2016-07-05T07:43:24Z</time>
      </trkpt>
      <trkpt lat="48.6673" lon="-2.29232">
        <ele>50.2</ele>
        <time>2016-07-05T07:43:34Z</time>
      </trkpt>
      <trkpt lat="48.66724" lon="-2.29222">
        <ele>47.9</ele>
        <time>2016-07-05T07:43:42Z</time>
      </trkpt>
      <trkpt lat="48.66714" lon="-2.29218">
        <ele>54.2</ele>
        <time>2016-07-05T07:43:50Z</time>
      </trkpt>
      <trkpt lat="48.66709" lon="-2.29206">
        <ele>51.4</ele>
        <time>2016-07-05T07:44:00Z</time>
      </trkpt>
      <trkpt lat="48.667" lon="-2.29197">
        <ele>46.1</ele>
        <time>2016-07-05T07:44:07Z</time>
      </trkpt>
      <trkpt lat="48.66695" lon="-2.29182">
        <ele>46</ele>
        <time>2016-07-05T07:44:17Z</time>
      </trkpt>
      <trkpt lat="48.66695" lon="-2.29168">
        <ele>46.6</ele>
        <time>2016-07-05T07:44:26Z</time>
      </trkpt>
      <trkpt lat="48.66695" lon="-2.29153">
        <ele>50.3</ele>
        <time>2016-07-05T07:44:33Z</time>
      </trkpt>
      <trkpt lat="48.66698" lon="-2.29139">
        <ele>50.5</ele>
        <time>2016-07-05T07:44:42Z</time>
      </trkpt>
      <trkpt lat="48.66703" lon="-2.29127">
        <ele>47</ele>
        <time>2016-07-05T07:44:49Z</time>
      </trkpt>
      <trkpt lat="48.66709" lon="-2.29116">
        <ele>51.3</ele>
        <time>2016-07-05T07:44:57Z</time>
      </trkpt>
      <trkpt lat="48.66711" lon="-2.29102">
        <ele>47.1</ele>
        <time>2016-07-05T07:45:06Z</time>
      </trkpt>
      <trkpt lat="48.66709" lon="-2.29116">
        <ele>50.6</ele>
        <time>2016-07-05T07:46:34Z</time>
      </trkpt>
      <trkpt lat="48.66704" lon="-2.29127">
        <ele>48</ele>
        <time>2016-07-05T07:46:42Z</time>
      </trkpt>
      <trkpt lat="48.66697" lon="-2.29135">
        <ele>52.2</ele>
        <time>2016-07-05T07:46:50Z</time>
      </trkpt>
      <trkpt lat="48.66693" lon="-2.29149">
        <ele>47.8</ele>
        <time>2016-07-05T07:46:58Z</time>
      </trkpt>
      <trkpt lat="48.66694" lon="-2.29163">
        <ele>51.3</ele>
        <time>2016-07-05T07:47:06Z</time>
      </trkpt>
      <trkpt lat="48.66694" lon="-2.29178">
        <ele>49.8</ele>
        <time>2016-07-05T07:47:16Z</time>
      </trkpt>
      <trkpt lat="48.66699" lon="-2.29191">
        <ele>47.8</ele>
        <time>2016-07-05T07:47:25Z</time>
      </trkpt>
      <trkpt lat="48.66707" lon="-2.29201">
        <ele>43.8</ele>
        <time>2016-07-05T07:47:34Z</time>
      </trkpt>
      <trkpt lat="48.66715" lon="-2.29211">
        <ele>49.7</ele>
        <time>2016-07-05T07:47:42Z</time>
      </trkpt>
      <trkpt lat="48.66723" lon="-2.29219">
        <ele>48.9</ele>
        <time>2016-07-05T07:47:49Z</time>
      </trkpt>
      <trkpt lat="48.66728" lon="-2.2923">
        <ele>51.9</ele>
        <time>2016-07-05T07:47:56Z</time>
      </trkpt>
      <trkpt lat="48.66734" lon="-2.29242">
        <ele>47.9</ele>
        <time>2016-07-05T07:48:04Z</time>
      </trkpt>
      <trkpt lat="48.66736" lon="-2.29258">
        <ele>53.4</ele>
        <time>2016-07-05T07:48:13Z</time>
      </trkpt>
      <trkpt lat="48.6674" lon="-2.29271">
        <ele>50.2</ele>
        <time>2016-07-05T07:48:21Z</time>
      </trkpt>
      <trkpt lat="48.66747" lon="-2.2928">
        <ele>51.7</ele>
        <time>2016-07-05T07:48:28Z</time>
      </trkpt>
      <trkpt lat="48.66752" lon="-2.29291">
        <ele>43.5</ele>
        <time>2016-07-05T07:48:35Z</time>
      </trkpt>
      <trkpt lat="48.6675" lon="-2.29305">
        <ele>49.8</ele>
        <time>2016-07-05T07:48:44Z</time>
      </trkpt>
      <trkpt lat="48.66749" lon="-2.29319">
        <ele>42.2</ele>
        <time>2016-07-05T07:48:51Z</time>
      </trkpt>
      <trkpt lat="48.66751" lon="-2.29334">
        <ele>49.3</ele>
        <time>2016-07-05T07:48:59Z</time>
      </trkpt>
      <trkpt lat="48.66756" lon="-2.29346">
        <ele>45.3</ele>
        <time>2016-07-05T07:49:07Z</time>
      </trkpt>
      <trkpt lat="48.66756" lon="-2.29361">
        <ele>49.4</ele>
        <time>2016-07-05T07:49:15Z</time>
      </trkpt>
      <trkpt lat="48.66757" lon="-2.29376">
        <ele>47.4</ele>
        <time>2016-07-05T07:49:22Z</time>
      </trkpt>
      <trkpt lat="48.66756" lon="-2.29391">
        <ele>51.9</ele>
        <time>2016-07-05T07:49:31Z</time>
      </trkpt>
      <trkpt lat="48.66758" lon="-2.29405">
        <ele>49.8</ele>
        <time>2016-07-05T07:49:40Z</time>
      </trkpt>
      <trkpt lat="48.66757" lon="-2.29419">
        <ele>48.6</ele>
        <time>2016-07-05T07:49:48Z</time>
      </trkpt>
      <trkpt lat="48.66753" lon="-2.29432">
        <ele>52.2</ele>
        <time>2016-07-05T07:49:56Z</time>
      </trkpt>
      <trkpt lat="48.66753" lon="-2.29447">
        <ele>46.5</ele>
        <time>2016-07-05T07:50:05Z</time>
      </trkpt>
      <trkpt lat="48.66751" lon="-2.29461">
        <ele>48.1</ele>
        <time>2016-07-05T07:50:13Z</time>
      </trkpt>
      <trkpt lat="48.66749" lon="-2.29475">
        <ele>47.6</ele>
        <time>2016-07-05T07:50:22Z</time>
      </trkpt>
      <trkpt lat="48.66748" lon="-2.29489">
        <ele>53.6</ele>
        <time>2016-07-05T07:50:30Z</time>
      </trkpt>
      <trkpt lat="48.66744" lon="-2.29501">
        <ele>49.9</ele>
        <time>2016-07-05T07:50:37Z</time>
      </trkpt>
      <trkpt lat="48.66745" lon="-2.29515">
        <ele>52.2</ele>
        <time>2016-07-05T07:50:47Z</time>
      </trkpt>
      <trkpt lat="48.66742" lon="-2.29529">
        <ele>46.9</ele>
        <time>2016-07-05T07:51:42Z</time>
      </trkpt>
      <trkpt lat="48.6674" lon="-2.29544">
        <ele>51.5</ele>
        <time>2016-07-05T07:51:55Z</time>
      </trkpt>
      <trkpt lat="48.66737" lon="-2.29558">
        <ele>55.7</ele>
        <time>2016-07-05T07:52:03Z</time>
      </trkpt>
      <trkpt lat="48.66734" lon="-2.29571">
        <ele>48.4</ele>
        <time>2016-07-05T07:52:10Z</time>
      </trkpt>
      <trkpt lat="48.66727" lon="-2.29578">
        <ele>53.3</ele>
        <time>2016-07-05T07:52:18Z</time>
      </trkpt>
      <trkpt lat="48.66724" lon="-2.29592">
        <ele>51.9</ele>
        <time>2016-07-05T07:52:28Z</time>
      </trkpt>
      <trkpt lat="48.66722" lon="-2.29606">
        <ele>54</ele>
        <time>2016-07-05T07:52:36Z</time>
      </trkpt>
      <trkpt lat="48.66725" lon="-2.2962">
        <ele>55.4</ele>
        <time>2016-07-05T07:52:45Z</time>
      </trkpt>
      <trkpt lat="48.66723" lon="-2.29634">
        <ele>55.9</ele>
        <time>2016-07-05T07:52:53Z</time>
      </trkpt>
      <trkpt lat="48.6672" lon="-2.29647">
        <ele>56.7</ele>
        <time>2016-07-05T07:53:01Z</time>
      </trkpt>
      <trkpt lat="48.6672" lon="-2.29662">
        <ele>48.8</ele>
        <time>2016-07-05T07:53:10Z</time>
      </trkpt>
      <trkpt lat="48.66719" lon="-2.29676">
        <ele>54.3</ele>
        <time>2016-07-05T07:53:18Z</time>
      </trkpt>
      <trkpt lat="48.6672" lon="-2.29691">
        <ele>53.6</ele>
        <time>2016-07-05T07:53:26Z</time>
      </trkpt>
      <trkpt lat="48.66714" lon="-2.29703">
        <ele>52.8</ele>
        <time>2016-07-05T07:53:35Z</time>
      </trkpt>
      <trkpt lat="48.6671" lon="-2.29716">
        <ele>53.3</ele>
        <time>2016-07-05T07:53:44Z</time>
      </trkpt>
      <trkpt lat="48.66705" lon="-2.29728">
        <ele>56.2</ele>
        <time>2016-07-05T07:53:52Z</time>
      </trkpt>
      <trkpt lat="48.66696" lon="-2.29729">
        <ele>57.8</ele>
        <time>2016-07-05T07:54:05Z</time>
      </trkpt>
      <trkpt lat="48.66693" lon="-2.29742">
        <ele>61.1</ele>
        <time>2016-07-05T07:54:15Z</time>
      </trkpt>
      <trkpt lat="48.6669" lon="-2.29755">
        <ele>60.8</ele>
        <time>2016-07-05T07:54:23Z</time>
      </trkpt>
      <trkpt lat="48.66684" lon="-2.29767">
        <ele>61.4</ele>
        <time>2016-07-05T07:55:17Z</time>
      </trkpt>
      <trkpt lat="48.66684" lon="-2.29782">
        <ele>60.1</ele>
        <time>2016-07-05T07:55:35Z</time>
      </trkpt>
      <trkpt lat="48.66683" lon="-2.29796">
        <ele>61.5</ele>
        <time>2016-07-05T07:55:42Z</time>
      </trkpt>
      <trkpt lat="48.66688" lon="-2.29809">
        <ele>62.5</ele>
        <time>2016-07-05T07:55:50Z</time>
      </trkpt>
      <trkpt lat="48.66691" lon="-2.29824">
        <ele>62.9</ele>
        <time>2016-07-05T07:55:58Z</time>
      </trkpt>
      <trkpt lat="48.66694" lon="-2.29839">
        <ele>62.2</ele>
        <time>2016-07-05T07:56:07Z</time>
      </trkpt>
      <trkpt lat="48.66692" lon="-2.29853">
        <ele>60.3</ele>
        <time>2016-07-05T07:56:17Z</time>
      </trkpt>
      <trkpt lat="48.66689" lon="-2.29866">
        <ele>67.6</ele>
        <time>2016-07-05T07:56:28Z</time>
      </trkpt>
      <trkpt lat="48.66689" lon="-2.2988">
        <ele>63.5</ele>
        <time>2016-07-05T07:56:40Z</time>
      </trkpt>
      <trkpt lat="48.6669" lon="-2.29894">
        <ele>67.2</ele>
        <time>2016-07-05T07:56:51Z</time>
      </trkpt>
      <trkpt lat="48.66692" lon="-2.29909">
        <ele>66.6</ele>
        <time>2016-07-05T07:57:03Z</time>
      </trkpt>
      <trkpt lat="48.66695" lon="-2.29923">
        <ele>70.4</ele>
        <time>2016-07-05T07:57:13Z</time>
      </trkpt>
      <trkpt lat="48.66701" lon="-2.29934">
        <ele>71.4</ele>
        <time>2016-07-05T07:57:30Z</time>
      </trkpt>
      <trkpt lat="48.66706" lon="-2.29946">
        <ele>73.7</ele>
        <time>2016-07-05T07:57:44Z</time>
      </trkpt>
      <trkpt lat="48.66707" lon="-2.2996">
        <ele>72.4</ele>
        <time>2016-07-05T07:57:55Z</time>
      </trkpt>
      <trkpt lat="48.66708" lon="-2.29976">
        <ele>72.4</ele>
        <time>2016-07-05T07:58:03Z</time>
      </trkpt>
      <trkpt lat="48.66707" lon="-2.2999">
        <ele>70.1</ele>
        <time>2016-07-05T07:59:01Z</time>
      </trkpt>
      <trkpt lat="48.66707" lon="-2.30004">
        <ele>71.5</ele>
        <time>2016-07-05T07:59:10Z</time>
      </trkpt>
      <trkpt lat="48.66708" lon="-2.3002">
        <ele>69.8</ele>
        <time>2016-07-05T07:59:20Z</time>
      </trkpt>
      <trkpt lat="48.6671" lon="-2.30035">
        <ele>61.3</ele>
        <time>2016-07-05T07:59:29Z</time>
      </trkpt>
      <trkpt lat="48.66711" lon="-2.3005">
        <ele>66.1</ele>
        <time>2016-07-05T07:59:37Z</time>
      </trkpt>
      <trkpt lat="48.66714" lon="-2.30064">
        <ele>67.3</ele>
        <time>2016-07-05T07:59:44Z</time>
      </trkpt>
      <trkpt lat="48.66717" lon="-2.30077">
        <ele>63.5</ele>
        <time>2016-07-05T07:59:51Z</time>
      </trkpt>
      <trkpt lat="48.66717" lon="-2.30091">
        <ele>68</ele>
        <time>2016-07-05T08:00:00Z</time>
      </trkpt>
      <trkpt lat="48.66721" lon="-2.30104">
        <ele>63.8</ele>
        <time>2016-07-05T08:00:11Z</time>
      </trkpt>
      <trkpt lat="48.66723" lon="-2.30118">
        <ele>64.1</ele>
        <time>2016-07-05T08:00:21Z</time>
      </trkpt>
      <trkpt lat="48.66724" lon="-2.30132">
        <ele>61</ele>
        <time>2016-07-05T08:00:37Z</time>
      </trkpt>
      <trkpt lat="48.66722" lon="-2.30146">
        <ele>61.6</ele>
        <time>2016-07-05T08:00:44Z</time>
      </trkpt>
      <trkpt lat="48.66722" lon="-2.30162">
        <ele>63</ele>
        <time>2016-07-05T08:00:53Z</time>
      </trkpt>
      <trkpt lat="48.66723" lon="-2.30175">
        <ele>61</ele>
        <time>2016-07-05T08:01:01Z</time>
      </trkpt>
      <trkpt lat="48.66723" lon="-2.30189">
        <ele>60.4</ele>
        <time>2016-07-05T08:01:44Z</time>
      </trkpt>
      <trkpt lat="48.66721" lon="-2.30203">
        <ele>60.5</ele>
        <time>2016-07-05T08:02:02Z</time>
      </trkpt>
      <trkpt lat="48.66714" lon="-2.30214">
        <ele>66.9</ele>
        <time>2016-07-05T08:02:21Z</time>
      </trkpt>
      <trkpt lat="48.66716" lon="-2.30227">
        <ele>65.4</ele>
        <time>2016-07-05T08:02:32Z</time>
      </trkpt>
      <trkpt lat="48.66717" lon="-2.30241">
        <ele>65.7</ele>
        <time>2016-07-05T08:02:46Z</time>
      </trkpt>
      <trkpt lat="48.66713" lon="-2.30254">
        <ele>65.9</ele>
        <time>2016-07-05T08:02:55Z</time>
      </trkpt>
      <trkpt lat="48.66711" lon="-2.30269">
        <ele>68.3</ele>
        <time>2016-07-05T08:03:15Z</time>
      </trkpt>
      <trkpt lat="48.66712" lon="-2.30284">
        <ele>61.6</ele>
        <time>2016-07-05T08:03:23Z</time>
      </trkpt>
      <trkpt lat="48.66716" lon="-2.30298">
        <ele>63.1</ele>
        <time>2016-07-05T08:03:31Z</time>
      </trkpt>
      <trkpt lat="48.66721" lon="-2.3031">
        <ele>66.2</ele>
        <time>2016-07-05T08:03:41Z</time>
      </trkpt>
      <trkpt lat="48.66728" lon="-2.3032">
        <ele>67.2</ele>
        <time>2016-07-05T08:03:51Z</time>
      </trkpt>
      <trkpt lat="48.66734" lon="-2.30331">
        <ele>68.6</ele>
        <time>2016-07-05T08:04:22Z</time>
      </trkpt>
      <trkpt lat="48.66737" lon="-2.30345">
        <ele>73.2</ele>
        <time>2016-07-05T08:04:38Z</time>
      </trkpt>
      <trkpt lat="48.66744" lon="-2.30356">
        <ele>75.7</ele>
        <time>2016-07-05T08:04:46Z</time>
      </trkpt>
      <trkpt lat="48.6675" lon="-2.30367">
        <ele>76.4</ele>
        <time>2016-07-05T08:05:04Z</time>
      </trkpt>
      <trkpt lat="48.66759" lon="-2.30373">
        <ele>74.6</ele>
        <time>2016-07-05T08:05:31Z</time>
      </trkpt>
      <trkpt lat="48.66765" lon="-2.30384">
        <ele>74.6</ele>
        <time>2016-07-05T08:05:39Z</time>
      </trkpt>
      <trkpt lat="48.66767" lon="-2.30398">
        <ele>75.1</ele>
        <time>2016-07-05T08:05:55Z</time>
      </trkpt>
      <trkpt lat="48.66768" lon="-2.30412">
        <ele>70.8</ele>
        <time>2016-07-05T08:06:02Z</time>
      </trkpt>
      <trkpt lat="48.66771" lon="-2.30427">
        <ele>70.7</ele>
        <time>2016-07-05T08:06:10Z</time>
      </trkpt>
      <trkpt lat="48.66771" lon="-2.30441">
        <ele>74.3</ele>
        <time>2016-07-05T08:06:18Z</time>
      </trkpt>
      <trkpt lat="48.6678" lon="-2.3045">
        <ele>76.8</ele>
        <time>2016-07-05T08:06:25Z</time>
      </trkpt>
      <trkpt lat="48.66786" lon="-2.30461">
        <ele>79.3</ele>
        <time>2016-07-05T08:06:32Z</time>
      </trkpt>
      <trkpt lat="48.66793" lon="-2.30469">
        <ele>79.5</ele>
        <time>2016-07-05T08:06:39Z</time>
      </trkpt>
      <trkpt lat="48.66798" lon="-2.30482">
        <ele>78.3</ele>
        <time>2016-07-05T08:07:02Z</time>
      </trkpt>
      <trkpt lat="48.66801" lon="-2.30495">
        <ele>74.6</ele>
        <time>2016-07-05T08:08:06Z</time>
      </trkpt>
      <trkpt lat="48.668" lon="-2.3051">
        <ele>73.2</ele>
        <time>2016-07-05T08:08:21Z</time>
      </trkpt>
      <trkpt lat="48.66803" lon="-2.30524">
        <ele>70.3</ele>
        <time>2016-07-05T08:08:32Z</time>
      </trkpt>
      <trkpt lat="48.66808" lon="-2.30537">
        <ele>67.5</ele>
        <time>2016-07-05T08:08:40Z</time>
      </trkpt>
      <trkpt lat="48.66812" lon="-2.30549">
        <ele>68.7</ele>
        <time>2016-07-05T08:08:50Z</time>
      </trkpt>
      <trkpt lat="48.66817" lon="-2.30563">
        <ele>65.2</ele>
        <time>2016-07-05T08:08:58Z</time>
      </trkpt>
      <trkpt lat="48.66819" lon="-2.30577">
        <ele>66.7</ele>
        <time>2016-07-05T08:09:06Z</time>
      </trkpt>
      <trkpt lat="48.66822" lon="-2.3059">
        <ele>68.5</ele>
        <time>2016-07-05T08:09:14Z</time>
      </trkpt>
      <trkpt lat="48.66826" lon="-2.30604">
        <ele>66.4</ele>
        <time>2016-07-05T08:09:23Z</time>
      </trkpt>
      <trkpt lat="48.66829" lon="-2.30618">
        <ele>68</ele>
        <time>2016-07-05T08:09:31Z</time>
      </trkpt>
      <trkpt lat="48.66829" lon="-2.30632">
        <ele>66</ele>
        <time>2016-07-05T08:09:44Z</time>
      </trkpt>
      <trkpt lat="48.66836" lon="-2.3064">
        <ele>67.5</ele>
        <time>2016-07-05T08:10:12Z</time>
      </trkpt>
      <trkpt lat="48.66841" lon="-2.30651">
        <ele>64.1</ele>
        <time>2016-07-05T08:10:27Z</time>
      </trkpt>
      <trkpt lat="48.66844" lon="-2.30664">
        <ele>67</ele>
        <time>2016-07-05T08:11:02Z</time>
      </trkpt>
      <trkpt lat="48.66845" lon="-2.30679">
        <ele>68.4</ele>
        <time>2016-07-05T08:11:10Z</time>
      </trkpt>
      <trkpt lat="48.66846" lon="-2.30693">
        <ele>70.2</ele>
        <time>2016-07-05T08:11:18Z</time>
      </trkpt>
      <trkpt lat="48.66847" lon="-2.30708">
        <ele>69.9</ele>
        <time>2016-07-05T08:11:25Z</time>
      </trkpt>
      <trkpt lat="48.66846" lon="-2.30722">
        <ele>67.7</ele>
        <time>2016-07-05T08:11:33Z</time>
      </trkpt>
      <trkpt lat="48.66849" lon="-2.30736">
        <ele>69.4</ele>
        <time>2016-07-05T08:11:41Z</time>
      </trkpt>
      <trkpt lat="48.66854" lon="-2.30749">
        <ele>67.5</ele>
        <time>2016-07-05T08:11:50Z</time>
      </trkpt>
      <trkpt lat="48.66859" lon="-2.30761">
        <ele>69.7</ele>
        <time>2016-07-05T08:12:10Z</time>
      </trkpt>
      <trkpt lat="48.66863" lon="-2.30775">
        <ele>69</ele>
        <time>2016-07-05T08:12:51Z</time>
      </trkpt>
      <trkpt lat="48.66867" lon="-2.30788">
        <ele>68.9</ele>
        <time>2016-07-05T08:13:01Z</time>
      </trkpt>
      <trkpt lat="48.66873" lon="-2.30799">
        <ele>67.2</ele>
        <time>2016-07-05T08:13:09Z</time>
      </trkpt>
      <trkpt lat="48.66876" lon="-2.30811">
        <ele>66.1</ele>
        <time>2016-07-05T08:13:17Z</time>
      </trkpt>
      <trkpt lat="48.66882" lon="-2.30823">
        <ele>65.2</ele>
        <time>2016-07-05T08:13:25Z</time>
      </trkpt>
      <trkpt lat="48.66885" lon="-2.30837">
        <ele>63.1</ele>
        <time>2016-07-05T08:13:33Z</time>
      </trkpt>
      <trkpt lat="48.66889" lon="-2.30849">
        <ele>64.6</ele>
        <time>2016-07-05T08:13:41Z</time>
      </trkpt>
      <trkpt lat="48.66892" lon="-2.30864">
        <ele>62.8</ele>
        <time>2016-07-05T08:13:49Z</time>
      </trkpt>
      <trkpt lat="48.66895" lon="-2.30879">
        <ele>64</ele>
        <time>2016-07-05T08:13:58Z</time>
      </trkpt>
      <trkpt lat="48.66896" lon="-2.30893">
        <ele>62.8</ele>
        <time>2016-07-05T08:14:07Z</time>
      </trkpt>
      <trkpt lat="48.66901" lon="-2.30907">
        <ele>62.1</ele>
        <time>2016-07-05T08:14:17Z</time>
      </trkpt>
      <trkpt lat="48.66906" lon="-2.30917">
        <ele>59.4</ele>
        <time>2016-07-05T08:14:26Z</time>
      </trkpt>
      <trkpt lat="48.66913" lon="-2.30928">
        <ele>57.9</ele>
        <time>2016-07-05T08:14:35Z</time>
      </trkpt>
      <trkpt lat="48.66919" lon="-2.30939">
        <ele>58.8</ele>
        <time>2016-07-05T08:14:45Z</time>
      </trkpt>
      <trkpt lat="48.66925" lon="-2.3095">
        <ele>56.2</ele>
        <time>2016-07-05T08:14:53Z</time>
      </trkpt>
      <trkpt lat="48.66929" lon="-2.30964">
        <ele>58.9</ele>
        <time>2016-07-05T08:15:02Z</time>
      </trkpt>
      <trkpt lat="48.66932" lon="-2.30979">
        <ele>57.4</ele>
        <time>2016-07-05T08:15:10Z</time>
      </trkpt>
      <trkpt lat="48.66936" lon="-2.30992">
        <ele>56.3</ele>
        <time>2016-07-05T08:15:19Z</time>
      </trkpt>
      <trkpt lat="48.66942" lon="-2.31003">
        <ele>55.3</ele>
        <time>2016-07-05T08:15:28Z</time>
      </trkpt>
      <trkpt lat="48.66948" lon="-2.31014">
        <ele>58.1</ele>
        <time>2016-07-05T08:15:37Z</time>
      </trkpt>
      <trkpt lat="48.66956" lon="-2.31024">
        <ele>57.4</ele>
        <time>2016-07-05T08:15:45Z</time>
      </trkpt>
      <trkpt lat="48.66961" lon="-2.31035">
        <ele>59.7</ele>
        <time>2016-07-05T08:16:09Z</time>
      </trkpt>
      <trkpt lat="48.66966" lon="-2.31046">
        <ele>60.2</ele>
        <time>2016-07-05T08:16:15Z</time>
      </trkpt>
      <trkpt lat="48.66969" lon="-2.3106">
        <ele>60.8</ele>
        <time>2016-07-05T08:16:23Z</time>
      </trkpt>
      <trkpt lat="48.66966" lon="-2.31073">
        <ele>61.6</ele>
        <time>2016-07-05T08:16:31Z</time>
      </trkpt>
      <trkpt lat="48.66964" lon="-2.31088">
        <ele>62.6</ele>
        <time>2016-07-05T08:16:55Z</time>
      </trkpt>
      <trkpt lat="48.6696" lon="-2.311">
        <ele>60.8</ele>
        <time>2016-07-05T08:17:02Z</time>
      </trkpt>
      <trkpt lat="48.66956" lon="-2.31113">
        <ele>62.2</ele>
        <time>2016-07-05T08:17:09Z</time>
      </trkpt>
      <trkpt lat="48.66953" lon="-2.31127">
        <ele>59.6</ele>
        <time>2016-07-05T08:17:21Z</time>
      </trkpt>
      <trkpt lat="48.66947" lon="-2.31139">
        <ele>58.3</ele>
        <time>2016-07-05T08:17:31Z</time>
      </trkpt>
      <trkpt lat="48.66943" lon="-2.31151">
        <ele>57.6</ele>
        <time>2016-07-05T08:17:42Z</time>
      </trkpt>
      <trkpt lat="48.66947" lon="-2.31164">
        <ele>58.4</ele>
        <time>2016-07-05T08:17:53Z</time>
      </trkpt>
      <trkpt lat="48.66957" lon="-2.31169">
        <ele>58.7</ele>
        <time>2016-07-05T08:18:02Z</time>
      </trkpt>
      <trkpt lat="48.66966" lon="-2.31167">
        <ele>59.8</ele>
        <time>2016-07-05T08:18:11Z</time>
      </trkpt>
      <trkpt lat="48.66975" lon="-2.31167">
        <ele>59.1</ele>
        <time>2016-07-05T08:18:20Z</time>
      </trkpt>
      <trkpt lat="48.66986" lon="-2.31167">
        <ele>57.4</ele>
        <time>2016-07-05T08:18:29Z</time>
      </trkpt>
      <trkpt lat="48.66995" lon="-2.31166">
        <ele>56.9</ele>
        <time>2016-07-05T08:18:37Z</time>
      </trkpt>
      <trkpt lat="48.67004" lon="-2.31164">
        <ele>60.2</ele>
        <time>2016-07-05T08:18:45Z</time>
      </trkpt>
      <trkpt lat="48.67013" lon="-2.31163">
        <ele>60.1</ele>
        <time>2016-07-05T08:18:53Z</time>
      </trkpt>
      <trkpt lat="48.67023" lon="-2.31159">
        <ele>59.5</ele>
        <time>2016-07-05T08:19:02Z</time>
      </trkpt>
      <trkpt lat="48.67031" lon="-2.31165">
        <ele>60.1</ele>
        <time>2016-07-05T08:19:17Z</time>
      </trkpt>
      <trkpt lat="48.67036" lon="-2.31177">
        <ele>60.9</ele>
        <time>2016-07-05T08:19:30Z</time>
      </trkpt>
      <trkpt lat="48.67043" lon="-2.31187">
        <ele>65</ele>
        <time>2016-07-05T08:19:52Z</time>
      </trkpt>
      <trkpt lat="48.6705" lon="-2.31199">
        <ele>62.5</ele>
        <time>2016-07-05T08:19:59Z</time>
      </trkpt>
      <trkpt lat="48.67055" lon="-2.31211">
        <ele>62.8</ele>
        <time>2016-07-05T08:20:08Z</time>
      </trkpt>
      <trkpt lat="48.67059" lon="-2.31225">
        <ele>60.9</ele>
        <time>2016-07-05T08:20:18Z</time>
      </trkpt>
      <trkpt lat="48.67065" lon="-2.31236">
        <ele>57.7</ele>
        <time>2016-07-05T08:20:28Z</time>
      </trkpt>
      <trkpt lat="48.67071" lon="-2.31248">
        <ele>59</ele>
        <time>2016-07-05T08:20:37Z</time>
      </trkpt>
      <trkpt lat="48.67078" lon="-2.31259">
        <ele>56.2</ele>
        <time>2016-07-05T08:20:45Z</time>
      </trkpt>
      <trkpt lat="48.67086" lon="-2.31268">
        <ele>56.7</ele>
        <time>2016-07-05T08:20:54Z</time>
      </trkpt>
      <trkpt lat="48.67093" lon="-2.31279">
        <ele>57</ele>
        <time>2016-07-05T08:21:04Z</time>
      </trkpt>
      <trkpt lat="48.67102" lon="-2.31286">
        <ele>58.1</ele>
        <time>2016-07-05T08:21:13Z</time>
      </trkpt>
      <trkpt lat="48.6711" lon="-2.31292">
        <ele>56.1</ele>
        <time>2016-07-05T08:21:28Z</time>
      </trkpt>
      <trkpt lat="48.67119" lon="-2.31296">
        <ele>55.7</ele>
        <time>2016-07-05T08:21:35Z</time>
      </trkpt>
      <trkpt lat="48.67128" lon="-2.31298">
        <ele>56.8</ele>
        <time>2016-07-05T08:21:43Z</time>
      </trkpt>
      <trkpt lat="48.67138" lon="-2.31295">
        <ele>56.1</ele>
        <time>2016-07-05T08:21:51Z</time>
      </trkpt>
      <trkpt lat="48.67146" lon="-2.31299">
        <ele>52</ele>
        <time>2016-07-05T08:22:00Z</time>
      </trkpt>
      <trkpt lat="48.67153" lon="-2.31309">
        <ele>54.8</ele>
        <time>2016-07-05T08:22:18Z</time>
      </trkpt>
      <trkpt lat="48.67159" lon="-2.31322">
        <ele>53.4</ele>
        <time>2016-07-05T08:22:26Z</time>
      </trkpt>
      <trkpt lat="48.67166" lon="-2.31331">
        <ele>55.9</ele>
        <time>2016-07-05T08:22:34Z</time>
      </trkpt>
      <trkpt lat="48.67174" lon="-2.31336">
        <ele>57</ele>
        <time>2016-07-05T08:22:45Z</time>
      </trkpt>
      <trkpt lat="48.6718" lon="-2.31348">
        <ele>59.8</ele>
        <time>2016-07-05T08:23:10Z</time>
      </trkpt>
      <trkpt lat="48.67188" lon="-2.31358">
        <ele>61.2</ele>
        <time>2016-07-05T08:23:17Z</time>
      </trkpt>
      <trkpt lat="48.67195" lon="-2.31366">
        <ele>60.3</ele>
        <time>2016-07-05T08:23:25Z</time>
      </trkpt>
      <trkpt lat="48.67203" lon="-2.31372">
        <ele>60.6</ele>
        <time>2016-07-05T08:23:32Z</time>
      </trkpt>
      <trkpt lat="48.67212" lon="-2.31378">
        <ele>57.3</ele>
        <time>2016-07-05T08:23:40Z</time>
      </trkpt>
      <trkpt lat="48.67219" lon="-2.31387">
        <ele>59.6</ele>
        <time>2016-07-05T08:23:51Z</time>
      </trkpt>
      <trkpt lat="48.67225" lon="-2.31398">
        <ele>61.2</ele>
        <time>2016-07-05T08:24:07Z</time>
      </trkpt>
      <trkpt lat="48.67231" lon="-2.31408">
        <ele>65.5</ele>
        <time>2016-07-05T08:24:39Z</time>
      </trkpt>
      <trkpt lat="48.67238" lon="-2.31419">
        <ele>62.1</ele>
        <time>2016-07-05T08:24:47Z</time>
      </trkpt>
      <trkpt lat="48.67244" lon="-2.31431">
        <ele>62.4</ele>
        <time>2016-07-05T08:24:56Z</time>
      </trkpt>
      <trkpt lat="48.67249" lon="-2.31443">
        <ele>62.3</ele>
        <time>2016-07-05T08:25:03Z</time>
      </trkpt>
      <trkpt lat="48.67249" lon="-2.31457">
        <ele>58.9</ele>
        <time>2016-07-05T08:25:11Z</time>
      </trkpt>
      <trkpt lat="48.67255" lon="-2.31468">
        <ele>59.2</ele>
        <time>2016-07-05T08:25:25Z</time>
      </trkpt>
      <trkpt lat="48.6726" lon="-2.3148">
        <ele>58.3</ele>
        <time>2016-07-05T08:25:34Z</time>
      </trkpt>
      <trkpt lat="48.6727" lon="-2.31485">
        <ele>57.3</ele>
        <time>2016-07-05T08:25:44Z</time>
      </trkpt>
      <trkpt lat="48.67277" lon="-2.31496">
        <ele>59.7</ele>
        <time>2016-07-05T08:25:57Z</time>
      </trkpt>
      <trkpt lat="48.67278" lon="-2.31509">
        <ele>58.4</ele>
        <time>2016-07-05T08:26:05Z</time>
      </trkpt>
      <trkpt lat="48.67286" lon="-2.31516">
        <ele>56.3</ele>
        <time>2016-07-05T08:26:14Z</time>
      </trkpt>
      <trkpt lat="48.67296" lon="-2.31517">
        <ele>62</ele>
        <time>2016-07-05T08:26:43Z</time>
      </trkpt>
      <trkpt lat="48.67305" lon="-2.3152">
        <ele>59.2</ele>
        <time>2016-07-05T08:26:52Z</time>
      </trkpt>
      <trkpt lat="48.67314" lon="-2.31526">
        <ele>63.3</ele>
        <time>2016-07-05T08:27:00Z</time>
      </trkpt>
      <trkpt lat="48.67322" lon="-2.31532">
        <ele>62.4</ele>
        <time>2016-07-05T08:27:09Z</time>
      </trkpt>
      <trkpt lat="48.67331" lon="-2.31538">
        <ele>64.2</ele>
        <time>2016-07-05T08:27:21Z</time>
      </trkpt>
      <trkpt lat="48.6734" lon="-2.31543">
        <ele>65</ele>
        <time>2016-07-05T08:27:31Z</time>
      </trkpt>
      <trkpt lat="48.6735" lon="-2.31546">
        <ele>65.4</ele>
        <time>2016-07-05T08:27:42Z</time>
      </trkpt>
      <trkpt lat="48.67359" lon="-2.31551">
        <ele>63.9</ele>
        <time>2016-07-05T08:27:51Z</time>
      </trkpt>
      <trkpt lat="48.67369" lon="-2.31551">
        <ele>63.4</ele>
        <time>2016-07-05T08:27:59Z</time>
      </trkpt>
      <trkpt lat="48.67378" lon="-2.31553">
        <ele>64.8</ele>
        <time>2016-07-05T08:28:07Z</time>
      </trkpt>
      <trkpt lat="48.67387" lon="-2.31556">
        <ele>65.6</ele>
        <time>2016-07-05T08:28:16Z</time>
      </trkpt>
      <trkpt lat="48.67396" lon="-2.31558">
        <ele>65</ele>
        <time>2016-07-05T08:28:24Z</time>
      </trkpt>
      <trkpt lat="48.67406" lon="-2.3156">
        <ele>64.5</ele>
        <time>2016-07-05T08:28:33Z</time>
      </trkpt>
      <trkpt lat="48.67415" lon="-2.31562">
        <ele>64.6</ele>
        <time>2016-07-05T08:28:42Z</time>
      </trkpt>
      <trkpt lat="48.67425" lon="-2.31564">
        <ele>61.6</ele>
        <time>2016-07-05T08:28:50Z</time>
      </trkpt>
      <trkpt lat="48.67434" lon="-2.31567">
        <ele>62</ele>
        <time>2016-07-05T08:29:00Z</time>
      </trkpt>
      <trkpt lat="48.67443" lon="-2.31572">
        <ele>63.2</ele>
        <time>2016-07-05T08:29:08Z</time>
      </trkpt>
      <trkpt lat="48.67452" lon="-2.31573">
        <ele>61.3</ele>
        <time>2016-07-05T08:29:17Z</time>
      </trkpt>
      <trkpt lat="48.67461" lon="-2.31572">
        <ele>60.5</ele>
        <time>2016-07-05T08:29:25Z</time>
      </trkpt>
      <trkpt lat="48.67471" lon="-2.31575">
        <ele>60.4</ele>
        <time>2016-07-05T08:29:54Z</time>
      </trkpt>
      <trkpt lat="48.67469" lon="-2.3159">
        <ele>54.6</ele>
        <time>2016-07-05T08:30:02Z</time>
      </trkpt>
      <trkpt lat="48.67467" lon="-2.31604">
        <ele>59.1</ele>
        <time>2016-07-05T08:30:10Z</time>
      </trkpt>
      <trkpt lat="48.67474" lon="-2.31594">
        <ele>57.8</ele>
        <time>2016-07-05T08:30:40Z</time>
      </trkpt>
      <trkpt lat="48.67475" lon="-2.31608">
        <ele>56.7</ele>
        <time>2016-07-05T08:30:56Z</time>
      </trkpt>
      <trkpt lat="48.67481" lon="-2.31596">
        <ele>55.4</ele>
        <time>2016-07-05T08:31:25Z</time>
      </trkpt>
      <trkpt lat="48.67485" lon="-2.3161">
        <ele>52.4</ele>
        <time>2016-07-05T08:31:45Z</time>
      </trkpt>
      <trkpt lat="48.67481" lon="-2.31622">
        <ele>53</ele>
        <time>2016-07-05T08:31:53Z</time>
      </trkpt>
      <trkpt lat="48.67478" lon="-2.31635">
        <ele>51.8</ele>
        <time>2016-07-05T08:32:01Z</time>
      </trkpt>
      <trkpt lat="48.67475" lon="-2.31648">
        <ele>52.2</ele>
        <time>2016-07-05T08:32:10Z</time>
      </trkpt>
      <trkpt lat="48.67482" lon="-2.31659">
        <ele>50.5</ele>
        <time>2016-07-05T08:32:19Z</time>
      </trkpt>
      <trkpt lat="48.67488" lon="-2.31669">
        <ele>49.1</ele>
        <time>2016-07-05T08:32:28Z</time>
      </trkpt>
      <trkpt lat="48.67492" lon="-2.31682">
        <ele>50.9</ele>
        <time>2016-07-05T08:32:37Z</time>
      </trkpt>
      <trkpt lat="48.67501" lon="-2.31679">
        <ele>55.1</ele>
        <time>2016-07-05T08:35:10Z</time>
      </trkpt>
      <trkpt lat="48.67508" lon="-2.3167">
        <ele>56.1</ele>
        <time>2016-07-05T08:35:17Z</time>
      </trkpt>
      <trkpt lat="48.67515" lon="-2.31659">
        <ele>56.3</ele>
        <time>2016-07-05T08:35:25Z</time>
      </trkpt>
      <trkpt lat="48.67521" lon="-2.3165">
        <ele>58.3</ele>
        <time>2016-07-05T08:35:54Z</time>
      </trkpt>
      <trkpt lat="48.67529" lon="-2.3164">
        <ele>57.2</ele>
        <time>2016-07-05T08:36:05Z</time>
      </trkpt>
      <trkpt lat="48.67531" lon="-2.31626">
        <ele>57.3</ele>
        <time>2016-07-05T08:36:13Z</time>
      </trkpt>
      <trkpt lat="48.67534" lon="-2.31613">
        <ele>58</ele>
        <time>2016-07-05T08:36:21Z</time>
      </trkpt>
      <trkpt lat="48.67538" lon="-2.31601">
        <ele>56.4</ele>
        <time>2016-07-05T08:36:29Z</time>
      </trkpt>
      <trkpt lat="48.67542" lon="-2.31586">
        <ele>57.2</ele>
        <time>2016-07-05T08:36:38Z</time>
      </trkpt>
      <trkpt lat="48.67547" lon="-2.31574">
        <ele>59.2</ele>
        <time>2016-07-05T08:36:47Z</time>
      </trkpt>
      <trkpt lat="48.67553" lon="-2.31561">
        <ele>59.4</ele>
        <time>2016-07-05T08:37:00Z</time>
      </trkpt>
      <trkpt lat="48.67559" lon="-2.31549">
        <ele>63.1</ele>
        <time>2016-07-05T08:37:08Z</time>
      </trkpt>
      <trkpt lat="48.67565" lon="-2.31539">
        <ele>61</ele>
        <time>2016-07-05T08:37:16Z</time>
      </trkpt>
      <trkpt lat="48.67574" lon="-2.31532">
        <ele>61.1</ele>
        <time>2016-07-05T08:37:26Z</time>
      </trkpt>
      <trkpt lat="48.67583" lon="-2.31532">
        <ele>64.4</ele>
        <time>2016-07-05T08:37:38Z</time>
      </trkpt>
      <trkpt lat="48.67592" lon="-2.31532">
        <ele>65.5</ele>
        <time>2016-07-05T08:38:03Z</time>
      </trkpt>
      <trkpt lat="48.67601" lon="-2.31534">
        <ele>59.3</ele>
        <time>2016-07-05T08:38:26Z</time>
      </trkpt>
      <trkpt lat="48.67611" lon="-2.31534">
        <ele>66.1</ele>
        <time>2016-07-05T08:38:44Z</time>
      </trkpt>
      <trkpt lat="48.67621" lon="-2.31531">
        <ele>57.8</ele>
        <time>2016-07-05T08:38:51Z</time>
      </trkpt>
      <trkpt lat="48.6763" lon="-2.31534">
        <ele>60.9</ele>
        <time>2016-07-05T08:38:58Z</time>
      </trkpt>
      <trkpt lat="48.67639" lon="-2.31529">
        <ele>58.7</ele>
        <time>2016-07-05T08:39:06Z</time>
      </trkpt>
      <trkpt lat="48.67649" lon="-2.31529">
        <ele>60.2</ele>
        <time>2016-07-05T08:39:14Z</time>
      </trkpt>
      <trkpt lat="48.67657" lon="-2.31522">
        <ele>63.8</ele>
        <time>2016-07-05T08:39:24Z</time>
      </trkpt>
      <trkpt lat="48.67667" lon="-2.31523">
        <ele>62.1</ele>
        <time>2016-07-05T08:39:41Z</time>
      </trkpt>
      <trkpt lat="48.67677" lon="-2.3152">
        <ele>64.6</ele>
        <time>2016-07-05T08:39:49Z</time>
      </trkpt>
      <trkpt lat="48.67686" lon="-2.31514">
        <ele>63.5</ele>
        <time>2016-07-05T08:39:58Z</time>
      </trkpt>
      <trkpt lat="48.67695" lon="-2.31511">
        <ele>58.4</ele>
        <time>2016-07-05T08:40:06Z</time>
      </trkpt>
      <trkpt lat="48.67704" lon="-2.31506">
        <ele>63</ele>
        <time>2016-07-05T08:40:15Z</time>
      </trkpt>
      <trkpt lat="48.67714" lon="-2.31503">
        <ele>61.9</ele>
        <time>2016-07-05T08:40:22Z</time>
      </trkpt>
      <trkpt lat="48.67723" lon="-2.31499">
        <ele>62.7</ele>
        <time>2016-07-05T08:40:30Z</time>
      </trkpt>
      <trkpt lat="48.67732" lon="-2.31494">
        <ele>63.7</ele>
        <time>2016-07-05T08:40:39Z</time>
      </trkpt>
      <trkpt lat="48.67742" lon="-2.31491">
        <ele>63.5</ele>
        <time>2016-07-05T08:40:49Z</time>
      </trkpt>
      <trkpt lat="48.67751" lon="-2.31486">
        <ele>62.9</ele>
        <time>2016-07-05T08:40:58Z</time>
      </trkpt>
      <trkpt lat="48.67759" lon="-2.31477">
        <ele>61</ele>
        <time>2016-07-05T08:41:06Z</time>
      </trkpt>
      <trkpt lat="48.67766" lon="-2.31467">
        <ele>62.3</ele>
        <time>2016-07-05T08:41:39Z</time>
      </trkpt>
      <trkpt lat="48.67776" lon="-2.31462">
        <ele>62.5</ele>
        <time>2016-07-05T08:41:52Z</time>
      </trkpt>
      <trkpt lat="48.67782" lon="-2.3145">
        <ele>61.5</ele>
        <time>2016-07-05T08:42:00Z</time>
      </trkpt>
      <trkpt lat="48.67791" lon="-2.31449">
        <ele>64.3</ele>
        <time>2016-07-05T08:42:08Z</time>
      </trkpt>
      <trkpt lat="48.67801" lon="-2.31448">
        <ele>61.4</ele>
        <time>2016-07-05T08:42:16Z</time>
      </trkpt>
      <trkpt lat="48.67809" lon="-2.31442">
        <ele>63</ele>
        <time>2016-07-05T08:42:24Z</time>
      </trkpt>
      <trkpt lat="48.67819" lon="-2.31437">
        <ele>61.7</ele>
        <time>2016-07-05T08:42:32Z</time>
      </trkpt>
      <trkpt lat="48.67829" lon="-2.31434">
        <ele>58.4</ele>
        <time>2016-07-05T08:42:40Z</time>
      </trkpt>
      <trkpt lat="48.67838" lon="-2.31431">
        <ele>62.5</ele>
        <time>2016-07-05T08:42:49Z</time>
      </trkpt>
      <trkpt lat="48.67848" lon="-2.31428">
        <ele>62</ele>
        <time>2016-07-05T08:42:58Z</time>
      </trkpt>
      <trkpt lat="48.67857" lon="-2.31429">
        <ele>60.5</ele>
        <time>2016-07-05T08:43:06Z</time>
      </trkpt>
      <trkpt lat="48.67866" lon="-2.31422">
        <ele>61.4</ele>
        <time>2016-07-05T08:43:27Z</time>
      </trkpt>
      <trkpt lat="48.67874" lon="-2.31418">
        <ele>62.5</ele>
        <time>2016-07-05T08:43:39Z</time>
      </trkpt>
      <trkpt lat="48.67884" lon="-2.31413">
        <ele>63.6</ele>
        <time>2016-07-05T08:43:47Z</time>
      </trkpt>
      <trkpt lat="48.67893" lon="-2.31407">
        <ele>61.7</ele>
        <time>2016-07-05T08:44:01Z</time>
      </trkpt>
      <trkpt lat="48.67901" lon="-2.31401">
        <ele>60.6</ele>
        <time>2016-07-05T08:44:10Z</time>
      </trkpt>
      <trkpt lat="48.6791" lon="-2.31396">
        <ele>56.8</ele>
        <time>2016-07-05T08:44:18Z</time>
      </trkpt>
      <trkpt lat="48.67919" lon="-2.31392">
        <ele>63.1</ele>
        <time>2016-07-05T08:44:33Z</time>
      </trkpt>
      <trkpt lat="48.67929" lon="-2.31386">
        <ele>65.1</ele>
        <time>2016-07-05T08:44:41Z</time>
      </trkpt>
      <trkpt lat="48.67937" lon="-2.3138">
        <ele>63.7</ele>
        <time>2016-07-05T08:44:49Z</time>
      </trkpt>
      <trkpt lat="48.67947" lon="-2.31375">
        <ele>62</ele>
        <time>2016-07-05T08:45:23Z</time>
      </trkpt>
      <trkpt lat="48.67956" lon="-2.31369">
        <ele>62.3</ele>
        <time>2016-07-05T08:45:32Z</time>
      </trkpt>
      <trkpt lat="48.67962" lon="-2.31358">
        <ele>64.3</ele>
        <time>2016-07-05T08:45:40Z</time>
      </trkpt>
      <trkpt lat="48.67967" lon="-2.31346">
        <ele>63.2</ele>
        <time>2016-07-05T08:45:48Z</time>
      </trkpt>
      <trkpt lat="48.67974" lon="-2.31337">
        <ele>64.3</ele>
        <time>2016-07-05T08:45:58Z</time>
      </trkpt>
      <trkpt lat="48.67983" lon="-2.3134">
        <ele>64.5</ele>
        <time>2016-07-05T08:46:07Z</time>
      </trkpt>
      <trkpt lat="48.67993" lon="-2.31343">
        <ele>64.4</ele>
        <time>2016-07-05T08:46:16Z</time>
      </trkpt>
      <trkpt lat="48.68" lon="-2.3135">
        <ele>64.1</ele>
        <time>2016-07-05T08:46:24Z</time>
      </trkpt>
      <trkpt lat="48.6801" lon="-2.31353">
        <ele>63.2</ele>
        <time>2016-07-05T08:46:33Z</time>
      </trkpt>
      <trkpt lat="48.68019" lon="-2.3136">
        <ele>62.2</ele>
        <time>2016-07-05T08:46:42Z</time>
      </trkpt>
      <trkpt lat="48.68028" lon="-2.31364">
        <ele>64.7</ele>
        <time>2016-07-05T08:46:52Z</time>
      </trkpt>
      <trkpt lat="48.68037" lon="-2.31365">
        <ele>63.2</ele>
        <time>2016-07-05T08:47:01Z</time>
      </trkpt>
      <trkpt lat="48.68045" lon="-2.31374">
        <ele>63.2</ele>
        <time>2016-07-05T08:47:13Z</time>
      </trkpt>
      <trkpt lat="48.68054" lon="-2.31381">
        <ele>63.8</ele>
        <time>2016-07-05T08:47:38Z</time>
      </trkpt>
      <trkpt lat="48.68063" lon="-2.31384">
        <ele>64.6</ele>
        <time>2016-07-05T08:47:47Z</time>
      </trkpt>
      <trkpt lat="48.68071" lon="-2.31392">
        <ele>66.6</ele>
        <time>2016-07-05T08:47:58Z</time>
      </trkpt>
      <trkpt lat="48.68081" lon="-2.31397">
        <ele>66.4</ele>
        <time>2016-07-05T08:48:06Z</time>
      </trkpt>
      <trkpt lat="48.6809" lon="-2.31399">
        <ele>65.7</ele>
        <time>2016-07-05T08:48:28Z</time>
      </trkpt>
      <trkpt lat="48.68099" lon="-2.31401">
        <ele>65.8</ele>
        <time>2016-07-05T08:48:36Z</time>
      </trkpt>
      <trkpt lat="48.68108" lon="-2.31402">
        <ele>68</ele>
        <time>2016-07-05T08:48:47Z</time>
      </trkpt>
      <trkpt lat="48.68117" lon="-2.31407">
        <ele>68.2</ele>
        <time>2016-07-05T08:48:57Z</time>
      </trkpt>
      <trkpt lat="48.68126" lon="-2.31412">
        <ele>69.1</ele>
        <time>2016-07-05T08:49:08Z</time>
      </trkpt>
      <trkpt lat="48.68135" lon="-2.31413">
        <ele>67.2</ele>
        <time>2016-07-05T08:49:16Z</time>
      </trkpt>
      <trkpt lat="48.68144" lon="-2.31417">
        <ele>68.6</ele>
        <time>2016-07-05T08:49:24Z</time>
      </trkpt>
      <trkpt lat="48.68153" lon="-2.31422">
        <ele>67.8</ele>
        <time>2016-07-05T08:49:33Z</time>
      </trkpt>
      <trkpt lat="48.68161" lon="-2.31428">
        <ele>67.8</ele>
        <time>2016-07-05T08:49:57Z</time>
      </trkpt>
      <trkpt lat="48.68169" lon="-2.31437">
        <ele>67.5</ele>
        <time>2016-07-05T08:50:12Z</time>
      </trkpt>
      <trkpt lat="48.68178" lon="-2.31439">
        <ele>67.1</ele>
        <time>2016-07-05T08:50:21Z</time>
      </trkpt>
      <trkpt lat="48.68186" lon="-2.31446">
        <ele>66.7</ele>
        <time>2016-07-05T08:50:31Z</time>
      </trkpt>
      <trkpt lat="48.68194" lon="-2.31454">
        <ele>64.6</ele>
        <time>2016-07-05T08:50:43Z</time>
      </trkpt>
      <trkpt lat="48.68203" lon="-2.31461">
        <ele>63.3</ele>
        <time>2016-07-05T08:50:54Z</time>
      </trkpt>
      <trkpt lat="48.68211" lon="-2.31468">
        <ele>63.5</ele>
        <time>2016-07-05T08:51:02Z</time>
      </trkpt>
      <trkpt lat="48.6822" lon="-2.3147">
        <ele>62.7</ele>
        <time>2016-07-05T08:51:29Z</time>
      </trkpt>
      <trkpt lat="48.68228" lon="-2.31479">
        <ele>61.7</ele>
        <time>2016-07-05T08:51:39Z</time>
      </trkpt>
      <trkpt lat="48.68237" lon="-2.31485">
        <ele>62.5</ele>
        <time>2016-07-05T08:51:49Z</time>
      </trkpt>
      <trkpt lat="48.68246" lon="-2.31492">
        <ele>62.3</ele>
        <time>2016-07-05T08:52:02Z</time>
      </trkpt>
      <trkpt lat="48.68255" lon="-2.31497">
        <ele>61.7</ele>
        <time>2016-07-05T08:52:21Z</time>
      </trkpt>
      <trkpt lat="48.68263" lon="-2.31505">
        <ele>64.5</ele>
        <time>2016-07-05T08:52:29Z</time>
      </trkpt>
      <trkpt lat="48.68272" lon="-2.31511">
        <ele>63.8</ele>
        <time>2016-07-05T08:53:09Z</time>
      </trkpt>
      <trkpt lat="48.68281" lon="-2.31515">
        <ele>63.5</ele>
        <time>2016-07-05T08:53:16Z</time>
      </trkpt>
      <trkpt lat="48.6829" lon="-2.3152">
        <ele>64.8</ele>
        <time>2016-07-05T08:53:23Z</time>
      </trkpt>
      <trkpt lat="48.683" lon="-2.31522">
        <ele>60.9</ele>
        <time>2016-07-05T08:53:30Z</time>
      </trkpt>
      <trkpt lat="48.68309" lon="-2.31524">
        <ele>58.7</ele>
        <time>2016-07-05T08:53:37Z</time>
      </trkpt>
      <trkpt lat="48.68318" lon="-2.3153">
        <ele>62.3</ele>
        <time>2016-07-05T08:53:47Z</time>
      </trkpt>
      <trkpt lat="48.68328" lon="-2.31526">
        <ele>62.7</ele>
        <time>2016-07-05T08:53:58Z</time>
      </trkpt>
      <trkpt lat="48.68337" lon="-2.31525">
        <ele>63</ele>
        <time>2016-07-05T08:54:10Z</time>
      </trkpt>
      <trkpt lat="48.68346" lon="-2.31519">
        <ele>60.7</ele>
        <time>2016-07-05T08:54:21Z</time>
      </trkpt>
      <trkpt lat="48.6835" lon="-2.31506">
        <ele>61.6</ele>
        <time>2016-07-05T08:54:34Z</time>
      </trkpt>
      <trkpt lat="48.68358" lon="-2.31498">
        <ele>60.3</ele>
        <time>2016-07-05T08:55:31Z</time>
      </trkpt>
      <trkpt lat="48.68368" lon="-2.31502">
        <ele>62.1</ele>
        <time>2016-07-05T08:55:39Z</time>
      </trkpt>
      <trkpt lat="48.68377" lon="-2.31507">
        <ele>62.8</ele>
        <time>2016-07-05T08:55:47Z</time>
      </trkpt>
      <trkpt lat="48.68384" lon="-2.31517">
        <ele>52.4</ele>
        <time>2016-07-05T08:55:55Z</time>
      </trkpt>
      <trkpt lat="48.68393" lon="-2.31521">
        <ele>61.6</ele>
        <time>2016-07-05T08:56:04Z</time>
      </trkpt>
      <trkpt lat="48.68402" lon="-2.31527">
        <ele>61.5</ele>
        <time>2016-07-05T08:56:11Z</time>
      </trkpt>
      <trkpt lat="48.68411" lon="-2.31531">
        <ele>61.1</ele>
        <time>2016-07-05T08:56:19Z</time>
      </trkpt>
      <trkpt lat="48.68421" lon="-2.3153">
        <ele>58.2</ele>
        <time>2016-07-05T08:56:27Z</time>
      </trkpt>
      <trkpt lat="48.6843" lon="-2.31527">
        <ele>57.1</ele>
        <time>2016-07-05T08:56:37Z</time>
      </trkpt>
      <trkpt lat="48.68438" lon="-2.31519">
        <ele>56.5</ele>
        <time>2016-07-05T08:56:48Z</time>
      </trkpt>
      <trkpt lat="48.68447" lon="-2.31511">
        <ele>55.8</ele>
        <time>2016-07-05T08:56:57Z</time>
      </trkpt>
      <trkpt lat="48.68454" lon="-2.3152">
        <ele>55.8</ele>
        <time>2016-07-05T08:57:36Z</time>
      </trkpt>
      <trkpt lat="48.68462" lon="-2.31529">
        <ele>58.3</ele>
        <time>2016-07-05T08:57:45Z</time>
      </trkpt>
      <trkpt lat="48.68462" lon="-2.31542">
        <ele>55.6</ele>
        <time>2016-07-05T08:58:05Z</time>
      </trkpt>
      <trkpt lat="48.68468" lon="-2.31553">
        <ele>57.8</ele>
        <time>2016-07-05T08:58:21Z</time>
      </trkpt>
      <trkpt lat="48.68475" lon="-2.31562">
        <ele>57.4</ele>
        <time>2016-07-05T08:58:30Z</time>
      </trkpt>
      <trkpt lat="48.68481" lon="-2.31572">
        <ele>56.3</ele>
        <time>2016-07-05T08:58:41Z</time>
      </trkpt>
      <trkpt lat="48.6849" lon="-2.31574">
        <ele>52.9</ele>
        <time>2016-07-05T08:58:52Z</time>
      </trkpt>
      <trkpt lat="48.68499" lon="-2.3158">
        <ele>58</ele>
        <time>2016-07-05T08:59:04Z</time>
      </trkpt>
      <trkpt lat="48.68507" lon="-2.31585">
        <ele>56</ele>
        <time>2016-07-05T09:00:23Z</time>
      </trkpt>
      <trkpt lat="48.6851" lon="-2.31598">
        <ele>54.1</ele>
        <time>2016-07-05T09:00:32Z</time>
      </trkpt>
      <trkpt lat="48.68516" lon="-2.31609">
        <ele>57.9</ele>
        <time>2016-07-05T09:00:58Z</time>
      </trkpt>
      <trkpt lat="48.68521" lon="-2.31623">
        <ele>58.1</ele>
        <time>2016-07-05T09:01:11Z</time>
      </trkpt>
      <trkpt lat="48.68527" lon="-2.31634">
        <ele>59.2</ele>
        <time>2016-07-05T09:01:21Z</time>
      </trkpt>
      <trkpt lat="48.68535" lon="-2.31642">
        <ele>56.9</ele>
        <time>2016-07-05T09:01:31Z</time>
      </trkpt>
      <trkpt lat="48.68544" lon="-2.31646">
        <ele>59</ele>
        <time>2016-07-05T09:01:42Z</time>
      </trkpt>
      <trkpt lat="48.6855" lon="-2.31635">
        <ele>56.9</ele>
        <time>2016-07-05T09:02:06Z</time>
      </trkpt>
      <trkpt lat="48.68554" lon="-2.31647">
        <ele>57.8</ele>
        <time>2016-07-05T09:03:45Z</time>
      </trkpt>
      <trkpt lat="48.68552" lon="-2.31661">
        <ele>58.8</ele>
        <time>2016-07-05T09:03:59Z</time>
      </trkpt>
      <trkpt lat="48.68554" lon="-2.31675">
        <ele>59.4</ele>
        <time>2016-07-05T09:04:09Z</time>
      </trkpt>
      <trkpt lat="48.68559" lon="-2.31687">
        <ele>59.2</ele>
        <time>2016-07-05T09:04:31Z</time>
      </trkpt>
      <trkpt lat="48.68567" lon="-2.31694">
        <ele>62</ele>
        <time>2016-07-05T09:04:39Z</time>
      </trkpt>
      <trkpt lat="48.68576" lon="-2.31702">
        <ele>62.4</ele>
        <time>2016-07-05T09:04:48Z</time>
      </trkpt>
      <trkpt lat="48.68579" lon="-2.31715">
        <ele>63.9</ele>
        <time>2016-07-05T09:04:56Z</time>
      </trkpt>
      <trkpt lat="48.68582" lon="-2.31728">
        <ele>63.2</ele>
        <time>2016-07-05T09:05:04Z</time>
      </trkpt>
      <trkpt lat="48.68588" lon="-2.31741">
        <ele>63.4</ele>
        <time>2016-07-05T09:05:13Z</time>
      </trkpt>
      <trkpt lat="48.68598" lon="-2.31744">
        <ele>64.6</ele>
        <time>2016-07-05T09:06:28Z</time>
      </trkpt>
      <trkpt lat="48.68607" lon="-2.31746">
        <ele>64.9</ele>
        <time>2016-07-05T09:06:40Z</time>
      </trkpt>
      <trkpt lat="48.68616" lon="-2.31748">
        <ele>64.3</ele>
        <time>2016-07-05T09:06:48Z</time>
      </trkpt>
      <trkpt lat="48.68625" lon="-2.3175">
        <ele>64.5</ele>
        <time>2016-07-05T09:06:57Z</time>
      </trkpt>
      <trkpt lat="48.68635" lon="-2.31753">
        <ele>66</ele>
        <time>2016-07-05T09:07:05Z</time>
      </trkpt>
      <trkpt lat="48.68645" lon="-2.31756">
        <ele>65.5</ele>
        <time>2016-07-05T09:07:20Z</time>
      </trkpt>
      <trkpt lat="48.68654" lon="-2.31758">
        <ele>63.7</ele>
        <time>2016-07-05T09:07:29Z</time>
      </trkpt>
      <trkpt lat="48.68664" lon="-2.31761">
        <ele>63.1</ele>
        <time>2016-07-05T09:07:37Z</time>
      </trkpt>
      <trkpt lat="48.68674" lon="-2.31763">
        <ele>62.2</ele>
        <time>2016-07-05T09:07:45Z</time>
      </trkpt>
      <trkpt lat="48.68683" lon="-2.31766">
        <ele>62.9</ele>
        <time>2016-07-05T09:07:53Z</time>
      </trkpt>
      <trkpt lat="48.68693" lon="-2.31768">
        <ele>61.9</ele>
        <time>2016-07-05T09:08:01Z</time>
      </trkpt>
      <trkpt lat="48.687" lon="-2.31777">
        <ele>61.1</ele>
        <time>2016-07-05T09:08:14Z</time>
      </trkpt>
      <trkpt lat="48.6871" lon="-2.31776">
        <ele>62.1</ele>
        <time>2016-07-05T09:08:37Z</time>
      </trkpt>
      <trkpt lat="48.6872" lon="-2.31775">
        <ele>61</ele>
        <time>2016-07-05T09:08:46Z</time>
      </trkpt>
      <trkpt lat="48.68729" lon="-2.31774">
        <ele>60.4</ele>
        <time>2016-07-05T09:08:54Z</time>
      </trkpt>
      <trkpt lat="48.68739" lon="-2.31774">
        <ele>57.5</ele>
        <time>2016-07-05T09:09:02Z</time>
      </trkpt>
      <trkpt lat="48.68748" lon="-2.31772">
        <ele>60.3</ele>
        <time>2016-07-05T09:09:10Z</time>
      </trkpt>
      <trkpt lat="48.68758" lon="-2.31771">
        <ele>59.7</ele>
        <time>2016-07-05T09:09:19Z</time>
      </trkpt>
      <trkpt lat="48.68766" lon="-2.31764">
        <ele>58.7</ele>
        <time>2016-07-05T09:09:28Z</time>
      </trkpt>
      <trkpt lat="48.68771" lon="-2.31751">
        <ele>59.7</ele>
        <time>2016-07-05T09:09:41Z</time>
      </trkpt>
      <trkpt lat="48.68776" lon="-2.31739">
        <ele>59</ele>
        <time>2016-07-05T09:10:08Z</time>
      </trkpt>
      <trkpt lat="48.68783" lon="-2.3175">
        <ele>61.8</ele>
        <time>2016-07-05T09:10:57Z</time>
      </trkpt>
      <trkpt lat="48.68791" lon="-2.31756">
        <ele>57.5</ele>
        <time>2016-07-05T09:11:16Z</time>
      </trkpt>
      <trkpt lat="48.68799" lon="-2.31763">
        <ele>59.2</ele>
        <time>2016-07-05T09:11:31Z</time>
      </trkpt>
      <trkpt lat="48.68792" lon="-2.31753">
        <ele>51.7</ele>
        <time>2016-07-05T09:12:15Z</time>
      </trkpt>
      <trkpt lat="48.68782" lon="-2.3175">
        <ele>62.9</ele>
        <time>2016-07-05T09:12:31Z</time>
      </trkpt>
      <trkpt lat="48.68775" lon="-2.31742">
        <ele>61.8</ele>
        <time>2016-07-05T09:12:42Z</time>
      </trkpt>
      <trkpt lat="48.68771" lon="-2.31755">
        <ele>62.3</ele>
        <time>2016-07-05T09:14:01Z</time>
      </trkpt>
      <trkpt lat="48.68766" lon="-2.31767">
        <ele>60.8</ele>
        <time>2016-07-05T09:14:10Z</time>
      </trkpt>
      <trkpt lat="48.68759" lon="-2.31776">
        <ele>60.2</ele>
        <time>2016-07-05T09:14:19Z</time>
      </trkpt>
      <trkpt lat="48.68751" lon="-2.31785">
        <ele>62.5</ele>
        <time>2016-07-05T09:14:36Z</time>
      </trkpt>
      <trkpt lat="48.68755" lon="-2.31799">
        <ele>60.8</ele>
        <time>2016-07-05T09:14:47Z</time>
      </trkpt>
      <trkpt lat="48.68753" lon="-2.31814">
        <ele>54.1</ele>
        <time>2016-07-05T09:14:58Z</time>
      </trkpt>
      <trkpt lat="48.68755" lon="-2.31827">
        <ele>52.5</ele>
        <time>2016-07-05T09:15:59Z</time>
      </trkpt>
      <trkpt lat="48.6875" lon="-2.31838">
        <ele>50.8</ele>
        <time>2016-07-05T09:16:15Z</time>
      </trkpt>
      <trkpt lat="48.68755" lon="-2.31825">
        <ele>55.2</ele>
        <time>2016-07-05T09:17:03Z</time>
      </trkpt>
      <trkpt lat="48.68748" lon="-2.31816">
        <ele>57</ele>
        <time>2016-07-05T09:17:22Z</time>
      </trkpt>
      <trkpt lat="48.6874" lon="-2.31808">
        <ele>59</ele>
        <time>2016-07-05T09:17:31Z</time>
      </trkpt>
      <trkpt lat="48.68735" lon="-2.31795">
        <ele>62.6</ele>
        <time>2016-07-05T09:17:43Z</time>
      </trkpt>
      <trkpt lat="48.68729" lon="-2.31783">
        <ele>63.6</ele>
        <time>2016-07-05T09:17:53Z</time>
      </trkpt>
      <trkpt lat="48.68719" lon="-2.3178">
        <ele>63.4</ele>
        <time>2016-07-05T09:18:01Z</time>
      </trkpt>
      <trkpt lat="48.6871" lon="-2.31775">
        <ele>58.8</ele>
        <time>2016-07-05T09:18:09Z</time>
      </trkpt>
      <trkpt lat="48.687" lon="-2.31772">
        <ele>64.2</ele>
        <time>2016-07-05T09:18:17Z</time>
      </trkpt>
      <trkpt lat="48.6869" lon="-2.31769">
        <ele>65.8</ele>
        <time>2016-07-05T09:18:25Z</time>
      </trkpt>
      <trkpt lat="48.68681" lon="-2.31763">
        <ele>63.8</ele>
        <time>2016-07-05T09:18:33Z</time>
      </trkpt>
      <trkpt lat="48.68672" lon="-2.31762">
        <ele>65.2</ele>
        <time>2016-07-05T09:18:41Z</time>
      </trkpt>
      <trkpt lat="48.68663" lon="-2.31757">
        <ele>66.9</ele>
        <time>2016-07-05T09:18:50Z</time>
      </trkpt>
      <trkpt lat="48.68657" lon="-2.31767">
        <ele>62.1</ele>
        <time>2016-07-05T09:19:02Z</time>
      </trkpt>
      <trkpt lat="48.68649" lon="-2.31759">
        <ele>62.9</ele>
        <time>2016-07-05T09:19:26Z</time>
      </trkpt>
      <trkpt lat="48.68639" lon="-2.31757">
        <ele>61.6</ele>
        <time>2016-07-05T09:19:33Z</time>
      </trkpt>
      <trkpt lat="48.6863" lon="-2.31753">
        <ele>60.5</ele>
        <time>2016-07-05T09:19:40Z</time>
      </trkpt>
      <trkpt lat="48.6862" lon="-2.31748">
        <ele>54.5</ele>
        <time>2016-07-05T09:19:47Z</time>
      </trkpt>
      <trkpt lat="48.6861" lon="-2.31746">
        <ele>59.8</ele>
        <time>2016-07-05T09:19:54Z</time>
      </trkpt>
      <trkpt lat="48.68602" lon="-2.31742">
        <ele>63</ele>
        <time>2016-07-05T09:20:01Z</time>
      </trkpt>
      <trkpt lat="48.68592" lon="-2.31739">
        <ele>61</ele>
        <time>2016-07-05T09:20:08Z</time>
      </trkpt>
      <trkpt lat="48.68583" lon="-2.31743">
        <ele>65.5</ele>
        <time>2016-07-05T09:20:33Z</time>
      </trkpt>
      <trkpt lat="48.68575" lon="-2.31751">
        <ele>63.7</ele>
        <time>2016-07-05T09:20:41Z</time>
      </trkpt>
      <trkpt lat="48.68567" lon="-2.3176">
        <ele>67.1</ele>
        <time>2016-07-05T09:20:49Z</time>
      </trkpt>
      <trkpt lat="48.68559" lon="-2.31768">
        <ele>64.4</ele>
        <time>2016-07-05T09:20:57Z</time>
      </trkpt>
      <trkpt lat="48.68552" lon="-2.31776">
        <ele>66.7</ele>
        <time>2016-07-05T09:21:05Z</time>
      </trkpt>
      <trkpt lat="48.68544" lon="-2.31783">
        <ele>66.2</ele>
        <time>2016-07-05T09:21:12Z</time>
      </trkpt>
      <trkpt lat="48.68536" lon="-2.31791">
        <ele>65.8</ele>
        <time>2016-07-05T09:21:20Z</time>
      </trkpt>
      <trkpt lat="48.68528" lon="-2.31798">
        <ele>66</ele>
        <time>2016-07-05T09:21:28Z</time>
      </trkpt>
      <trkpt lat="48.68521" lon="-2.31808">
        <ele>63.5</ele>
        <time>2016-07-05T09:21:37Z</time>
      </trkpt>
      <trkpt lat="48.68513" lon="-2.31818">
        <ele>66.5</ele>
        <time>2016-07-05T09:21:46Z</time>
      </trkpt>
      <trkpt lat="48.68506" lon="-2.31828">
        <ele>64.6</ele>
        <time>2016-07-05T09:21:55Z</time>
      </trkpt>
      <trkpt lat="48.68499" lon="-2.31838">
        <ele>66.4</ele>
        <time>2016-07-05T09:22:22Z</time>
      </trkpt>
      <trkpt lat="48.68492" lon="-2.31848">
        <ele>68.2</ele>
        <time>2016-07-05T09:22:31Z</time>
      </trkpt>
      <trkpt lat="48.68485" lon="-2.31858">
        <ele>68.4</ele>
        <time>2016-07-05T09:22:40Z</time>
      </trkpt>
      <trkpt lat="48.68478" lon="-2.31868">
        <ele>69.4</ele>
        <time>2016-07-05T09:22:49Z</time>
      </trkpt>
      <trkpt lat="48.68469" lon="-2.31874">
        <ele>64.7</ele>
        <time>2016-07-05T09:23:02Z</time>
      </trkpt>
      <trkpt lat="48.68461" lon="-2.31881">
        <ele>71.1</ele>
        <time>2016-07-05T09:23:15Z</time>
      </trkpt>
      <trkpt lat="48.68453" lon="-2.3189">
        <ele>72.6</ele>
        <time>2016-07-05T09:23:25Z</time>
      </trkpt>
      <trkpt lat="48.68444" lon="-2.31894">
        <ele>64.4</ele>
        <time>2016-07-05T09:23:33Z</time>
      </trkpt>
      <trkpt lat="48.68438" lon="-2.31906">
        <ele>69.6</ele>
        <time>2016-07-05T09:23:42Z</time>
      </trkpt>
      <trkpt lat="48.68431" lon="-2.31915">
        <ele>72.2</ele>
        <time>2016-07-05T09:25:16Z</time>
      </trkpt>
      <trkpt lat="48.68427" lon="-2.31928">
        <ele>73.2</ele>
        <time>2016-07-05T09:25:25Z</time>
      </trkpt>
      <trkpt lat="48.68421" lon="-2.31939">
        <ele>70.6</ele>
        <time>2016-07-05T09:25:33Z</time>
      </trkpt>
      <trkpt lat="48.68412" lon="-2.31934">
        <ele>74.3</ele>
        <time>2016-07-05T09:25:42Z</time>
      </trkpt>
      <trkpt lat="48.68406" lon="-2.31923">
        <ele>74.5</ele>
        <time>2016-07-05T09:25:50Z</time>
      </trkpt>
      <trkpt lat="48.68402" lon="-2.3191">
        <ele>72.9</ele>
        <time>2016-07-05T09:25:59Z</time>
      </trkpt>
      <trkpt lat="48.68399" lon="-2.31896">
        <ele>75.4</ele>
        <time>2016-07-05T09:26:24Z</time>
      </trkpt>
      <trkpt lat="48.68408" lon="-2.31888">
        <ele>71</ele>
        <time>2016-07-05T09:26:35Z</time>
      </trkpt>
      <trkpt lat="48.68418" lon="-2.31892">
        <ele>73.1</ele>
        <time>2016-07-05T09:26:44Z</time>
      </trkpt>
      <trkpt lat="48.68431" lon="-2.31902">
        <ele>73.1</ele>
        <time>2016-07-05T09:26:48Z</time>
      </trkpt>
      <trkpt lat="48.68419" lon="-2.31904">
        <ele>73.9</ele>
        <time>2016-07-05T09:26:54Z</time>
      </trkpt>
      <trkpt lat="48.68411" lon="-2.31893">
        <ele>74.2</ele>
        <time>2016-07-05T09:27:48Z</time>
      </trkpt>
      <trkpt lat="48.68401" lon="-2.31894">
        <ele>74.5</ele>
        <time>2016-07-05T09:28:00Z</time>
      </trkpt>
      <trkpt lat="48.68399" lon="-2.31907">
        <ele>75.4</ele>
        <time>2016-07-05T09:28:13Z</time>
      </trkpt>
      <trkpt lat="48.68398" lon="-2.31922">
        <ele>74.3</ele>
        <time>2016-07-05T09:28:23Z</time>
      </trkpt>
      <trkpt lat="48.68394" lon="-2.31934">
        <ele>75.7</ele>
        <time>2016-07-05T09:28:30Z</time>
      </trkpt>
      <trkpt lat="48.68388" lon="-2.31945">
        <ele>73.8</ele>
        <time>2016-07-05T09:28:38Z</time>
      </trkpt>
      <trkpt lat="48.68379" lon="-2.31951">
        <ele>74.9</ele>
        <time>2016-07-05T09:31:22Z</time>
      </trkpt>
      <trkpt lat="48.6838" lon="-2.31965">
        <ele>73</ele>
        <time>2016-07-05T09:34:13Z</time>
      </trkpt>
      <trkpt lat="48.6837" lon="-2.31969">
        <ele>73.2</ele>
        <time>2016-07-05T09:34:26Z</time>
      </trkpt>
      <trkpt lat="48.68361" lon="-2.3197">
        <ele>73.2</ele>
        <time>2016-07-05T09:34:37Z</time>
      </trkpt>
      <trkpt lat="48.68351" lon="-2.31973">
        <ele>72.8</ele>
        <time>2016-07-05T09:34:46Z</time>
      </trkpt>
      <trkpt lat="48.68342" lon="-2.31972">
        <ele>71.2</ele>
        <time>2016-07-05T09:34:57Z</time>
      </trkpt>
      <trkpt lat="48.68332" lon="-2.31972">
        <ele>70.4</ele>
        <time>2016-07-05T09:35:06Z</time>
      </trkpt>
      <trkpt lat="48.68324" lon="-2.31967">
        <ele>69.8</ele>
        <time>2016-07-05T09:35:17Z</time>
      </trkpt>
      <trkpt lat="48.68315" lon="-2.31966">
        <ele>69.1</ele>
        <time>2016-07-05T09:35:29Z</time>
      </trkpt>
      <trkpt lat="48.68307" lon="-2.31975">
        <ele>68.4</ele>
        <time>2016-07-05T09:35:58Z</time>
      </trkpt>
      <trkpt lat="48.68299" lon="-2.31983">
        <ele>67.7</ele>
        <time>2016-07-05T09:36:07Z</time>
      </trkpt>
      <trkpt lat="48.68292" lon="-2.31993">
        <ele>66.6</ele>
        <time>2016-07-05T09:36:17Z</time>
      </trkpt>
      <trkpt lat="48.68283" lon="-2.31999">
        <ele>66.1</ele>
        <time>2016-07-05T09:36:26Z</time>
      </trkpt>
      <trkpt lat="48.68275" lon="-2.32006">
        <ele>65</ele>
        <time>2016-07-05T09:36:34Z</time>
      </trkpt>
      <trkpt lat="48.68267" lon="-2.32014">
        <ele>64.6</ele>
        <time>2016-07-05T09:36:42Z</time>
      </trkpt>
      <trkpt lat="48.68259" lon="-2.32022">
        <ele>64.4</ele>
        <time>2016-07-05T09:36:53Z</time>
      </trkpt>
      <trkpt lat="48.68253" lon="-2.32031">
        <ele>63.5</ele>
        <time>2016-07-05T09:37:01Z</time>
      </trkpt>
      <trkpt lat="48.68247" lon="-2.32043">
        <ele>63.8</ele>
        <time>2016-07-05T09:37:09Z</time>
      </trkpt>
      <trkpt lat="48.6824" lon="-2.32051">
        <ele>64.4</ele>
        <time>2016-07-05T09:37:20Z</time>
      </trkpt>
      <trkpt lat="48.6823" lon="-2.32053">
        <ele>64.6</ele>
        <time>2016-07-05T09:37:30Z</time>
      </trkpt>
      <trkpt lat="48.68222" lon="-2.32061">
        <ele>64.6</ele>
        <time>2016-07-05T09:37:40Z</time>
      </trkpt>
      <trkpt lat="48.68219" lon="-2.32075">
        <ele>66.7</ele>
        <time>2016-07-05T09:38:03Z</time>
      </trkpt>
      <trkpt lat="48.68226" lon="-2.32086">
        <ele>67.7</ele>
        <time>2016-07-05T09:38:14Z</time>
      </trkpt>
      <trkpt lat="48.68232" lon="-2.32096">
        <ele>68</ele>
        <time>2016-07-05T09:38:23Z</time>
      </trkpt>
      <trkpt lat="48.68237" lon="-2.32109">
        <ele>67.8</ele>
        <time>2016-07-05T09:38:32Z</time>
      </trkpt>
      <trkpt lat="48.68241" lon="-2.32123">
        <ele>67.5</ele>
        <time>2016-07-05T09:38:41Z</time>
      </trkpt>
      <trkpt lat="48.68243" lon="-2.32136">
        <ele>69</ele>
        <time>2016-07-05T09:38:50Z</time>
      </trkpt>
      <trkpt lat="48.68246" lon="-2.3215">
        <ele>70</ele>
        <time>2016-07-05T09:39:35Z</time>
      </trkpt>
      <trkpt lat="48.68246" lon="-2.32164">
        <ele>70.7</ele>
        <time>2016-07-05T09:39:44Z</time>
      </trkpt>
      <trkpt lat="48.68254" lon="-2.32172">
        <ele>70.9</ele>
        <time>2016-07-05T09:39:57Z</time>
      </trkpt>
      <trkpt lat="48.6826" lon="-2.32183">
        <ele>69.9</ele>
        <time>2016-07-05T09:40:10Z</time>
      </trkpt>
      <trkpt lat="48.68253" lon="-2.32192">
        <ele>68.1</ele>
        <time>2016-07-05T09:40:34Z</time>
      </trkpt>
      <trkpt lat="48.68243" lon="-2.32191">
        <ele>67.4</ele>
        <time>2016-07-05T09:40:42Z</time>
      </trkpt>
      <trkpt lat="48.68233" lon="-2.3219">
        <ele>68</ele>
        <time>2016-07-05T09:40:52Z</time>
      </trkpt>
      <trkpt lat="48.68223" lon="-2.32189">
        <ele>67.1</ele>
        <time>2016-07-05T09:41:02Z</time>
      </trkpt>
      <trkpt lat="48.68214" lon="-2.32196">
        <ele>66.6</ele>
        <time>2016-07-05T09:41:10Z</time>
      </trkpt>
      <trkpt lat="48.68206" lon="-2.32202">
        <ele>65.4</ele>
        <time>2016-07-05T09:41:22Z</time>
      </trkpt>
      <trkpt lat="48.68197" lon="-2.32204">
        <ele>64.2</ele>
        <time>2016-07-05T09:41:32Z</time>
      </trkpt>
      <trkpt lat="48.68188" lon="-2.32201">
        <ele>64.2</ele>
        <time>2016-07-05T09:41:41Z</time>
      </trkpt>
      <trkpt lat="48.68179" lon="-2.32196">
        <ele>63.9</ele>
        <time>2016-07-05T09:41:49Z</time>
      </trkpt>
      <trkpt lat="48.6817" lon="-2.32199">
        <ele>63.8</ele>
        <time>2016-07-05T09:41:57Z</time>
      </trkpt>
      <trkpt lat="48.6816" lon="-2.32198">
        <ele>62.7</ele>
        <time>2016-07-05T09:42:06Z</time>
      </trkpt>
      <trkpt lat="48.68151" lon="-2.32197">
        <ele>62.3</ele>
        <time>2016-07-05T09:42:15Z</time>
      </trkpt>
      <trkpt lat="48.68154" lon="-2.32211">
        <ele>61.9</ele>
        <time>2016-07-05T09:42:24Z</time>
      </trkpt>
      <trkpt lat="48.68145" lon="-2.3221">
        <ele>60.9</ele>
        <time>2016-07-05T09:42:37Z</time>
      </trkpt>
      <trkpt lat="48.68137" lon="-2.32218">
        <ele>60.6</ele>
        <time>2016-07-05T09:42:47Z</time>
      </trkpt>
      <trkpt lat="48.68134" lon="-2.32231">
        <ele>59.6</ele>
        <time>2016-07-05T09:42:57Z</time>
      </trkpt>
      <trkpt lat="48.68137" lon="-2.32244">
        <ele>60</ele>
        <time>2016-07-05T09:43:06Z</time>
      </trkpt>
      <trkpt lat="48.68144" lon="-2.32255">
        <ele>60.1</ele>
        <time>2016-07-05T09:43:15Z</time>
      </trkpt>
      <trkpt lat="48.68151" lon="-2.32265">
        <ele>60.7</ele>
        <time>2016-07-05T09:43:33Z</time>
      </trkpt>
      <trkpt lat="48.68157" lon="-2.32277">
        <ele>61.7</ele>
        <time>2016-07-05T09:43:40Z</time>
      </trkpt>
      <trkpt lat="48.68154" lon="-2.32291">
        <ele>60.9</ele>
        <time>2016-07-05T09:43:48Z</time>
      </trkpt>
      <trkpt lat="48.6815" lon="-2.32304">
        <ele>62.2</ele>
        <time>2016-07-05T09:43:55Z</time>
      </trkpt>
      <trkpt lat="48.68145" lon="-2.32315">
        <ele>62.7</ele>
        <time>2016-07-05T09:44:04Z</time>
      </trkpt>
      <trkpt lat="48.68141" lon="-2.32329">
        <ele>64.5</ele>
        <time>2016-07-05T09:44:40Z</time>
      </trkpt>
      <trkpt lat="48.68135" lon="-2.32341">
        <ele>67.1</ele>
        <time>2016-07-05T09:44:55Z</time>
      </trkpt>
      <trkpt lat="48.68131" lon="-2.32354">
        <ele>67.8</ele>
        <time>2016-07-05T09:45:35Z</time>
      </trkpt>
      <trkpt lat="48.68125" lon="-2.32365">
        <ele>68.2</ele>
        <time>2016-07-05T09:45:42Z</time>
      </trkpt>
      <trkpt lat="48.68119" lon="-2.32376">
        <ele>67</ele>
        <time>2016-07-05T09:45:49Z</time>
      </trkpt>
      <trkpt lat="48.6811" lon="-2.32382">
        <ele>64.9</ele>
        <time>2016-07-05T09:45:58Z</time>
      </trkpt>
      <trkpt lat="48.681" lon="-2.32386">
        <ele>65.2</ele>
        <time>2016-07-05T09:46:06Z</time>
      </trkpt>
      <trkpt lat="48.68093" lon="-2.32395">
        <ele>63.7</ele>
        <time>2016-07-05T09:46:25Z</time>
      </trkpt>
      <trkpt lat="48.68084" lon="-2.32397">
        <ele>63</ele>
        <time>2016-07-05T09:46:32Z</time>
      </trkpt>
      <trkpt lat="48.68075" lon="-2.32401">
        <ele>63.3</ele>
        <time>2016-07-05T09:46:38Z</time>
      </trkpt>
      <trkpt lat="48.68066" lon="-2.32402">
        <ele>62.5</ele>
        <time>2016-07-05T09:46:48Z</time>
      </trkpt>
      <trkpt lat="48.68057" lon="-2.32402">
        <ele>64.1</ele>
        <time>2016-07-05T09:46:57Z</time>
      </trkpt>
      <trkpt lat="48.68047" lon="-2.32404">
        <ele>63.6</ele>
        <time>2016-07-05T09:47:07Z</time>
      </trkpt>
      <trkpt lat="48.68037" lon="-2.32406">
        <ele>63.5</ele>
        <time>2016-07-05T09:47:15Z</time>
      </trkpt>
      <trkpt lat="48.68028" lon="-2.32408">
        <ele>63</ele>
        <time>2016-07-05T09:47:24Z</time>
      </trkpt>
      <trkpt lat="48.68018" lon="-2.32406">
        <ele>63.1</ele>
        <time>2016-07-05T09:47:33Z</time>
      </trkpt>
      <trkpt lat="48.68012" lon="-2.32417">
        <ele>62.5</ele>
        <time>2016-07-05T09:47:41Z</time>
      </trkpt>
      <trkpt lat="48.68006" lon="-2.32429">
        <ele>62.2</ele>
        <time>2016-07-05T09:47:50Z</time>
      </trkpt>
      <trkpt lat="48.67998" lon="-2.32436">
        <ele>62</ele>
        <time>2016-07-05T09:47:59Z</time>
      </trkpt>
      <trkpt lat="48.67989" lon="-2.32439">
        <ele>61.9</ele>
        <time>2016-07-05T09:48:07Z</time>
      </trkpt>
      <trkpt lat="48.6798" lon="-2.32443">
        <ele>61.4</ele>
        <time>2016-07-05T09:48:15Z</time>
      </trkpt>
      <trkpt lat="48.67971" lon="-2.32446">
        <ele>62.9</ele>
        <time>2016-07-05T09:48:23Z</time>
      </trkpt>
      <trkpt lat="48.67963" lon="-2.32451">
        <ele>61.6</ele>
        <time>2016-07-05T09:48:31Z</time>
      </trkpt>
      <trkpt lat="48.67953" lon="-2.32456">
        <ele>61.7</ele>
        <time>2016-07-05T09:48:39Z</time>
      </trkpt>
      <trkpt lat="48.67944" lon="-2.32462">
        <ele>60.7</ele>
        <time>2016-07-05T09:48:47Z</time>
      </trkpt>
      <trkpt lat="48.67936" lon="-2.32469">
        <ele>61.5</ele>
        <time>2016-07-05T09:48:55Z</time>
      </trkpt>
      <trkpt lat="48.67927" lon="-2.32475">
        <ele>60.1</ele>
        <time>2016-07-05T09:49:03Z</time>
      </trkpt>
      <trkpt lat="48.67918" lon="-2.32479">
        <ele>61.6</ele>
        <time>2016-07-05T09:49:11Z</time>
      </trkpt>
      <trkpt lat="48.67909" lon="-2.32485">
        <ele>62</ele>
        <time>2016-07-05T09:49:19Z</time>
      </trkpt>
      <trkpt lat="48.679" lon="-2.3249">
        <ele>61.8</ele>
        <time>2016-07-05T09:49:27Z</time>
      </trkpt>
      <trkpt lat="48.67891" lon="-2.32493">
        <ele>62.8</ele>
        <time>2016-07-05T09:49:35Z</time>
      </trkpt>
      <trkpt lat="48.67882" lon="-2.32491">
        <ele>62.2</ele>
        <time>2016-07-05T09:50:04Z</time>
      </trkpt>
      <trkpt lat="48.67876" lon="-2.3248">
        <ele>62.4</ele>
        <time>2016-07-05T09:50:11Z</time>
      </trkpt>
      <trkpt lat="48.67869" lon="-2.32468">
        <ele>62.1</ele>
        <time>2016-07-05T09:50:18Z</time>
      </trkpt>
      <trkpt lat="48.67861" lon="-2.32461">
        <ele>61.9</ele>
        <time>2016-07-05T09:50:25Z</time>
      </trkpt>
      <trkpt lat="48.67852" lon="-2.32461">
        <ele>61.3</ele>
        <time>2016-07-05T09:50:32Z</time>
      </trkpt>
      <trkpt lat="48.67844" lon="-2.3247">
        <ele>60.7</ele>
        <time>2016-07-05T09:50:40Z</time>
      </trkpt>
      <trkpt lat="48.67835" lon="-2.32479">
        <ele>62.2</ele>
        <time>2016-07-05T09:50:49Z</time>
      </trkpt>
      <trkpt lat="48.67827" lon="-2.32484">
        <ele>62.9</ele>
        <time>2016-07-05T09:51:01Z</time>
      </trkpt>
      <trkpt lat="48.67816" lon="-2.32484">
        <ele>62.2</ele>
        <time>2016-07-05T09:51:08Z</time>
      </trkpt>
      <trkpt lat="48.67807" lon="-2.32487">
        <ele>62.1</ele>
        <time>2016-07-05T09:51:15Z</time>
      </trkpt>
      <trkpt lat="48.67797" lon="-2.32483">
        <ele>61.3</ele>
        <time>2016-07-05T09:51:23Z</time>
      </trkpt>
      <trkpt lat="48.67789" lon="-2.32481">
        <ele>61.4</ele>
        <time>2016-07-05T09:51:30Z</time>
      </trkpt>
      <trkpt lat="48.6778" lon="-2.32484">
        <ele>62.2</ele>
        <time>2016-07-05T09:51:47Z</time>
      </trkpt>
      <trkpt lat="48.67771" lon="-2.32487">
        <ele>61.8</ele>
        <time>2016-07-05T09:51:55Z</time>
      </trkpt>
      <trkpt lat="48.67762" lon="-2.3249">
        <ele>60</ele>
        <time>2016-07-05T09:52:11Z</time>
      </trkpt>
      <trkpt lat="48.67753" lon="-2.32488">
        <ele>60.7</ele>
        <time>2016-07-05T09:52:18Z</time>
      </trkpt>
      <trkpt lat="48.67743" lon="-2.32489">
        <ele>60.5</ele>
        <time>2016-07-05T09:52:26Z</time>
      </trkpt>
      <trkpt lat="48.67733" lon="-2.32492">
        <ele>60.5</ele>
        <time>2016-07-05T09:52:34Z</time>
      </trkpt>
      <trkpt lat="48.67725" lon="-2.32501">
        <ele>60.2</ele>
        <time>2016-07-05T09:53:27Z</time>
      </trkpt>
      <trkpt lat="48.67718" lon="-2.32511">
        <ele>59.2</ele>
        <time>2016-07-05T09:53:35Z</time>
      </trkpt>
      <trkpt lat="48.6771" lon="-2.32519">
        <ele>58.9</ele>
        <time>2016-07-05T09:53:44Z</time>
      </trkpt>
      <trkpt lat="48.67701" lon="-2.32524">
        <ele>58</ele>
        <time>2016-07-05T09:53:51Z</time>
      </trkpt>
      <trkpt lat="48.67692" lon="-2.32529">
        <ele>57.4</ele>
        <time>2016-07-05T09:53:59Z</time>
      </trkpt>
      <trkpt lat="48.67684" lon="-2.32539">
        <ele>58</ele>
        <time>2016-07-05T09:54:07Z</time>
      </trkpt>
      <trkpt lat="48.67681" lon="-2.32552">
        <ele>58.8</ele>
        <time>2016-07-05T09:54:15Z</time>
      </trkpt>
      <trkpt lat="48.6768" lon="-2.32565">
        <ele>59.6</ele>
        <time>2016-07-05T09:54:29Z</time>
      </trkpt>
      <trkpt lat="48.67683" lon="-2.32579">
        <ele>59.2</ele>
        <time>2016-07-05T09:54:41Z</time>
      </trkpt>
      <trkpt lat="48.67682" lon="-2.32593">
        <ele>58.4</ele>
        <time>2016-07-05T09:54:49Z</time>
      </trkpt>
      <trkpt lat="48.67674" lon="-2.32601">
        <ele>58.2</ele>
        <time>2016-07-05T09:55:06Z</time>
      </trkpt>
      <trkpt lat="48.67665" lon="-2.32607">
        <ele>58.6</ele>
        <time>2016-07-05T09:55:14Z</time>
      </trkpt>
      <trkpt lat="48.67657" lon="-2.32613">
        <ele>58.2</ele>
        <time>2016-07-05T09:55:21Z</time>
      </trkpt>
      <trkpt lat="48.67648" lon="-2.3262">
        <ele>58.1</ele>
        <time>2016-07-05T09:55:29Z</time>
      </trkpt>
      <trkpt lat="48.67642" lon="-2.32631">
        <ele>57</ele>
        <time>2016-07-05T09:55:37Z</time>
      </trkpt>
      <trkpt lat="48.67639" lon="-2.32644">
        <ele>57.9</ele>
        <time>2016-07-05T09:55:45Z</time>
      </trkpt>
      <trkpt lat="48.67634" lon="-2.32657">
        <ele>57.5</ele>
        <time>2016-07-05T09:55:54Z</time>
      </trkpt>
      <trkpt lat="48.67629" lon="-2.32668">
        <ele>56.5</ele>
        <time>2016-07-05T09:56:05Z</time>
      </trkpt>
      <trkpt lat="48.67624" lon="-2.32681">
        <ele>55.9</ele>
        <time>2016-07-05T09:56:13Z</time>
      </trkpt>
      <trkpt lat="48.6762" lon="-2.32694">
        <ele>56.3</ele>
        <time>2016-07-05T09:56:22Z</time>
      </trkpt>
      <trkpt lat="48.67614" lon="-2.32704">
        <ele>54.8</ele>
        <time>2016-07-05T09:56:36Z</time>
      </trkpt>
      <trkpt lat="48.6761" lon="-2.32692">
        <ele>51.9</ele>
        <time>2016-07-05T09:57:08Z</time>
      </trkpt>
      <trkpt lat="48.67615" lon="-2.3268">
        <ele>52.1</ele>
        <time>2016-07-05T09:57:16Z</time>
      </trkpt>
      <trkpt lat="48.6762" lon="-2.32667">
        <ele>52.8</ele>
        <time>2016-07-05T09:57:25Z</time>
      </trkpt>
      <trkpt lat="48.67623" lon="-2.32654">
        <ele>52.3</ele>
        <time>2016-07-05T09:57:33Z</time>
      </trkpt>
      <trkpt lat="48.67625" lon="-2.3264">
        <ele>51.9</ele>
        <time>2016-07-05T09:57:42Z</time>
      </trkpt>
      <trkpt lat="48.67626" lon="-2.32625">
        <ele>52.2</ele>
        <time>2016-07-05T09:58:39Z</time>
      </trkpt>
      <trkpt lat="48.67625" lon="-2.32611">
        <ele>51.2</ele>
        <time>2016-07-05T09:58:48Z</time>
      </trkpt>
      <trkpt lat="48.67616" lon="-2.32617">
        <ele>49</ele>
        <time>2016-07-05T09:59:00Z</time>
      </trkpt>
      <trkpt lat="48.67606" lon="-2.32614">
        <ele>47.9</ele>
        <time>2016-07-05T09:59:09Z</time>
      </trkpt>
      <trkpt lat="48.676" lon="-2.32626">
        <ele>48.2</ele>
        <time>2016-07-05T09:59:17Z</time>
      </trkpt>
      <trkpt lat="48.67597" lon="-2.32639">
        <ele>48.2</ele>
        <time>2016-07-05T09:59:24Z</time>
      </trkpt>
      <trkpt lat="48.6759" lon="-2.32648">
        <ele>47.9</ele>
        <time>2016-07-05T09:59:31Z</time>
      </trkpt>
      <trkpt lat="48.67582" lon="-2.32656">
        <ele>48.2</ele>
        <time>2016-07-05T09:59:39Z</time>
      </trkpt>
      <trkpt lat="48.67574" lon="-2.32665">
        <ele>49.6</ele>
        <time>2016-07-05T09:59:47Z</time>
      </trkpt>
      <trkpt lat="48.67566" lon="-2.32671">
        <ele>50.4</ele>
        <time>2016-07-05T09:59:55Z</time>
      </trkpt>
      <trkpt lat="48.67557" lon="-2.32677">
        <ele>51.4</ele>
        <time>2016-07-05T10:00:04Z</time>
      </trkpt>
      <trkpt lat="48.67548" lon="-2.32683">
        <ele>51.7</ele>
        <time>2016-07-05T10:00:12Z</time>
      </trkpt>
      <trkpt lat="48.67539" lon="-2.32684">
        <ele>53.1</ele>
        <time>2016-07-05T10:00:24Z</time>
      </trkpt>
      <trkpt lat="48.67531" lon="-2.32679">
        <ele>55.7</ele>
        <time>2016-07-05T10:00:38Z</time>
      </trkpt>
      <trkpt lat="48.67524" lon="-2.3269">
        <ele>56</ele>
        <time>2016-07-05T10:01:35Z</time>
      </trkpt>
      <trkpt lat="48.67516" lon="-2.32699">
        <ele>55.4</ele>
        <time>2016-07-05T10:01:43Z</time>
      </trkpt>
      <trkpt lat="48.67509" lon="-2.3271">
        <ele>55</ele>
        <time>2016-07-05T10:01:52Z</time>
      </trkpt>
      <trkpt lat="48.67502" lon="-2.32718">
        <ele>56</ele>
        <time>2016-07-05T10:02:01Z</time>
      </trkpt>
      <trkpt lat="48.67495" lon="-2.32727">
        <ele>56.5</ele>
        <time>2016-07-05T10:02:09Z</time>
      </trkpt>
      <trkpt lat="48.67486" lon="-2.32734">
        <ele>57.7</ele>
        <time>2016-07-05T10:02:19Z</time>
      </trkpt>
      <trkpt lat="48.67477" lon="-2.32734">
        <ele>56.8</ele>
        <time>2016-07-05T10:02:32Z</time>
      </trkpt>
      <trkpt lat="48.67468" lon="-2.32728">
        <ele>56.1</ele>
        <time>2016-07-05T10:02:39Z</time>
      </trkpt>
      <trkpt lat="48.67459" lon="-2.32728">
        <ele>55.5</ele>
        <time>2016-07-05T10:02:47Z</time>
      </trkpt>
      <trkpt lat="48.67448" lon="-2.32725">
        <ele>56.7</ele>
        <time>2016-07-05T10:02:56Z</time>
      </trkpt>
      <trkpt lat="48.6744" lon="-2.32722">
        <ele>56.3</ele>
        <time>2016-07-05T10:03:04Z</time>
      </trkpt>
      <trkpt lat="48.6743" lon="-2.32718">
        <ele>56.9</ele>
        <time>2016-07-05T10:03:12Z</time>
      </trkpt>
      <trkpt lat="48.67421" lon="-2.32713">
        <ele>57.3</ele>
        <time>2016-07-05T10:03:20Z</time>
      </trkpt>
      <trkpt lat="48.67412" lon="-2.32708">
        <ele>57.4</ele>
        <time>2016-07-05T10:03:30Z</time>
      </trkpt>
      <trkpt lat="48.67403" lon="-2.32703">
        <ele>57.9</ele>
        <time>2016-07-05T10:03:39Z</time>
      </trkpt>
      <trkpt lat="48.67394" lon="-2.32697">
        <ele>58.8</ele>
        <time>2016-07-05T10:03:48Z</time>
      </trkpt>
      <trkpt lat="48.67386" lon="-2.32693">
        <ele>59.7</ele>
        <time>2016-07-05T10:03:56Z</time>
      </trkpt>
      <trkpt lat="48.67376" lon="-2.3269">
        <ele>59.9</ele>
        <time>2016-07-05T10:04:04Z</time>
      </trkpt>
      <trkpt lat="48.67366" lon="-2.32686">
        <ele>59.9</ele>
        <time>2016-07-05T10:04:13Z</time>
      </trkpt>
      <trkpt lat="48.67357" lon="-2.32681">
        <ele>60.2</ele>
        <time>2016-07-05T10:04:22Z</time>
      </trkpt>
      <trkpt lat="48.67349" lon="-2.32676">
        <ele>59.9</ele>
        <time>2016-07-05T10:04:30Z</time>
      </trkpt>
      <trkpt lat="48.6734" lon="-2.32671">
        <ele>59.4</ele>
        <time>2016-07-05T10:04:39Z</time>
      </trkpt>
      <trkpt lat="48.67332" lon="-2.32678">
        <ele>59.7</ele>
        <time>2016-07-05T10:04:46Z</time>
      </trkpt>
      <trkpt lat="48.67325" lon="-2.32687">
        <ele>58.3</ele>
        <time>2016-07-05T10:05:00Z</time>
      </trkpt>
      <trkpt lat="48.67316" lon="-2.32691">
        <ele>57.4</ele>
        <time>2016-07-05T10:05:07Z</time>
      </trkpt>
      <trkpt lat="48.67308" lon="-2.32701">
        <ele>57.1</ele>
        <time>2016-07-05T10:05:15Z</time>
      </trkpt>
      <trkpt lat="48.67301" lon="-2.32711">
        <ele>56.3</ele>
        <time>2016-07-05T10:06:25Z</time>
      </trkpt>
      <trkpt lat="48.67293" lon="-2.32718">
        <ele>55.7</ele>
        <time>2016-07-05T10:06:33Z</time>
      </trkpt>
      <trkpt lat="48.67285" lon="-2.32726">
        <ele>56.6</ele>
        <time>2016-07-05T10:06:41Z</time>
      </trkpt>
      <trkpt lat="48.67277" lon="-2.32734">
        <ele>55.7</ele>
        <time>2016-07-05T10:06:49Z</time>
      </trkpt>
      <trkpt lat="48.67271" lon="-2.32746">
        <ele>56.9</ele>
        <time>2016-07-05T10:06:59Z</time>
      </trkpt>
      <trkpt lat="48.67265" lon="-2.32759">
        <ele>55.5</ele>
        <time>2016-07-05T10:07:08Z</time>
      </trkpt>
      <trkpt lat="48.67259" lon="-2.32769">
        <ele>55.3</ele>
        <time>2016-07-05T10:07:16Z</time>
      </trkpt>
      <trkpt lat="48.67254" lon="-2.32781">
        <ele>54.9</ele>
        <time>2016-07-05T10:07:24Z</time>
      </trkpt>
      <trkpt lat="48.67248" lon="-2.32792">
        <ele>54.7</ele>
        <time>2016-07-05T10:07:32Z</time>
      </trkpt>
      <trkpt lat="48.67242" lon="-2.32804">
        <ele>53.1</ele>
        <time>2016-07-05T10:07:41Z</time>
      </trkpt>
      <trkpt lat="48.67239" lon="-2.32818">
        <ele>53</ele>
        <time>2016-07-05T10:07:54Z</time>
      </trkpt>
      <trkpt lat="48.67232" lon="-2.32829">
        <ele>52.8</ele>
        <time>2016-07-05T10:08:03Z</time>
      </trkpt>
      <trkpt lat="48.67227" lon="-2.32841">
        <ele>52.5</ele>
        <time>2016-07-05T10:08:11Z</time>
      </trkpt>
      <trkpt lat="48.67222" lon="-2.32854">
        <ele>53.8</ele>
        <time>2016-07-05T10:08:20Z</time>
      </trkpt>
      <trkpt lat="48.67215" lon="-2.32864">
        <ele>53.4</ele>
        <time>2016-07-05T10:08:28Z</time>
      </trkpt>
      <trkpt lat="48.67207" lon="-2.32874">
        <ele>53.4</ele>
        <time>2016-07-05T10:08:36Z</time>
      </trkpt>
      <trkpt lat="48.672" lon="-2.32884">
        <ele>55.7</ele>
        <time>2016-07-05T10:08:44Z</time>
      </trkpt>
      <trkpt lat="48.67194" lon="-2.32896">
        <ele>57.5</ele>
        <time>2016-07-05T10:08:52Z</time>
      </trkpt>
      <trkpt lat="48.67186" lon="-2.32904">
        <ele>54.8</ele>
        <time>2016-07-05T10:09:01Z</time>
      </trkpt>
      <trkpt lat="48.67179" lon="-2.32914">
        <ele>53.6</ele>
        <time>2016-07-05T10:09:09Z</time>
      </trkpt>
      <trkpt lat="48.67173" lon="-2.32924">
        <ele>53.2</ele>
        <time>2016-07-05T10:09:18Z</time>
      </trkpt>
      <trkpt lat="48.67167" lon="-2.32935">
        <ele>53.2</ele>
        <time>2016-07-05T10:09:26Z</time>
      </trkpt>
      <trkpt lat="48.67162" lon="-2.32947">
        <ele>52.7</ele>
        <time>2016-07-05T10:09:35Z</time>
      </trkpt>
      <trkpt lat="48.67156" lon="-2.32958">
        <ele>51.4</ele>
        <time>2016-07-05T10:09:56Z</time>
      </trkpt>
      <trkpt lat="48.67151" lon="-2.32969">
        <ele>51</ele>
        <time>2016-07-05T10:10:05Z</time>
      </trkpt>
      <trkpt lat="48.67145" lon="-2.3298">
        <ele>50.5</ele>
        <time>2016-07-05T10:10:13Z</time>
      </trkpt>
      <trkpt lat="48.67141" lon="-2.32993">
        <ele>50.2</ele>
        <time>2016-07-05T10:10:22Z</time>
      </trkpt>
      <trkpt lat="48.67135" lon="-2.33004">
        <ele>48.6</ele>
        <time>2016-07-05T10:10:30Z</time>
      </trkpt>
      <trkpt lat="48.67132" lon="-2.33017">
        <ele>48.6</ele>
        <time>2016-07-05T10:10:37Z</time>
      </trkpt>
      <trkpt lat="48.67128" lon="-2.3303">
        <ele>48.4</ele>
        <time>2016-07-05T10:10:45Z</time>
      </trkpt>
      <trkpt lat="48.67121" lon="-2.3304">
        <ele>48.5</ele>
        <time>2016-07-05T10:10:56Z</time>
      </trkpt>
      <trkpt lat="48.67119" lon="-2.33053">
        <ele>47.2</ele>
        <time>2016-07-05T10:11:05Z</time>
      </trkpt>
      <trkpt lat="48.67115" lon="-2.33067">
        <ele>46.7</ele>
        <time>2016-07-05T10:11:14Z</time>
      </trkpt>
      <trkpt lat="48.67107" lon="-2.33074">
        <ele>46.1</ele>
        <time>2016-07-05T10:11:22Z</time>
      </trkpt>
      <trkpt lat="48.67098" lon="-2.33079">
        <ele>47.4</ele>
        <time>2016-07-05T10:11:31Z</time>
      </trkpt>
      <trkpt lat="48.67088" lon="-2.33078">
        <ele>48.4</ele>
        <time>2016-07-05T10:11:41Z</time>
      </trkpt>
      <trkpt lat="48.67079" lon="-2.33076">
        <ele>48.6</ele>
        <time>2016-07-05T10:12:19Z</time>
      </trkpt>
      <trkpt lat="48.6707" lon="-2.3308">
        <ele>49</ele>
        <time>2016-07-05T10:12:28Z</time>
      </trkpt>
      <trkpt lat="48.67062" lon="-2.33086">
        <ele>49</ele>
        <time>2016-07-05T10:12:37Z</time>
      </trkpt>
      <trkpt lat="48.67053" lon="-2.33091">
        <ele>49.7</ele>
        <time>2016-07-05T10:12:47Z</time>
      </trkpt>
      <trkpt lat="48.67045" lon="-2.33099">
        <ele>50</ele>
        <time>2016-07-05T10:12:56Z</time>
      </trkpt>
      <trkpt lat="48.67039" lon="-2.33111">
        <ele>51.6</ele>
        <time>2016-07-05T10:13:20Z</time>
      </trkpt>
      <trkpt lat="48.67034" lon="-2.33123">
        <ele>51.8</ele>
        <time>2016-07-05T10:13:28Z</time>
      </trkpt>
      <trkpt lat="48.67029" lon="-2.33135">
        <ele>51.6</ele>
        <time>2016-07-05T10:13:36Z</time>
      </trkpt>
      <trkpt lat="48.67023" lon="-2.33146">
        <ele>52.6</ele>
        <time>2016-07-05T10:13:45Z</time>
      </trkpt>
      <trkpt lat="48.67014" lon="-2.33152">
        <ele>51</ele>
        <time>2016-07-05T10:13:54Z</time>
      </trkpt>
      <trkpt lat="48.67006" lon="-2.33159">
        <ele>51.1</ele>
        <time>2016-07-05T10:14:02Z</time>
      </trkpt>
      <trkpt lat="48.66999" lon="-2.33168">
        <ele>51.4</ele>
        <time>2016-07-05T10:14:11Z</time>
      </trkpt>
      <trkpt lat="48.66994" lon="-2.33181">
        <ele>52</ele>
        <time>2016-07-05T10:14:19Z</time>
      </trkpt>
      <trkpt lat="48.66991" lon="-2.33196">
        <ele>50.9</ele>
        <time>2016-07-05T10:14:28Z</time>
      </trkpt>
      <trkpt lat="48.66986" lon="-2.33209">
        <ele>49.4</ele>
        <time>2016-07-05T10:14:37Z</time>
      </trkpt>
      <trkpt lat="48.66984" lon="-2.33223">
        <ele>49.1</ele>
        <time>2016-07-05T10:14:45Z</time>
      </trkpt>
      <trkpt lat="48.66983" lon="-2.33237">
        <ele>48.1</ele>
        <time>2016-07-05T10:14:54Z</time>
      </trkpt>
      <trkpt lat="48.66981" lon="-2.33251">
        <ele>47.7</ele>
        <time>2016-07-05T10:15:02Z</time>
      </trkpt>
      <trkpt lat="48.66982" lon="-2.33265">
        <ele>46.6</ele>
        <time>2016-07-05T10:15:10Z</time>
      </trkpt>
      <trkpt lat="48.66982" lon="-2.3328">
        <ele>46.4</ele>
        <time>2016-07-05T10:15:27Z</time>
      </trkpt>
      <trkpt lat="48.66985" lon="-2.33293">
        <ele>45.4</ele>
        <time>2016-07-05T10:15:33Z</time>
      </trkpt>
      <trkpt lat="48.66986" lon="-2.33308">
        <ele>43.1</ele>
        <time>2016-07-05T10:15:40Z</time>
      </trkpt>
      <trkpt lat="48.66988" lon="-2.33322">
        <ele>43.9</ele>
        <time>2016-07-05T10:15:47Z</time>
      </trkpt>
      <trkpt lat="48.66983" lon="-2.33335">
        <ele>44.5</ele>
        <time>2016-07-05T10:15:55Z</time>
      </trkpt>
      <trkpt lat="48.66986" lon="-2.3335">
        <ele>43.7</ele>
        <time>2016-07-05T10:16:04Z</time>
      </trkpt>
      <trkpt lat="48.66987" lon="-2.33365">
        <ele>43.3</ele>
        <time>2016-07-05T10:16:11Z</time>
      </trkpt>
      <trkpt lat="48.66989" lon="-2.33378">
        <ele>43.7</ele>
        <time>2016-07-05T10:16:22Z</time>
      </trkpt>
      <trkpt lat="48.66993" lon="-2.33392">
        <ele>43.9</ele>
        <time>2016-07-05T10:16:32Z</time>
      </trkpt>
      <trkpt lat="48.66998" lon="-2.33404">
        <ele>43.9</ele>
        <time>2016-07-05T10:16:41Z</time>
      </trkpt>
      <trkpt lat="48.67008" lon="-2.33405">
        <ele>43.6</ele>
        <time>2016-07-05T10:16:50Z</time>
      </trkpt>
      <trkpt lat="48.67018" lon="-2.33405">
        <ele>43.2</ele>
        <time>2016-07-05T10:16:58Z</time>
      </trkpt>
      <trkpt lat="48.67021" lon="-2.33419">
        <ele>43.6</ele>
        <time>2016-07-05T10:17:16Z</time>
      </trkpt>
      <trkpt lat="48.67011" lon="-2.33414">
        <ele>44.5</ele>
        <time>2016-07-05T10:17:32Z</time>
      </trkpt>
      <trkpt lat="48.67003" lon="-2.33408">
        <ele>44.7</ele>
        <time>2016-07-05T10:17:40Z</time>
      </trkpt>
      <trkpt lat="48.66993" lon="-2.3341">
        <ele>44.6</ele>
        <time>2016-07-05T10:18:14Z</time>
      </trkpt>
      <trkpt lat="48.66986" lon="-2.33418">
        <ele>44.2</ele>
        <time>2016-07-05T10:18:22Z</time>
      </trkpt>
      <trkpt lat="48.66986" lon="-2.33432">
        <ele>43.1</ele>
        <time>2016-07-05T10:18:28Z</time>
      </trkpt>
      <trkpt lat="48.66985" lon="-2.33446">
        <ele>43.3</ele>
        <time>2016-07-05T10:18:35Z</time>
      </trkpt>
      <trkpt lat="48.66984" lon="-2.33461">
        <ele>42.9</ele>
        <time>2016-07-05T10:18:42Z</time>
      </trkpt>
      <trkpt lat="48.66982" lon="-2.33475">
        <ele>42.2</ele>
        <time>2016-07-05T10:18:49Z</time>
      </trkpt>
      <trkpt lat="48.66988" lon="-2.33486">
        <ele>40.8</ele>
        <time>2016-07-05T10:19:08Z</time>
      </trkpt>
      <trkpt lat="48.66978" lon="-2.33487">
        <ele>39.7</ele>
        <time>2016-07-05T10:19:36Z</time>
      </trkpt>
      <trkpt lat="48.66973" lon="-2.335">
        <ele>40.3</ele>
        <time>2016-07-05T10:19:44Z</time>
      </trkpt>
      <trkpt lat="48.66965" lon="-2.33507">
        <ele>41.1</ele>
        <time>2016-07-05T10:19:52Z</time>
      </trkpt>
      <trkpt lat="48.66957" lon="-2.33516">
        <ele>40.1</ele>
        <time>2016-07-05T10:20:03Z</time>
      </trkpt>
      <trkpt lat="48.66949" lon="-2.33525">
        <ele>39.2</ele>
        <time>2016-07-05T10:20:10Z</time>
      </trkpt>
      <trkpt lat="48.66941" lon="-2.33534">
        <ele>38.3</ele>
        <time>2016-07-05T10:20:17Z</time>
      </trkpt>
      <trkpt lat="48.66934" lon="-2.33542">
        <ele>37.8</ele>
        <time>2016-07-05T10:20:24Z</time>
      </trkpt>
      <trkpt lat="48.66926" lon="-2.33551">
        <ele>38.7</ele>
        <time>2016-07-05T10:20:31Z</time>
      </trkpt>
      <trkpt lat="48.66916" lon="-2.33555">
        <ele>38.1</ele>
        <time>2016-07-05T10:20:38Z</time>
      </trkpt>
      <trkpt lat="48.66907" lon="-2.3355">
        <ele>38.3</ele>
        <time>2016-07-05T10:20:45Z</time>
      </trkpt>
      <trkpt lat="48.66897" lon="-2.33547">
        <ele>38.7</ele>
        <time>2016-07-05T10:20:52Z</time>
      </trkpt>
      <trkpt lat="48.66887" lon="-2.33545">
        <ele>39</ele>
        <time>2016-07-05T10:20:58Z</time>
      </trkpt>
      <trkpt lat="48.66881" lon="-2.33555">
        <ele>39</ele>
        <time>2016-07-05T10:21:05Z</time>
      </trkpt>
      <trkpt lat="48.66875" lon="-2.33568">
        <ele>38.9</ele>
        <time>2016-07-05T10:21:15Z</time>
      </trkpt>
      <trkpt lat="48.6687" lon="-2.3358">
        <ele>39.2</ele>
        <time>2016-07-05T10:21:22Z</time>
      </trkpt>
      <trkpt lat="48.66864" lon="-2.33591">
        <ele>39.3</ele>
        <time>2016-07-05T10:21:29Z</time>
      </trkpt>
      <trkpt lat="48.66858" lon="-2.33602">
        <ele>39.7</ele>
        <time>2016-07-05T10:21:36Z</time>
      </trkpt>
      <trkpt lat="48.66851" lon="-2.33613">
        <ele>39.4</ele>
        <time>2016-07-05T10:21:44Z</time>
      </trkpt>
      <trkpt lat="48.66845" lon="-2.33623">
        <ele>39.8</ele>
        <time>2016-07-05T10:21:51Z</time>
      </trkpt>
      <trkpt lat="48.66839" lon="-2.33634">
        <ele>41.1</ele>
        <time>2016-07-05T10:21:58Z</time>
      </trkpt>
      <trkpt lat="48.66831" lon="-2.3364">
        <ele>41.5</ele>
        <time>2016-07-05T10:22:05Z</time>
      </trkpt>
      <trkpt lat="48.66829" lon="-2.33655">
        <ele>40.5</ele>
        <time>2016-07-05T10:22:13Z</time>
      </trkpt>
      <trkpt lat="48.66824" lon="-2.33666">
        <ele>38.5</ele>
        <time>2016-07-05T10:22:20Z</time>
      </trkpt>
      <trkpt lat="48.66818" lon="-2.33678">
        <ele>37.9</ele>
        <time>2016-07-05T10:22:27Z</time>
      </trkpt>
      <trkpt lat="48.66813" lon="-2.3369">
        <ele>37.5</ele>
        <time>2016-07-05T10:22:34Z</time>
      </trkpt>
      <trkpt lat="48.66807" lon="-2.33702">
        <ele>37</ele>
        <time>2016-07-05T10:22:42Z</time>
      </trkpt>
      <trkpt lat="48.66801" lon="-2.33714">
        <ele>36.2</ele>
        <time>2016-07-05T10:22:49Z</time>
      </trkpt>
      <trkpt lat="48.66796" lon="-2.33727">
        <ele>36.9</ele>
        <time>2016-07-05T10:22:56Z</time>
      </trkpt>
      <trkpt lat="48.66793" lon="-2.3374">
        <ele>36.3</ele>
        <time>2016-07-05T10:23:03Z</time>
      </trkpt>
      <trkpt lat="48.66785" lon="-2.33749">
        <ele>36.5</ele>
        <time>2016-07-05T10:23:10Z</time>
      </trkpt>
      <trkpt lat="48.66777" lon="-2.33745">
        <ele>37.4</ele>
        <time>2016-07-05T10:23:16Z</time>
      </trkpt>
      <trkpt lat="48.66767" lon="-2.3374">
        <ele>38.2</ele>
        <time>2016-07-05T10:23:22Z</time>
      </trkpt>
      <trkpt lat="48.66757" lon="-2.3374">
        <ele>37.2</ele>
        <time>2016-07-05T10:23:30Z</time>
      </trkpt>
      <trkpt lat="48.66748" lon="-2.33746">
        <ele>36.2</ele>
        <time>2016-07-05T10:23:38Z</time>
      </trkpt>
      <trkpt lat="48.66739" lon="-2.33749">
        <ele>34.9</ele>
        <time>2016-07-05T10:23:45Z</time>
      </trkpt>
      <trkpt lat="48.66731" lon="-2.33755">
        <ele>35.6</ele>
        <time>2016-07-05T10:24:40Z</time>
      </trkpt>
      <trkpt lat="48.66727" lon="-2.33769">
        <ele>35.7</ele>
        <time>2016-07-05T10:24:48Z</time>
      </trkpt>
      <trkpt lat="48.66723" lon="-2.33782">
        <ele>35.2</ele>
        <time>2016-07-05T10:24:56Z</time>
      </trkpt>
      <trkpt lat="48.66719" lon="-2.33796">
        <ele>34.5</ele>
        <time>2016-07-05T10:25:04Z</time>
      </trkpt>
      <trkpt lat="48.66715" lon="-2.3381">
        <ele>35.2</ele>
        <time>2016-07-05T10:25:12Z</time>
      </trkpt>
      <trkpt lat="48.66711" lon="-2.33822">
        <ele>35.5</ele>
        <time>2016-07-05T10:25:20Z</time>
      </trkpt>
      <trkpt lat="48.66708" lon="-2.33836">
        <ele>34.1</ele>
        <time>2016-07-05T10:25:28Z</time>
      </trkpt>
      <trkpt lat="48.66712" lon="-2.33849">
        <ele>33.6</ele>
        <time>2016-07-05T10:25:54Z</time>
      </trkpt>
      <trkpt lat="48.66715" lon="-2.33862">
        <ele>32.8</ele>
        <time>2016-07-05T10:26:01Z</time>
      </trkpt>
      <trkpt lat="48.66723" lon="-2.33872">
        <ele>33.3</ele>
        <time>2016-07-05T10:26:09Z</time>
      </trkpt>
      <trkpt lat="48.66727" lon="-2.33884">
        <ele>32.4</ele>
        <time>2016-07-05T10:26:17Z</time>
      </trkpt>
      <trkpt lat="48.66738" lon="-2.33886">
        <ele>31.9</ele>
        <time>2016-07-05T10:26:25Z</time>
      </trkpt>
      <trkpt lat="48.66747" lon="-2.33889">
        <ele>31.4</ele>
        <time>2016-07-05T10:26:34Z</time>
      </trkpt>
      <trkpt lat="48.66757" lon="-2.33889">
        <ele>33.3</ele>
        <time>2016-07-05T10:26:43Z</time>
      </trkpt>
      <trkpt lat="48.66767" lon="-2.33892">
        <ele>33.3</ele>
        <time>2016-07-05T10:26:52Z</time>
      </trkpt>
      <trkpt lat="48.66777" lon="-2.33892">
        <ele>33.4</ele>
        <time>2016-07-05T10:27:01Z</time>
      </trkpt>
      <trkpt lat="48.66786" lon="-2.33894">
        <ele>33.5</ele>
        <time>2016-07-05T10:27:09Z</time>
      </trkpt>
      <trkpt lat="48.66795" lon="-2.33896">
        <ele>35.2</ele>
        <time>2016-07-05T10:27:18Z</time>
      </trkpt>
      <trkpt lat="48.66805" lon="-2.33895">
        <ele>33.6</ele>
        <time>2016-07-05T10:27:56Z</time>
      </trkpt>
      <trkpt lat="48.66815" lon="-2.33894">
        <ele>34</ele>
        <time>2016-07-05T10:28:04Z</time>
      </trkpt>
      <trkpt lat="48.66824" lon="-2.33895">
        <ele>34.1</ele>
        <time>2016-07-05T10:28:12Z</time>
      </trkpt>
      <trkpt lat="48.66833" lon="-2.339">
        <ele>34.9</ele>
        <time>2016-07-05T10:28:21Z</time>
      </trkpt>
      <trkpt lat="48.66832" lon="-2.33915">
        <ele>35.8</ele>
        <time>2016-07-05T10:28:31Z</time>
      </trkpt>
      <trkpt lat="48.66828" lon="-2.33928">
        <ele>34.6</ele>
        <time>2016-07-05T10:28:39Z</time>
      </trkpt>
      <trkpt lat="48.66822" lon="-2.33938">
        <ele>34.8</ele>
        <time>2016-07-05T10:28:47Z</time>
      </trkpt>
      <trkpt lat="48.66814" lon="-2.33946">
        <ele>34.9</ele>
        <time>2016-07-05T10:28:56Z</time>
      </trkpt>
      <trkpt lat="48.66814" lon="-2.33961">
        <ele>35.5</ele>
        <time>2016-07-05T10:29:07Z</time>
      </trkpt>
      <trkpt lat="48.66814" lon="-2.33975">
        <ele>36.9</ele>
        <time>2016-07-05T10:29:15Z</time>
      </trkpt>
      <trkpt lat="48.66814" lon="-2.3399">
        <ele>36.7</ele>
        <time>2016-07-05T10:29:24Z</time>
      </trkpt>
      <trkpt lat="48.66813" lon="-2.34004">
        <ele>37.2</ele>
        <time>2016-07-05T10:29:33Z</time>
      </trkpt>
      <trkpt lat="48.66807" lon="-2.34014">
        <ele>37.2</ele>
        <time>2016-07-05T10:29:54Z</time>
      </trkpt>
      <trkpt lat="48.66804" lon="-2.34028">
        <ele>36.9</ele>
        <time>2016-07-05T10:30:02Z</time>
      </trkpt>
      <trkpt lat="48.66798" lon="-2.34039">
        <ele>36.2</ele>
        <time>2016-07-05T10:30:11Z</time>
      </trkpt>
      <trkpt lat="48.6679" lon="-2.34045">
        <ele>36.5</ele>
        <time>2016-07-05T10:30:21Z</time>
      </trkpt>
      <trkpt lat="48.6678" lon="-2.34046">
        <ele>38</ele>
        <time>2016-07-05T10:30:35Z</time>
      </trkpt>
      <trkpt lat="48.6677" lon="-2.34047">
        <ele>37.7</ele>
        <time>2016-07-05T10:30:43Z</time>
      </trkpt>
      <trkpt lat="48.66761" lon="-2.34051">
        <ele>35.9</ele>
        <time>2016-07-05T10:30:51Z</time>
      </trkpt>
      <trkpt lat="48.66752" lon="-2.34056">
        <ele>36.3</ele>
        <time>2016-07-05T10:30:59Z</time>
      </trkpt>
      <trkpt lat="48.66743" lon="-2.34059">
        <ele>37.4</ele>
        <time>2016-07-05T10:31:07Z</time>
      </trkpt>
      <trkpt lat="48.66733" lon="-2.34062">
        <ele>37.5</ele>
        <time>2016-07-05T10:31:16Z</time>
      </trkpt>
      <trkpt lat="48.66724" lon="-2.34067">
        <ele>39.1</ele>
        <time>2016-07-05T10:31:27Z</time>
      </trkpt>
      <trkpt lat="48.66715" lon="-2.34073">
        <ele>39.7</ele>
        <time>2016-07-05T10:31:37Z</time>
      </trkpt>
      <trkpt lat="48.66707" lon="-2.3408">
        <ele>38.7</ele>
        <time>2016-07-05T10:32:12Z</time>
      </trkpt>
      <trkpt lat="48.66701" lon="-2.3409">
        <ele>37.6</ele>
        <time>2016-07-05T10:32:24Z</time>
      </trkpt>
      <trkpt lat="48.66703" lon="-2.34105">
        <ele>37</ele>
        <time>2016-07-05T10:32:33Z</time>
      </trkpt>
      <trkpt lat="48.66707" lon="-2.34119">
        <ele>37.3</ele>
        <time>2016-07-05T10:32:42Z</time>
      </trkpt>
      <trkpt lat="48.6671" lon="-2.34133">
        <ele>37.8</ele>
        <time>2016-07-05T10:32:52Z</time>
      </trkpt>
      <trkpt lat="48.66713" lon="-2.34146">
        <ele>36.4</ele>
        <time>2016-07-05T10:33:00Z</time>
      </trkpt>
      <trkpt lat="48.66712" lon="-2.34161">
        <ele>36.4</ele>
        <time>2016-07-05T10:33:09Z</time>
      </trkpt>
      <trkpt lat="48.66712" lon="-2.34175">
        <ele>36.3</ele>
        <time>2016-07-05T10:33:18Z</time>
      </trkpt>
      <trkpt lat="48.66709" lon="-2.34189">
        <ele>38.1</ele>
        <time>2016-07-05T10:33:28Z</time>
      </trkpt>
      <trkpt lat="48.66704" lon="-2.342">
        <ele>38.8</ele>
        <time>2016-07-05T10:33:37Z</time>
      </trkpt>
      <trkpt lat="48.66697" lon="-2.34211">
        <ele>37.7</ele>
        <time>2016-07-05T10:33:52Z</time>
      </trkpt>
      <trkpt lat="48.6669" lon="-2.34222">
        <ele>38.4</ele>
        <time>2016-07-05T10:34:06Z</time>
      </trkpt>
      <trkpt lat="48.66685" lon="-2.34234">
        <ele>38.2</ele>
        <time>2016-07-05T10:34:14Z</time>
      </trkpt>
      <trkpt lat="48.66675" lon="-2.34234">
        <ele>37</ele>
        <time>2016-07-05T10:34:37Z</time>
      </trkpt>
      <trkpt lat="48.66666" lon="-2.34229">
        <ele>36</ele>
        <time>2016-07-05T10:34:44Z</time>
      </trkpt>
      <trkpt lat="48.66656" lon="-2.34226">
        <ele>34.8</ele>
        <time>2016-07-05T10:34:52Z</time>
      </trkpt>
      <trkpt lat="48.66647" lon="-2.34227">
        <ele>35</ele>
        <time>2016-07-05T10:35:02Z</time>
      </trkpt>
      <trkpt lat="48.66637" lon="-2.34228">
        <ele>35.6</ele>
        <time>2016-07-05T10:35:25Z</time>
      </trkpt>
      <trkpt lat="48.66629" lon="-2.34236">
        <ele>35.6</ele>
        <time>2016-07-05T10:35:34Z</time>
      </trkpt>
      <trkpt lat="48.66619" lon="-2.34237">
        <ele>34.8</ele>
        <time>2016-07-05T10:35:41Z</time>
      </trkpt>
      <trkpt lat="48.66611" lon="-2.34241">
        <ele>34.8</ele>
        <time>2016-07-05T10:35:52Z</time>
      </trkpt>
      <trkpt lat="48.66603" lon="-2.34249">
        <ele>33.3</ele>
        <time>2016-07-05T10:36:05Z</time>
      </trkpt>
      <trkpt lat="48.66594" lon="-2.34249">
        <ele>34.1</ele>
        <time>2016-07-05T10:36:13Z</time>
      </trkpt>
      <trkpt lat="48.66585" lon="-2.34246">
        <ele>34.6</ele>
        <time>2016-07-05T10:36:22Z</time>
      </trkpt>
      <trkpt lat="48.66576" lon="-2.34248">
        <ele>34.6</ele>
        <time>2016-07-05T10:36:29Z</time>
      </trkpt>
      <trkpt lat="48.66568" lon="-2.34254">
        <ele>35.2</ele>
        <time>2016-07-05T10:36:37Z</time>
      </trkpt>
      <trkpt lat="48.66559" lon="-2.34251">
        <ele>35.2</ele>
        <time>2016-07-05T10:36:49Z</time>
      </trkpt>
      <trkpt lat="48.66552" lon="-2.34242">
        <ele>36</ele>
        <time>2016-07-05T10:36:58Z</time>
      </trkpt>
      <trkpt lat="48.66542" lon="-2.34241">
        <ele>36</ele>
        <time>2016-07-05T10:37:33Z</time>
      </trkpt>
      <trkpt lat="48.66533" lon="-2.34248">
        <ele>36.6</ele>
        <time>2016-07-05T10:37:42Z</time>
      </trkpt>
      <trkpt lat="48.66525" lon="-2.34254">
        <ele>37.4</ele>
        <time>2016-07-05T10:37:49Z</time>
      </trkpt>
      <trkpt lat="48.66516" lon="-2.34262">
        <ele>37.1</ele>
        <time>2016-07-05T10:37:56Z</time>
      </trkpt>
      <trkpt lat="48.66507" lon="-2.34267">
        <ele>36.8</ele>
        <time>2016-07-05T10:38:04Z</time>
      </trkpt>
      <trkpt lat="48.66497" lon="-2.34271">
        <ele>36.3</ele>
        <time>2016-07-05T10:38:12Z</time>
      </trkpt>
      <trkpt lat="48.66488" lon="-2.34276">
        <ele>36.7</ele>
        <time>2016-07-05T10:38:19Z</time>
      </trkpt>
      <trkpt lat="48.66478" lon="-2.34277">
        <ele>36</ele>
        <time>2016-07-05T10:38:26Z</time>
      </trkpt>
      <trkpt lat="48.66469" lon="-2.3428">
        <ele>35.8</ele>
        <time>2016-07-05T10:38:34Z</time>
      </trkpt>
      <trkpt lat="48.6646" lon="-2.34282">
        <ele>36.3</ele>
        <time>2016-07-05T10:38:41Z</time>
      </trkpt>
      <trkpt lat="48.6645" lon="-2.34282">
        <ele>35.8</ele>
        <time>2016-07-05T10:38:49Z</time>
      </trkpt>
      <trkpt lat="48.66442" lon="-2.34285">
        <ele>37.4</ele>
        <time>2016-07-05T10:38:57Z</time>
      </trkpt>
      <trkpt lat="48.66432" lon="-2.34284">
        <ele>37.3</ele>
        <time>2016-07-05T10:39:04Z</time>
      </trkpt>
      <trkpt lat="48.66422" lon="-2.34284">
        <ele>37.9</ele>
        <time>2016-07-05T10:39:12Z</time>
      </trkpt>
      <trkpt lat="48.66412" lon="-2.34285">
        <ele>36.6</ele>
        <time>2016-07-05T10:39:20Z</time>
      </trkpt>
      <trkpt lat="48.66402" lon="-2.34287">
        <ele>36.6</ele>
        <time>2016-07-05T10:39:29Z</time>
      </trkpt>
      <trkpt lat="48.66392" lon="-2.3429">
        <ele>36.7</ele>
        <time>2016-07-05T10:39:36Z</time>
      </trkpt>
      <trkpt lat="48.66383" lon="-2.34291">
        <ele>36.4</ele>
        <time>2016-07-05T10:39:45Z</time>
      </trkpt>
      <trkpt lat="48.66373" lon="-2.34294">
        <ele>37.3</ele>
        <time>2016-07-05T10:39:53Z</time>
      </trkpt>
      <trkpt lat="48.66364" lon="-2.34296">
        <ele>36.6</ele>
        <time>2016-07-05T10:40:00Z</time>
      </trkpt>
      <trkpt lat="48.66354" lon="-2.343">
        <ele>36.6</ele>
        <time>2016-07-05T10:40:08Z</time>
      </trkpt>
      <trkpt lat="48.66345" lon="-2.34306">
        <ele>37.1</ele>
        <time>2016-07-05T10:40:16Z</time>
      </trkpt>
      <trkpt lat="48.66337" lon="-2.34314">
        <ele>37.1</ele>
        <time>2016-07-05T10:40:24Z</time>
      </trkpt>
      <trkpt lat="48.6633" lon="-2.34323">
        <ele>37.5</ele>
        <time>2016-07-05T10:40:32Z</time>
      </trkpt>
      <trkpt lat="48.66323" lon="-2.34333">
        <ele>37.4</ele>
        <time>2016-07-05T10:40:39Z</time>
      </trkpt>
      <trkpt lat="48.66317" lon="-2.34344">
        <ele>37.1</ele>
        <time>2016-07-05T10:40:47Z</time>
      </trkpt>
      <trkpt lat="48.66312" lon="-2.34357">
        <ele>36.7</ele>
        <time>2016-07-05T10:40:55Z</time>
      </trkpt>
      <trkpt lat="48.66308" lon="-2.34371">
        <ele>36.8</ele>
        <time>2016-07-05T10:41:03Z</time>
      </trkpt>
      <trkpt lat="48.66305" lon="-2.34385">
        <ele>36.7</ele>
        <time>2016-07-05T10:41:10Z</time>
      </trkpt>
      <trkpt lat="48.66303" lon="-2.34398">
        <ele>36.8</ele>
        <time>2016-07-05T10:41:17Z</time>
      </trkpt>
      <trkpt lat="48.66303" lon="-2.34412">
        <ele>36</ele>
        <time>2016-07-05T10:41:24Z</time>
      </trkpt>
      <trkpt lat="48.66304" lon="-2.34426">
        <ele>35.6</ele>
        <time>2016-07-05T10:41:31Z</time>
      </trkpt>
      <trkpt lat="48.66306" lon="-2.34441">
        <ele>35.6</ele>
        <time>2016-07-05T10:41:39Z</time>
      </trkpt>
      <trkpt lat="48.66308" lon="-2.34455">
        <ele>35</ele>
        <time>2016-07-05T10:41:47Z</time>
      </trkpt>
      <trkpt lat="48.66311" lon="-2.34469">
        <ele>34.4</ele>
        <time>2016-07-05T10:41:55Z</time>
      </trkpt>
      <trkpt lat="48.66312" lon="-2.34483">
        <ele>32.9</ele>
        <time>2016-07-05T10:43:09Z</time>
      </trkpt>
      <trkpt lat="48.66315" lon="-2.34496">
        <ele>32.6</ele>
        <time>2016-07-05T10:43:17Z</time>
      </trkpt>
      <trkpt lat="48.66318" lon="-2.3451">
        <ele>32.7</ele>
        <time>2016-07-05T10:43:25Z</time>
      </trkpt>
      <trkpt lat="48.6632" lon="-2.34525">
        <ele>31.2</ele>
        <time>2016-07-05T10:43:33Z</time>
      </trkpt>
      <trkpt lat="48.66323" lon="-2.34538">
        <ele>30.5</ele>
        <time>2016-07-05T10:43:41Z</time>
      </trkpt>
      <trkpt lat="48.66326" lon="-2.34553">
        <ele>29.3</ele>
        <time>2016-07-05T10:43:49Z</time>
      </trkpt>
      <trkpt lat="48.66329" lon="-2.34568">
        <ele>27</ele>
        <time>2016-07-05T10:43:57Z</time>
      </trkpt>
      <trkpt lat="48.66331" lon="-2.34582">
        <ele>26.9</ele>
        <time>2016-07-05T10:44:05Z</time>
      </trkpt>
      <trkpt lat="48.66333" lon="-2.34598">
        <ele>25.7</ele>
        <time>2016-07-05T10:44:14Z</time>
      </trkpt>
      <trkpt lat="48.66336" lon="-2.34613">
        <ele>25.2</ele>
        <time>2016-07-05T10:44:22Z</time>
      </trkpt>
      <trkpt lat="48.66339" lon="-2.34627">
        <ele>24.6</ele>
        <time>2016-07-05T10:44:30Z</time>
      </trkpt>
      <trkpt lat="48.6634" lon="-2.34642">
        <ele>24.7</ele>
        <time>2016-07-05T10:44:38Z</time>
      </trkpt>
      <trkpt lat="48.66342" lon="-2.34656">
        <ele>22.5</ele>
        <time>2016-07-05T10:44:46Z</time>
      </trkpt>
      <trkpt lat="48.66341" lon="-2.34671">
        <ele>22.7</ele>
        <time>2016-07-05T10:44:54Z</time>
      </trkpt>
      <trkpt lat="48.6634" lon="-2.34686">
        <ele>22.1</ele>
        <time>2016-07-05T10:45:02Z</time>
      </trkpt>
      <trkpt lat="48.66339" lon="-2.347">
        <ele>21.9</ele>
        <time>2016-07-05T10:45:10Z</time>
      </trkpt>
      <trkpt lat="48.66336" lon="-2.34714">
        <ele>21.2</ele>
        <time>2016-07-05T10:45:18Z</time>
      </trkpt>
      <trkpt lat="48.66332" lon="-2.34728">
        <ele>20.2</ele>
        <time>2016-07-05T10:45:26Z</time>
      </trkpt>
      <trkpt lat="48.66329" lon="-2.34742">
        <ele>19.6</ele>
        <time>2016-07-05T10:45:39Z</time>
      </trkpt>
      <trkpt lat="48.66324" lon="-2.34754">
        <ele>18.7</ele>
        <time>2016-07-05T10:45:48Z</time>
      </trkpt>
      <trkpt lat="48.66318" lon="-2.34764">
        <ele>18.2</ele>
        <time>2016-07-05T10:45:58Z</time>
      </trkpt>
      <trkpt lat="48.66314" lon="-2.34777">
        <ele>17.7</ele>
        <time>2016-07-05T10:46:07Z</time>
      </trkpt>
      <trkpt lat="48.66307" lon="-2.34788">
        <ele>15.9</ele>
        <time>2016-07-05T10:46:17Z</time>
      </trkpt>
      <trkpt lat="48.663" lon="-2.34796">
        <ele>15.9</ele>
        <time>2016-07-05T10:46:26Z</time>
      </trkpt>
      <trkpt lat="48.66292" lon="-2.34806">
        <ele>15.2</ele>
        <time>2016-07-05T10:46:36Z</time>
      </trkpt>
      <trkpt lat="48.66284" lon="-2.34814">
        <ele>14.6</ele>
        <time>2016-07-05T10:46:42Z</time>
      </trkpt>
      <trkpt lat="48.66276" lon="-2.3482">
        <ele>14.4</ele>
        <time>2016-07-05T10:46:49Z</time>
      </trkpt>
      <trkpt lat="48.66266" lon="-2.34827">
        <ele>13.9</ele>
        <time>2016-07-05T10:46:57Z</time>
      </trkpt>
      <trkpt lat="48.66257" lon="-2.34831">
        <ele>13</ele>
        <time>2016-07-05T10:47:03Z</time>
      </trkpt>
      <trkpt lat="48.66247" lon="-2.34832">
        <ele>12.6</ele>
        <time>2016-07-05T10:47:22Z</time>
      </trkpt>
      <trkpt lat="48.66238" lon="-2.34835">
        <ele>12.4</ele>
        <time>2016-07-05T10:47:30Z</time>
      </trkpt>
      <trkpt lat="48.66229" lon="-2.34838">
        <ele>11.9</ele>
        <time>2016-07-05T10:47:37Z</time>
      </trkpt>
      <trkpt lat="48.66219" lon="-2.34839">
        <ele>10.9</ele>
        <time>2016-07-05T10:47:44Z</time>
      </trkpt>
      <trkpt lat="48.66209" lon="-2.34838">
        <ele>11.1</ele>
        <time>2016-07-05T10:47:52Z</time>
      </trkpt>
      <trkpt lat="48.662" lon="-2.34834">
        <ele>10.4</ele>
        <time>2016-07-05T10:47:58Z</time>
      </trkpt>
      <trkpt lat="48.66191" lon="-2.3483">
        <ele>9.7</ele>
        <time>2016-07-05T10:48:05Z</time>
      </trkpt>
      <trkpt lat="48.66182" lon="-2.34824">
        <ele>10</ele>
        <time>2016-07-05T10:48:12Z</time>
      </trkpt>
      <trkpt lat="48.66172" lon="-2.3482">
        <ele>10.1</ele>
        <time>2016-07-05T10:48:20Z</time>
      </trkpt>
      <trkpt lat="48.66163" lon="-2.34815">
        <ele>9</ele>
        <time>2016-07-05T10:48:28Z</time>
      </trkpt>
      <trkpt lat="48.66154" lon="-2.34812">
        <ele>8.5</ele>
        <time>2016-07-05T10:48:36Z</time>
      </trkpt>
      <trkpt lat="48.66145" lon="-2.34807">
        <ele>8.1</ele>
        <time>2016-07-05T10:48:43Z</time>
      </trkpt>
      <trkpt lat="48.66136" lon="-2.34802">
        <ele>8.6</ele>
        <time>2016-07-05T10:48:50Z</time>
      </trkpt>
      <trkpt lat="48.66127" lon="-2.34797">
        <ele>8.3</ele>
        <time>2016-07-05T10:48:58Z</time>
      </trkpt>
      <trkpt lat="48.66118" lon="-2.34791">
        <ele>7.4</ele>
        <time>2016-07-05T10:49:06Z</time>
      </trkpt>
      <trkpt lat="48.66109" lon="-2.34796">
        <ele>7.7</ele>
        <time>2016-07-05T10:49:19Z</time>
      </trkpt>
      <trkpt lat="48.66107" lon="-2.3481">
        <ele>8</ele>
        <time>2016-07-05T10:49:53Z</time>
      </trkpt>
      <trkpt lat="48.66105" lon="-2.34824">
        <ele>8.2</ele>
        <time>2016-07-05T10:50:01Z</time>
      </trkpt>
      <trkpt lat="48.66097" lon="-2.34832">
        <ele>8.2</ele>
        <time>2016-07-05T10:50:08Z</time>
      </trkpt>
      <trkpt lat="48.66089" lon="-2.34838">
        <ele>8.3</ele>
        <time>2016-07-05T10:50:16Z</time>
      </trkpt>
      <trkpt lat="48.66081" lon="-2.34844">
        <ele>9.2</ele>
        <time>2016-07-05T10:50:24Z</time>
      </trkpt>
      <trkpt lat="48.66072" lon="-2.34851">
        <ele>10.3</ele>
        <time>2016-07-05T10:50:33Z</time>
      </trkpt>
      <trkpt lat="48.66063" lon="-2.34856">
        <ele>11</ele>
        <time>2016-07-05T10:50:42Z</time>
      </trkpt>
      <trkpt lat="48.66055" lon="-2.34863">
        <ele>11.8</ele>
        <time>2016-07-05T10:50:50Z</time>
      </trkpt>
      <trkpt lat="48.66049" lon="-2.34874">
        <ele>11.6</ele>
        <time>2016-07-05T10:51:02Z</time>
      </trkpt>
      <trkpt lat="48.6605" lon="-2.34887">
        <ele>10.9</ele>
        <time>2016-07-05T10:51:29Z</time>
      </trkpt>
      <trkpt lat="48.66057" lon="-2.34897">
        <ele>8.6</ele>
        <time>2016-07-05T10:51:39Z</time>
      </trkpt>
      <trkpt lat="48.66062" lon="-2.34911">
        <ele>8.1</ele>
        <time>2016-07-05T10:51:47Z</time>
      </trkpt>
      <trkpt lat="48.66067" lon="-2.34922">
        <ele>6.4</ele>
        <time>2016-07-05T10:51:56Z</time>
      </trkpt>
      <trkpt lat="48.66075" lon="-2.34933">
        <ele>5.4</ele>
        <time>2016-07-05T10:52:04Z</time>
      </trkpt>
      <trkpt lat="48.6608" lon="-2.34945">
        <ele>4.3</ele>
        <time>2016-07-05T10:52:12Z</time>
      </trkpt>
      <trkpt lat="48.66085" lon="-2.34957">
        <ele>3.7</ele>
        <time>2016-07-05T10:52:19Z</time>
      </trkpt>
      <trkpt lat="48.66089" lon="-2.3497">
        <ele>3.1</ele>
        <time>2016-07-05T10:52:28Z</time>
      </trkpt>
      <trkpt lat="48.66094" lon="-2.34984">
        <ele>2.9</ele>
        <time>2016-07-05T10:52:37Z</time>
      </trkpt>
      <trkpt lat="48.66096" lon="-2.34998">
        <ele>2</ele>
        <time>2016-07-05T10:52:49Z</time>
      </trkpt>
      <trkpt lat="48.66096" lon="-2.35013">
        <ele>2.9</ele>
        <time>2016-07-05T10:52:59Z</time>
      </trkpt>
      <trkpt lat="48.66099" lon="-2.35025">
        <ele>4.3</ele>
        <time>2016-07-05T10:53:08Z</time>
      </trkpt>
      <trkpt lat="48.661" lon="-2.3504">
        <ele>4.3</ele>
        <time>2016-07-05T10:53:18Z</time>
      </trkpt>
      <trkpt lat="48.66102" lon="-2.35055">
        <ele>3.9</ele>
        <time>2016-07-05T10:53:41Z</time>
      </trkpt>
      <trkpt lat="48.66099" lon="-2.35068">
        <ele>5.3</ele>
        <time>2016-07-05T10:53:51Z</time>
      </trkpt>
      <trkpt lat="48.66099" lon="-2.35082">
        <ele>7.8</ele>
        <time>2016-07-05T10:54:05Z</time>
      </trkpt>
      <trkpt lat="48.66101" lon="-2.35095">
        <ele>8.5</ele>
        <time>2016-07-05T10:54:15Z</time>
      </trkpt>
      <trkpt lat="48.66095" lon="-2.35105">
        <ele>9.7</ele>
        <time>2016-07-05T10:54:30Z</time>
      </trkpt>
      <trkpt lat="48.66088" lon="-2.35095">
        <ele>9.7</ele>
        <time>2016-07-05T10:54:39Z</time>
      </trkpt>
      <trkpt lat="48.66078" lon="-2.35092">
        <ele>10.5</ele>
        <time>2016-07-05T10:54:49Z</time>
      </trkpt>
      <trkpt lat="48.66069" lon="-2.35094">
        <ele>11.9</ele>
        <time>2016-07-05T10:55:01Z</time>
      </trkpt>
      <trkpt lat="48.66061" lon="-2.35101">
        <ele>14.4</ele>
        <time>2016-07-05T10:55:14Z</time>
      </trkpt>
      <trkpt lat="48.66054" lon="-2.3511">
        <ele>16</ele>
        <time>2016-07-05T10:55:26Z</time>
      </trkpt>
      <trkpt lat="48.66054" lon="-2.35124">
        <ele>15.7</ele>
        <time>2016-07-05T10:55:34Z</time>
      </trkpt>
      <trkpt lat="48.66053" lon="-2.35139">
        <ele>12.4</ele>
        <time>2016-07-05T10:55:56Z</time>
      </trkpt>
      <trkpt lat="48.66057" lon="-2.35152">
        <ele>11</ele>
        <time>2016-07-05T10:56:04Z</time>
      </trkpt>
      <trkpt lat="48.66054" lon="-2.35165">
        <ele>9.7</ele>
        <time>2016-07-05T10:56:11Z</time>
      </trkpt>
      <trkpt lat="48.66056" lon="-2.35179">
        <ele>8.2</ele>
        <time>2016-07-05T11:07:33Z</time>
      </trkpt>
      <trkpt lat="48.66051" lon="-2.35167">
        <ele>8</ele>
        <time>2016-07-05T11:16:45Z</time>
      </trkpt>
      <trkpt lat="48.66042" lon="-2.35173">
        <ele>7.7</ele>
        <time>2016-07-05T11:19:38Z</time>
      </trkpt>
      <trkpt lat="48.66034" lon="-2.3518">
        <ele>6.8</ele>
        <time>2016-07-05T11:19:48Z</time>
      </trkpt>
      <trkpt lat="48.66025" lon="-2.35187">
        <ele>6.8</ele>
        <time>2016-07-05T11:20:00Z</time>
      </trkpt>
      <trkpt lat="48.66017" lon="-2.35183">
        <ele>8.7</ele>
        <time>2016-07-05T11:20:21Z</time>
      </trkpt>
      <trkpt lat="48.66009" lon="-2.35176">
        <ele>9.7</ele>
        <time>2016-07-05T11:20:48Z</time>
      </trkpt>
      <trkpt lat="48.66001" lon="-2.35167">
        <ele>10.1</ele>
        <time>2016-07-05T11:20:56Z</time>
      </trkpt>
      <trkpt lat="48.65993" lon="-2.35158">
        <ele>9.5</ele>
        <time>2016-07-05T11:21:04Z</time>
      </trkpt>
      <trkpt lat="48.65984" lon="-2.35154">
        <ele>12.3</ele>
        <time>2016-07-05T11:21:54Z</time>
      </trkpt>
      <trkpt lat="48.65976" lon="-2.35147">
        <ele>10.4</ele>
        <time>2016-07-05T11:22:04Z</time>
      </trkpt>
      <trkpt lat="48.65967" lon="-2.35148">
        <ele>10.7</ele>
        <time>2016-07-05T11:22:13Z</time>
      </trkpt>
      <trkpt lat="48.65957" lon="-2.3515">
        <ele>10</ele>
        <time>2016-07-05T11:22:21Z</time>
      </trkpt>
      <trkpt lat="48.65948" lon="-2.35154">
        <ele>9.7</ele>
        <time>2016-07-05T11:22:29Z</time>
      </trkpt>
      <trkpt lat="48.65938" lon="-2.35154">
        <ele>9.9</ele>
        <time>2016-07-05T11:22:39Z</time>
      </trkpt>
      <trkpt lat="48.65929" lon="-2.35152">
        <ele>11.7</ele>
        <time>2016-07-05T11:22:49Z</time>
      </trkpt>
      <trkpt lat="48.65922" lon="-2.35145">
        <ele>13.9</ele>
        <time>2016-07-05T11:23:05Z</time>
      </trkpt>
      <trkpt lat="48.65916" lon="-2.35134">
        <ele>16.3</ele>
        <time>2016-07-05T11:26:19Z</time>
      </trkpt>
      <trkpt lat="48.65908" lon="-2.35124">
        <ele>17</ele>
        <time>2016-07-05T11:26:27Z</time>
      </trkpt>
      <trkpt lat="48.659" lon="-2.35114">
        <ele>17.4</ele>
        <time>2016-07-05T11:26:35Z</time>
      </trkpt>
      <trkpt lat="48.65893" lon="-2.35104">
        <ele>18.2</ele>
        <time>2016-07-05T11:26:43Z</time>
      </trkpt>
      <trkpt lat="48.65885" lon="-2.35093">
        <ele>18.9</ele>
        <time>2016-07-05T11:26:51Z</time>
      </trkpt>
      <trkpt lat="48.65878" lon="-2.35084">
        <ele>19.4</ele>
        <time>2016-07-05T11:26:58Z</time>
      </trkpt>
      <trkpt lat="48.65869" lon="-2.35075">
        <ele>20</ele>
        <time>2016-07-05T11:27:06Z</time>
      </trkpt>
      <trkpt lat="48.65862" lon="-2.35065">
        <ele>20.4</ele>
        <time>2016-07-05T11:27:13Z</time>
      </trkpt>
      <trkpt lat="48.65854" lon="-2.35056">
        <ele>20.2</ele>
        <time>2016-07-05T11:27:21Z</time>
      </trkpt>
      <trkpt lat="48.65844" lon="-2.35054">
        <ele>21.8</ele>
        <time>2016-07-05T11:27:42Z</time>
      </trkpt>
      <trkpt lat="48.65835" lon="-2.35058">
        <ele>21.6</ele>
        <time>2016-07-05T11:27:52Z</time>
      </trkpt>
      <trkpt lat="48.65826" lon="-2.35061">
        <ele>22.2</ele>
        <time>2016-07-05T11:28:01Z</time>
      </trkpt>
      <trkpt lat="48.65817" lon="-2.35054">
        <ele>22.6</ele>
        <time>2016-07-05T11:28:08Z</time>
      </trkpt>
      <trkpt lat="48.65808" lon="-2.35048">
        <ele>23.7</ele>
        <time>2016-07-05T11:28:17Z</time>
      </trkpt>
      <trkpt lat="48.65806" lon="-2.35034">
        <ele>24.9</ele>
        <time>2016-07-05T11:28:28Z</time>
      </trkpt>
      <trkpt lat="48.65803" lon="-2.35019">
        <ele>25.2</ele>
        <time>2016-07-05T11:28:44Z</time>
      </trkpt>
      <trkpt lat="48.658" lon="-2.35005">
        <ele>24.5</ele>
        <time>2016-07-05T11:28:52Z</time>
      </trkpt>
      <trkpt lat="48.65796" lon="-2.34991">
        <ele>22.6</ele>
        <time>2016-07-05T11:29:01Z</time>
      </trkpt>
      <trkpt lat="48.6579" lon="-2.3498">
        <ele>25.4</ele>
        <time>2016-07-05T11:29:09Z</time>
      </trkpt>
      <trkpt lat="48.65783" lon="-2.3497">
        <ele>25.9</ele>
        <time>2016-07-05T11:29:16Z</time>
      </trkpt>
      <trkpt lat="48.65777" lon="-2.34961">
        <ele>25.2</ele>
        <time>2016-07-05T11:29:24Z</time>
      </trkpt>
      <trkpt lat="48.65769" lon="-2.34953">
        <ele>24.6</ele>
        <time>2016-07-05T11:29:31Z</time>
      </trkpt>
      <trkpt lat="48.65763" lon="-2.3494">
        <ele>24.8</ele>
        <time>2016-07-05T11:29:40Z</time>
      </trkpt>
      <trkpt lat="48.65753" lon="-2.34937">
        <ele>25</ele>
        <time>2016-07-05T11:29:48Z</time>
      </trkpt>
      <trkpt lat="48.65746" lon="-2.34946">
        <ele>25.2</ele>
        <time>2016-07-05T11:29:56Z</time>
      </trkpt>
      <trkpt lat="48.6574" lon="-2.34957">
        <ele>25</ele>
        <time>2016-07-05T11:30:04Z</time>
      </trkpt>
      <trkpt lat="48.65734" lon="-2.34967">
        <ele>24.5</ele>
        <time>2016-07-05T11:30:12Z</time>
      </trkpt>
      <trkpt lat="48.65725" lon="-2.34976">
        <ele>25.3</ele>
        <time>2016-07-05T11:30:20Z</time>
      </trkpt>
      <trkpt lat="48.65718" lon="-2.34985">
        <ele>24.3</ele>
        <time>2016-07-05T11:30:27Z</time>
      </trkpt>
      <trkpt lat="48.6571" lon="-2.34992">
        <ele>23.9</ele>
        <time>2016-07-05T11:30:35Z</time>
      </trkpt>
      <trkpt lat="48.65702" lon="-2.34999">
        <ele>24.4</ele>
        <time>2016-07-05T11:30:43Z</time>
      </trkpt>
      <trkpt lat="48.65694" lon="-2.35006">
        <ele>24.1</ele>
        <time>2016-07-05T11:31:08Z</time>
      </trkpt>
      <trkpt lat="48.65686" lon="-2.35015">
        <ele>24.7</ele>
        <time>2016-07-05T11:31:24Z</time>
      </trkpt>
      <trkpt lat="48.6568" lon="-2.35028">
        <ele>24.1</ele>
        <time>2016-07-05T11:31:35Z</time>
      </trkpt>
      <trkpt lat="48.65672" lon="-2.35033">
        <ele>23.6</ele>
        <time>2016-07-05T11:31:46Z</time>
      </trkpt>
      <trkpt lat="48.65663" lon="-2.35038">
        <ele>23.3</ele>
        <time>2016-07-05T11:31:55Z</time>
      </trkpt>
      <trkpt lat="48.65655" lon="-2.35043">
        <ele>23</ele>
        <time>2016-07-05T11:32:06Z</time>
      </trkpt>
      <trkpt lat="48.65651" lon="-2.35057">
        <ele>23.3</ele>
        <time>2016-07-05T11:34:01Z</time>
      </trkpt>
      <trkpt lat="48.65653" lon="-2.35071">
        <ele>22.9</ele>
        <time>2016-07-05T11:34:08Z</time>
      </trkpt>
      <trkpt lat="48.65655" lon="-2.35085">
        <ele>21.8</ele>
        <time>2016-07-05T11:34:18Z</time>
      </trkpt>
      <trkpt lat="48.65654" lon="-2.35099">
        <ele>20.6</ele>
        <time>2016-07-05T11:34:27Z</time>
      </trkpt>
      <trkpt lat="48.65653" lon="-2.35114">
        <ele>19.4</ele>
        <time>2016-07-05T11:34:35Z</time>
      </trkpt>
      <trkpt lat="48.65653" lon="-2.35129">
        <ele>17.7</ele>
        <time>2016-07-05T11:34:44Z</time>
      </trkpt>
      <trkpt lat="48.65644" lon="-2.35137">
        <ele>16.8</ele>
        <time>2016-07-05T11:34:51Z</time>
      </trkpt>
      <trkpt lat="48.65636" lon="-2.35144">
        <ele>16.4</ele>
        <time>2016-07-05T11:34:59Z</time>
      </trkpt>
      <trkpt lat="48.65627" lon="-2.3515">
        <ele>16.7</ele>
        <time>2016-07-05T11:35:06Z</time>
      </trkpt>
      <trkpt lat="48.65618" lon="-2.35153">
        <ele>17.1</ele>
        <time>2016-07-05T11:35:15Z</time>
      </trkpt>
      <trkpt lat="48.65618" lon="-2.35168">
        <ele>17.3</ele>
        <time>2016-07-05T11:35:26Z</time>
      </trkpt>
      <trkpt lat="48.6561" lon="-2.35162">
        <ele>18.6</ele>
        <time>2016-07-05T11:36:06Z</time>
      </trkpt>
      <trkpt lat="48.656" lon="-2.35159">
        <ele>17.9</ele>
        <time>2016-07-05T11:36:15Z</time>
      </trkpt>
      <trkpt lat="48.65591" lon="-2.35162">
        <ele>17.2</ele>
        <time>2016-07-05T11:36:23Z</time>
      </trkpt>
      <trkpt lat="48.65579" lon="-2.35165">
        <ele>17.9</ele>
        <time>2016-07-05T11:36:30Z</time>
      </trkpt>
      <trkpt lat="48.6557" lon="-2.35169">
        <ele>18.3</ele>
        <time>2016-07-05T11:36:38Z</time>
      </trkpt>
      <trkpt lat="48.65561" lon="-2.35173">
        <ele>18.3</ele>
        <time>2016-07-05T11:36:46Z</time>
      </trkpt>
      <trkpt lat="48.65552" lon="-2.35181">
        <ele>18.8</ele>
        <time>2016-07-05T11:36:57Z</time>
      </trkpt>
      <trkpt lat="48.65543" lon="-2.35187">
        <ele>18.9</ele>
        <time>2016-07-05T11:37:05Z</time>
      </trkpt>
      <trkpt lat="48.65535" lon="-2.35198">
        <ele>20</ele>
        <time>2016-07-05T11:37:16Z</time>
      </trkpt>
      <trkpt lat="48.65526" lon="-2.35205">
        <ele>20.5</ele>
        <time>2016-07-05T11:37:24Z</time>
      </trkpt>
      <trkpt lat="48.65518" lon="-2.35212">
        <ele>20.9</ele>
        <time>2016-07-05T11:37:32Z</time>
      </trkpt>
      <trkpt lat="48.6551" lon="-2.35218">
        <ele>21.1</ele>
        <time>2016-07-05T11:37:40Z</time>
      </trkpt>
      <trkpt lat="48.65501" lon="-2.35224">
        <ele>20.4</ele>
        <time>2016-07-05T11:37:48Z</time>
      </trkpt>
      <trkpt lat="48.65492" lon="-2.3523">
        <ele>20.5</ele>
        <time>2016-07-05T11:38:01Z</time>
      </trkpt>
      <trkpt lat="48.65483" lon="-2.35231">
        <ele>21.1</ele>
        <time>2016-07-05T11:38:19Z</time>
      </trkpt>
      <trkpt lat="48.65476" lon="-2.35241">
        <ele>15.9</ele>
        <time>2016-07-05T11:38:27Z</time>
      </trkpt>
      <trkpt lat="48.65467" lon="-2.3525">
        <ele>21.3</ele>
        <time>2016-07-05T11:38:36Z</time>
      </trkpt>
      <trkpt lat="48.65459" lon="-2.35259">
        <ele>21.4</ele>
        <time>2016-07-05T11:38:45Z</time>
      </trkpt>
      <trkpt lat="48.65454" lon="-2.35271">
        <ele>21.2</ele>
        <time>2016-07-05T11:39:54Z</time>
      </trkpt>
      <trkpt lat="48.65447" lon="-2.3528">
        <ele>23.4</ele>
        <time>2016-07-05T11:40:03Z</time>
      </trkpt>
      <trkpt lat="48.65439" lon="-2.3529">
        <ele>21</ele>
        <time>2016-07-05T11:40:11Z</time>
      </trkpt>
      <trkpt lat="48.65431" lon="-2.35299">
        <ele>21.2</ele>
        <time>2016-07-05T11:40:19Z</time>
      </trkpt>
      <trkpt lat="48.65424" lon="-2.35309">
        <ele>21.2</ele>
        <time>2016-07-05T11:40:28Z</time>
      </trkpt>
      <trkpt lat="48.65416" lon="-2.35324">
        <ele>20.9</ele>
        <time>2016-07-05T11:40:35Z</time>
      </trkpt>
      <trkpt lat="48.65408" lon="-2.35332">
        <ele>21.6</ele>
        <time>2016-07-05T11:40:43Z</time>
      </trkpt>
      <trkpt lat="48.65399" lon="-2.35337">
        <ele>21.9</ele>
        <time>2016-07-05T11:40:52Z</time>
      </trkpt>
      <trkpt lat="48.65392" lon="-2.35346">
        <ele>22.6</ele>
        <time>2016-07-05T11:40:59Z</time>
      </trkpt>
      <trkpt lat="48.65386" lon="-2.35359">
        <ele>23</ele>
        <time>2016-07-05T11:41:08Z</time>
      </trkpt>
      <trkpt lat="48.65378" lon="-2.35368">
        <ele>24</ele>
        <time>2016-07-05T11:41:16Z</time>
      </trkpt>
      <trkpt lat="48.65371" lon="-2.35376">
        <ele>23.8</ele>
        <time>2016-07-05T11:41:24Z</time>
      </trkpt>
      <trkpt lat="48.65364" lon="-2.35388">
        <ele>24.3</ele>
        <time>2016-07-05T11:41:33Z</time>
      </trkpt>
      <trkpt lat="48.65356" lon="-2.35394">
        <ele>24.3</ele>
        <time>2016-07-05T11:41:40Z</time>
      </trkpt>
      <trkpt lat="48.65351" lon="-2.35407">
        <ele>24.8</ele>
        <time>2016-07-05T11:41:48Z</time>
      </trkpt>
      <trkpt lat="48.65344" lon="-2.35415">
        <ele>25.2</ele>
        <time>2016-07-05T11:41:56Z</time>
      </trkpt>
      <trkpt lat="48.65337" lon="-2.35425">
        <ele>25.8</ele>
        <time>2016-07-05T11:42:07Z</time>
      </trkpt>
      <trkpt lat="48.6533" lon="-2.35435">
        <ele>26.6</ele>
        <time>2016-07-05T11:42:14Z</time>
      </trkpt>
      <trkpt lat="48.65321" lon="-2.3544">
        <ele>27</ele>
        <time>2016-07-05T11:42:21Z</time>
      </trkpt>
      <trkpt lat="48.65311" lon="-2.35445">
        <ele>27.1</ele>
        <time>2016-07-05T11:42:30Z</time>
      </trkpt>
      <trkpt lat="48.65305" lon="-2.35458">
        <ele>27.5</ele>
        <time>2016-07-05T11:42:41Z</time>
      </trkpt>
      <trkpt lat="48.65295" lon="-2.35463">
        <ele>27.8</ele>
        <time>2016-07-05T11:42:48Z</time>
      </trkpt>
      <trkpt lat="48.65284" lon="-2.35466">
        <ele>28.2</ele>
        <time>2016-07-05T11:42:56Z</time>
      </trkpt>
      <trkpt lat="48.65277" lon="-2.35477">
        <ele>29</ele>
        <time>2016-07-05T11:43:05Z</time>
      </trkpt>
      <trkpt lat="48.65269" lon="-2.35486">
        <ele>29.5</ele>
        <time>2016-07-05T11:43:13Z</time>
      </trkpt>
      <trkpt lat="48.65262" lon="-2.35495">
        <ele>29.5</ele>
        <time>2016-07-05T11:43:18Z</time>
      </trkpt>
      <trkpt lat="48.65255" lon="-2.35504">
        <ele>30.4</ele>
        <time>2016-07-05T11:43:25Z</time>
      </trkpt>
      <trkpt lat="48.65248" lon="-2.35516">
        <ele>30.9</ele>
        <time>2016-07-05T11:43:30Z</time>
      </trkpt>
      <trkpt lat="48.65239" lon="-2.35524">
        <ele>31.2</ele>
        <time>2016-07-05T11:43:37Z</time>
      </trkpt>
      <trkpt lat="48.6523" lon="-2.3553">
        <ele>31.2</ele>
        <time>2016-07-05T11:43:45Z</time>
      </trkpt>
      <trkpt lat="48.65222" lon="-2.35537">
        <ele>31.7</ele>
        <time>2016-07-05T11:43:53Z</time>
      </trkpt>
      <trkpt lat="48.65212" lon="-2.35542">
        <ele>32.8</ele>
        <time>2016-07-05T11:44:05Z</time>
      </trkpt>
      <trkpt lat="48.65204" lon="-2.35548">
        <ele>34.3</ele>
        <time>2016-07-05T11:45:57Z</time>
      </trkpt>
      <trkpt lat="48.65195" lon="-2.35556">
        <ele>33.2</ele>
        <time>2016-07-05T11:46:05Z</time>
      </trkpt>
      <trkpt lat="48.65187" lon="-2.35566">
        <ele>33.5</ele>
        <time>2016-07-05T11:46:12Z</time>
      </trkpt>
      <trkpt lat="48.65183" lon="-2.35579">
        <ele>33.3</ele>
        <time>2016-07-05T11:46:22Z</time>
      </trkpt>
      <trkpt lat="48.65179" lon="-2.35593">
        <ele>34.3</ele>
        <time>2016-07-05T11:46:32Z</time>
      </trkpt>
      <trkpt lat="48.65172" lon="-2.35603">
        <ele>34.7</ele>
        <time>2016-07-05T11:46:40Z</time>
      </trkpt>
      <trkpt lat="48.65165" lon="-2.35611">
        <ele>34.8</ele>
        <time>2016-07-05T11:46:47Z</time>
      </trkpt>
      <trkpt lat="48.65158" lon="-2.35622">
        <ele>34.9</ele>
        <time>2016-07-05T11:46:54Z</time>
      </trkpt>
      <trkpt lat="48.65154" lon="-2.35635">
        <ele>35.3</ele>
        <time>2016-07-05T11:47:03Z</time>
      </trkpt>
      <trkpt lat="48.65152" lon="-2.35649">
        <ele>35.2</ele>
        <time>2016-07-05T11:47:11Z</time>
      </trkpt>
      <trkpt lat="48.65148" lon="-2.35662">
        <ele>36</ele>
        <time>2016-07-05T11:47:20Z</time>
      </trkpt>
      <trkpt lat="48.65143" lon="-2.35674">
        <ele>35.9</ele>
        <time>2016-07-05T11:47:28Z</time>
      </trkpt>
      <trkpt lat="48.65139" lon="-2.35688">
        <ele>36</ele>
        <time>2016-07-05T11:47:36Z</time>
      </trkpt>
      <trkpt lat="48.65137" lon="-2.35701">
        <ele>36.5</ele>
        <time>2016-07-05T11:47:43Z</time>
      </trkpt>
      <trkpt lat="48.65135" lon="-2.35715">
        <ele>36.2</ele>
        <time>2016-07-05T11:47:51Z</time>
      </trkpt>
      <trkpt lat="48.65134" lon="-2.35729">
        <ele>36.7</ele>
        <time>2016-07-05T11:47:59Z</time>
      </trkpt>
      <trkpt lat="48.65133" lon="-2.35743">
        <ele>37.3</ele>
        <time>2016-07-05T11:48:08Z</time>
      </trkpt>
      <trkpt lat="48.65135" lon="-2.35759">
        <ele>37.7</ele>
        <time>2016-07-05T11:48:17Z</time>
      </trkpt>
      <trkpt lat="48.65131" lon="-2.35773">
        <ele>36.3</ele>
        <time>2016-07-05T11:48:25Z</time>
      </trkpt>
      <trkpt lat="48.65131" lon="-2.35787">
        <ele>41</ele>
        <time>2016-07-05T11:48:34Z</time>
      </trkpt>
      <trkpt lat="48.65133" lon="-2.35802">
        <ele>39.1</ele>
        <time>2016-07-05T11:49:00Z</time>
      </trkpt>
      <trkpt lat="48.65135" lon="-2.35816">
        <ele>39.6</ele>
        <time>2016-07-05T11:49:08Z</time>
      </trkpt>
      <trkpt lat="48.65138" lon="-2.35829">
        <ele>40.2</ele>
        <time>2016-07-05T11:49:16Z</time>
      </trkpt>
      <trkpt lat="48.65141" lon="-2.35843">
        <ele>40.3</ele>
        <time>2016-07-05T11:49:24Z</time>
      </trkpt>
      <trkpt lat="48.65144" lon="-2.35857">
        <ele>41.5</ele>
        <time>2016-07-05T11:49:33Z</time>
      </trkpt>
      <trkpt lat="48.65148" lon="-2.35871">
        <ele>41.3</ele>
        <time>2016-07-05T11:49:40Z</time>
      </trkpt>
      <trkpt lat="48.65152" lon="-2.35885">
        <ele>42.5</ele>
        <time>2016-07-05T11:49:48Z</time>
      </trkpt>
      <trkpt lat="48.65154" lon="-2.35899">
        <ele>43.1</ele>
        <time>2016-07-05T11:49:56Z</time>
      </trkpt>
      <trkpt lat="48.65157" lon="-2.35912">
        <ele>42.7</ele>
        <time>2016-07-05T11:50:04Z</time>
      </trkpt>
      <trkpt lat="48.65159" lon="-2.35926">
        <ele>43.6</ele>
        <time>2016-07-05T11:50:13Z</time>
      </trkpt>
      <trkpt lat="48.6516" lon="-2.3594">
        <ele>44.5</ele>
        <time>2016-07-05T11:50:22Z</time>
      </trkpt>
      <trkpt lat="48.65153" lon="-2.35949">
        <ele>45.2</ele>
        <time>2016-07-05T11:50:54Z</time>
      </trkpt>
      <trkpt lat="48.65159" lon="-2.35961">
        <ele>45</ele>
        <time>2016-07-05T11:51:01Z</time>
      </trkpt>
      <trkpt lat="48.6516" lon="-2.35975">
        <ele>46.1</ele>
        <time>2016-07-05T11:51:08Z</time>
      </trkpt>
      <trkpt lat="48.65162" lon="-2.35989">
        <ele>47</ele>
        <time>2016-07-05T11:51:16Z</time>
      </trkpt>
      <trkpt lat="48.65163" lon="-2.36003">
        <ele>46.6</ele>
        <time>2016-07-05T11:51:24Z</time>
      </trkpt>
      <trkpt lat="48.65166" lon="-2.36016">
        <ele>47.5</ele>
        <time>2016-07-05T11:51:32Z</time>
      </trkpt>
      <trkpt lat="48.65167" lon="-2.3603">
        <ele>48</ele>
        <time>2016-07-05T11:51:40Z</time>
      </trkpt>
      <trkpt lat="48.65168" lon="-2.36044">
        <ele>48.7</ele>
        <time>2016-07-05T11:51:48Z</time>
      </trkpt>
      <trkpt lat="48.6517" lon="-2.36059">
        <ele>49.1</ele>
        <time>2016-07-05T11:51:56Z</time>
      </trkpt>
      <trkpt lat="48.65173" lon="-2.36073">
        <ele>48.7</ele>
        <time>2016-07-05T11:52:04Z</time>
      </trkpt>
      <trkpt lat="48.65176" lon="-2.36086">
        <ele>49.7</ele>
        <time>2016-07-05T11:52:12Z</time>
      </trkpt>
      <trkpt lat="48.65179" lon="-2.361">
        <ele>49.3</ele>
        <time>2016-07-05T11:52:19Z</time>
      </trkpt>
      <trkpt lat="48.65183" lon="-2.36113">
        <ele>50.2</ele>
        <time>2016-07-05T11:52:26Z</time>
      </trkpt>
      <trkpt lat="48.65188" lon="-2.36125">
        <ele>49.8</ele>
        <time>2016-07-05T11:52:34Z</time>
      </trkpt>
      <trkpt lat="48.65191" lon="-2.36139">
        <ele>50.4</ele>
        <time>2016-07-05T11:52:42Z</time>
      </trkpt>
      <trkpt lat="48.65195" lon="-2.36152">
        <ele>50.1</ele>
        <time>2016-07-05T11:52:50Z</time>
      </trkpt>
      <trkpt lat="48.65199" lon="-2.36165">
        <ele>50.4</ele>
        <time>2016-07-05T11:52:57Z</time>
      </trkpt>
      <trkpt lat="48.65203" lon="-2.36179">
        <ele>50.8</ele>
        <time>2016-07-05T11:53:06Z</time>
      </trkpt>
      <trkpt lat="48.65205" lon="-2.36193">
        <ele>49.8</ele>
        <time>2016-07-05T11:53:15Z</time>
      </trkpt>
      <trkpt lat="48.65208" lon="-2.36207">
        <ele>50.5</ele>
        <time>2016-07-05T11:53:23Z</time>
      </trkpt>
      <trkpt lat="48.65213" lon="-2.36218">
        <ele>49.2</ele>
        <time>2016-07-05T11:53:47Z</time>
      </trkpt>
      <trkpt lat="48.65216" lon="-2.36232">
        <ele>49.1</ele>
        <time>2016-07-05T11:53:54Z</time>
      </trkpt>
      <trkpt lat="48.65219" lon="-2.36246">
        <ele>49.3</ele>
        <time>2016-07-05T11:54:03Z</time>
      </trkpt>
      <trkpt lat="48.65224" lon="-2.36258">
        <ele>49.6</ele>
        <time>2016-07-05T11:54:10Z</time>
      </trkpt>
      <trkpt lat="48.65227" lon="-2.36273">
        <ele>49.4</ele>
        <time>2016-07-05T11:54:18Z</time>
      </trkpt>
      <trkpt lat="48.65231" lon="-2.36286">
        <ele>49.2</ele>
        <time>2016-07-05T11:54:25Z</time>
      </trkpt>
      <trkpt lat="48.65234" lon="-2.363">
        <ele>48.7</ele>
        <time>2016-07-05T11:54:33Z</time>
      </trkpt>
      <trkpt lat="48.6524" lon="-2.36314">
        <ele>47.9</ele>
        <time>2016-07-05T11:54:41Z</time>
      </trkpt>
      <trkpt lat="48.65244" lon="-2.36326">
        <ele>47.2</ele>
        <time>2016-07-05T11:54:49Z</time>
      </trkpt>
      <trkpt lat="48.65248" lon="-2.3634">
        <ele>47.4</ele>
        <time>2016-07-05T11:54:57Z</time>
      </trkpt>
      <trkpt lat="48.65252" lon="-2.36354">
        <ele>47.3</ele>
        <time>2016-07-05T11:55:05Z</time>
      </trkpt>
      <trkpt lat="48.65258" lon="-2.36366">
        <ele>47</ele>
        <time>2016-07-05T11:55:12Z</time>
      </trkpt>
      <trkpt lat="48.65263" lon="-2.36378">
        <ele>45.8</ele>
        <time>2016-07-05T11:55:19Z</time>
      </trkpt>
      <trkpt lat="48.65267" lon="-2.36392">
        <ele>45.9</ele>
        <time>2016-07-05T11:55:28Z</time>
      </trkpt>
      <trkpt lat="48.65273" lon="-2.36403">
        <ele>45.9</ele>
        <time>2016-07-05T11:55:35Z</time>
      </trkpt>
      <trkpt lat="48.65277" lon="-2.36417">
        <ele>45.1</ele>
        <time>2016-07-05T11:55:43Z</time>
      </trkpt>
      <trkpt lat="48.6528" lon="-2.36432">
        <ele>44.5</ele>
        <time>2016-07-05T11:55:52Z</time>
      </trkpt>
      <trkpt lat="48.65285" lon="-2.36445">
        <ele>43.8</ele>
        <time>2016-07-05T11:56:00Z</time>
      </trkpt>
      <trkpt lat="48.65291" lon="-2.36457">
        <ele>35.3</ele>
        <time>2016-07-05T11:56:08Z</time>
      </trkpt>
      <trkpt lat="48.65295" lon="-2.36471">
        <ele>44.2</ele>
        <time>2016-07-05T11:56:16Z</time>
      </trkpt>
      <trkpt lat="48.65298" lon="-2.36484">
        <ele>44.5</ele>
        <time>2016-07-05T11:56:25Z</time>
      </trkpt>
      <trkpt lat="48.65303" lon="-2.36496">
        <ele>44</ele>
        <time>2016-07-05T11:56:32Z</time>
      </trkpt>
      <trkpt lat="48.65308" lon="-2.36508">
        <ele>43.5</ele>
        <time>2016-07-05T11:56:43Z</time>
      </trkpt>
      <trkpt lat="48.65313" lon="-2.36519">
        <ele>42.7</ele>
        <time>2016-07-05T11:56:50Z</time>
      </trkpt>
      <trkpt lat="48.65318" lon="-2.36532">
        <ele>42.5</ele>
        <time>2016-07-05T11:56:58Z</time>
      </trkpt>
      <trkpt lat="48.65321" lon="-2.36545">
        <ele>42.1</ele>
        <time>2016-07-05T11:57:05Z</time>
      </trkpt>
      <trkpt lat="48.65327" lon="-2.36559">
        <ele>42</ele>
        <time>2016-07-05T11:57:13Z</time>
      </trkpt>
      <trkpt lat="48.65331" lon="-2.36572">
        <ele>42.1</ele>
        <time>2016-07-05T11:57:22Z</time>
      </trkpt>
      <trkpt lat="48.65336" lon="-2.36584">
        <ele>42.2</ele>
        <time>2016-07-05T11:57:29Z</time>
      </trkpt>
      <trkpt lat="48.65341" lon="-2.36597">
        <ele>41.7</ele>
        <time>2016-07-05T11:57:37Z</time>
      </trkpt>
      <trkpt lat="48.65345" lon="-2.3661">
        <ele>41.6</ele>
        <time>2016-07-05T11:57:45Z</time>
      </trkpt>
      <trkpt lat="48.65354" lon="-2.36615">
        <ele>41.3</ele>
        <time>2016-07-05T11:57:54Z</time>
      </trkpt>
      <trkpt lat="48.6536" lon="-2.36628">
        <ele>40.7</ele>
        <time>2016-07-05T11:58:04Z</time>
      </trkpt>
      <trkpt lat="48.65366" lon="-2.3664">
        <ele>41.4</ele>
        <time>2016-07-05T11:58:21Z</time>
      </trkpt>
      <trkpt lat="48.65372" lon="-2.36649">
        <ele>41.1</ele>
        <time>2016-07-05T11:58:29Z</time>
      </trkpt>
      <trkpt lat="48.65379" lon="-2.36658">
        <ele>40.3</ele>
        <time>2016-07-05T11:58:38Z</time>
      </trkpt>
      <trkpt lat="48.65387" lon="-2.36667">
        <ele>40.1</ele>
        <time>2016-07-05T11:58:45Z</time>
      </trkpt>
      <trkpt lat="48.65394" lon="-2.36675">
        <ele>39.8</ele>
        <time>2016-07-05T11:58:53Z</time>
      </trkpt>
      <trkpt lat="48.65403" lon="-2.36679">
        <ele>39</ele>
        <time>2016-07-05T11:59:01Z</time>
      </trkpt>
      <trkpt lat="48.65412" lon="-2.36684">
        <ele>38.7</ele>
        <time>2016-07-05T11:59:08Z</time>
      </trkpt>
      <trkpt lat="48.65422" lon="-2.36685">
        <ele>37.9</ele>
        <time>2016-07-05T11:59:16Z</time>
      </trkpt>
      <trkpt lat="48.65431" lon="-2.36687">
        <ele>37.5</ele>
        <time>2016-07-05T11:59:24Z</time>
      </trkpt>
      <trkpt lat="48.6544" lon="-2.36687">
        <ele>36.8</ele>
        <time>2016-07-05T11:59:33Z</time>
      </trkpt>
      <trkpt lat="48.6545" lon="-2.36689">
        <ele>36.8</ele>
        <time>2016-07-05T11:59:39Z</time>
      </trkpt>
      <trkpt lat="48.65459" lon="-2.36691">
        <ele>36.3</ele>
        <time>2016-07-05T11:59:46Z</time>
      </trkpt>
      <trkpt lat="48.65468" lon="-2.36694">
        <ele>36.6</ele>
        <time>2016-07-05T11:59:54Z</time>
      </trkpt>
      <trkpt lat="48.65477" lon="-2.36696">
        <ele>36.1</ele>
        <time>2016-07-05T12:00:04Z</time>
      </trkpt>
      <trkpt lat="48.65487" lon="-2.36699">
        <ele>36.6</ele>
        <time>2016-07-05T12:00:12Z</time>
      </trkpt>
      <trkpt lat="48.65497" lon="-2.36703">
        <ele>36.6</ele>
        <time>2016-07-05T12:00:20Z</time>
      </trkpt>
      <trkpt lat="48.65506" lon="-2.36709">
        <ele>36.9</ele>
        <time>2016-07-05T12:00:27Z</time>
      </trkpt>
      <trkpt lat="48.65514" lon="-2.36712">
        <ele>37.7</ele>
        <time>2016-07-05T12:00:33Z</time>
      </trkpt>
      <trkpt lat="48.65524" lon="-2.36714">
        <ele>36.9</ele>
        <time>2016-07-05T12:00:41Z</time>
      </trkpt>
      <trkpt lat="48.65533" lon="-2.3672">
        <ele>37.6</ele>
        <time>2016-07-05T12:00:49Z</time>
      </trkpt>
      <trkpt lat="48.65541" lon="-2.36728">
        <ele>37.9</ele>
        <time>2016-07-05T12:00:56Z</time>
      </trkpt>
      <trkpt lat="48.65551" lon="-2.36729">
        <ele>37.8</ele>
        <time>2016-07-05T12:01:05Z</time>
      </trkpt>
      <trkpt lat="48.65561" lon="-2.36727">
        <ele>39.3</ele>
        <time>2016-07-05T12:01:14Z</time>
      </trkpt>
      <trkpt lat="48.65568" lon="-2.36736">
        <ele>39.7</ele>
        <time>2016-07-05T12:01:24Z</time>
      </trkpt>
      <trkpt lat="48.65572" lon="-2.36749">
        <ele>39.7</ele>
        <time>2016-07-05T12:02:30Z</time>
      </trkpt>
      <trkpt lat="48.65578" lon="-2.36761">
        <ele>39.3</ele>
        <time>2016-07-05T12:02:42Z</time>
      </trkpt>
      <trkpt lat="48.65581" lon="-2.36775">
        <ele>39.3</ele>
        <time>2016-07-05T12:02:52Z</time>
      </trkpt>
      <trkpt lat="48.65586" lon="-2.36788">
        <ele>41.1</ele>
        <time>2016-07-05T12:03:19Z</time>
      </trkpt>
      <trkpt lat="48.65591" lon="-2.36801">
        <ele>40.2</ele>
        <time>2016-07-05T12:03:28Z</time>
      </trkpt>
      <trkpt lat="48.65596" lon="-2.36813">
        <ele>40.4</ele>
        <time>2016-07-05T12:03:37Z</time>
      </trkpt>
      <trkpt lat="48.65598" lon="-2.36827">
        <ele>39.7</ele>
        <time>2016-07-05T12:03:46Z</time>
      </trkpt>
      <trkpt lat="48.65603" lon="-2.3684">
        <ele>39.7</ele>
        <time>2016-07-05T12:03:56Z</time>
      </trkpt>
      <trkpt lat="48.6561" lon="-2.36848">
        <ele>39.2</ele>
        <time>2016-07-05T12:04:05Z</time>
      </trkpt>
      <trkpt lat="48.65619" lon="-2.36854">
        <ele>39.3</ele>
        <time>2016-07-05T12:04:13Z</time>
      </trkpt>
      <trkpt lat="48.65627" lon="-2.3686">
        <ele>39.1</ele>
        <time>2016-07-05T12:04:33Z</time>
      </trkpt>
      <trkpt lat="48.65635" lon="-2.36866">
        <ele>38.7</ele>
        <time>2016-07-05T12:04:41Z</time>
      </trkpt>
      <trkpt lat="48.65644" lon="-2.36872">
        <ele>37.6</ele>
        <time>2016-07-05T12:04:49Z</time>
      </trkpt>
      <trkpt lat="48.65652" lon="-2.36876">
        <ele>36.5</ele>
        <time>2016-07-05T12:04:58Z</time>
      </trkpt>
      <trkpt lat="48.65662" lon="-2.36879">
        <ele>36.2</ele>
        <time>2016-07-05T12:05:07Z</time>
      </trkpt>
      <trkpt lat="48.65672" lon="-2.36884">
        <ele>35.3</ele>
        <time>2016-07-05T12:05:15Z</time>
      </trkpt>
      <trkpt lat="48.6568" lon="-2.36889">
        <ele>35.7</ele>
        <time>2016-07-05T12:05:26Z</time>
      </trkpt>
      <trkpt lat="48.65688" lon="-2.36881">
        <ele>36.8</ele>
        <time>2016-07-05T12:06:45Z</time>
      </trkpt>
      <trkpt lat="48.65693" lon="-2.36892">
        <ele>36.5</ele>
        <time>2016-07-05T12:07:24Z</time>
      </trkpt>
      <trkpt lat="48.657" lon="-2.36901">
        <ele>37.1</ele>
        <time>2016-07-05T12:07:48Z</time>
      </trkpt>
      <trkpt lat="48.65709" lon="-2.36903">
        <ele>38.5</ele>
        <time>2016-07-05T12:08:05Z</time>
      </trkpt>
      <trkpt lat="48.65719" lon="-2.36906">
        <ele>38.4</ele>
        <time>2016-07-05T12:08:14Z</time>
      </trkpt>
      <trkpt lat="48.65728" lon="-2.36911">
        <ele>39.5</ele>
        <time>2016-07-05T12:08:24Z</time>
      </trkpt>
      <trkpt lat="48.65737" lon="-2.36915">
        <ele>40</ele>
        <time>2016-07-05T12:08:55Z</time>
      </trkpt>
      <trkpt lat="48.6574" lon="-2.3693">
        <ele>38.1</ele>
        <time>2016-07-05T12:09:11Z</time>
      </trkpt>
      <trkpt lat="48.65743" lon="-2.36943">
        <ele>35.3</ele>
        <time>2016-07-05T12:09:26Z</time>
      </trkpt>
      <trkpt lat="48.65746" lon="-2.36958">
        <ele>34</ele>
        <time>2016-07-05T12:09:38Z</time>
      </trkpt>
      <trkpt lat="48.65745" lon="-2.36944">
        <ele>33.4</ele>
        <time>2016-07-05T12:10:35Z</time>
      </trkpt>
      <trkpt lat="48.65741" lon="-2.36931">
        <ele>35.3</ele>
        <time>2016-07-05T12:10:58Z</time>
      </trkpt>
      <trkpt lat="48.65734" lon="-2.36922">
        <ele>37.1</ele>
        <time>2016-07-05T12:11:15Z</time>
      </trkpt>
      <trkpt lat="48.65726" lon="-2.36915">
        <ele>37.8</ele>
        <time>2016-07-05T12:11:24Z</time>
      </trkpt>
      <trkpt lat="48.65721" lon="-2.36903">
        <ele>38.1</ele>
        <time>2016-07-05T12:11:32Z</time>
      </trkpt>
      <trkpt lat="48.65712" lon="-2.36901">
        <ele>38.1</ele>
        <time>2016-07-05T12:11:40Z</time>
      </trkpt>
      <trkpt lat="48.65702" lon="-2.369">
        <ele>37.3</ele>
        <time>2016-07-05T12:11:49Z</time>
      </trkpt>
      <trkpt lat="48.65694" lon="-2.36891">
        <ele>36.5</ele>
        <time>2016-07-05T12:11:57Z</time>
      </trkpt>
      <trkpt lat="48.65687" lon="-2.36884">
        <ele>35.9</ele>
        <time>2016-07-05T12:12:14Z</time>
      </trkpt>
      <trkpt lat="48.65678" lon="-2.36888">
        <ele>35.3</ele>
        <time>2016-07-05T12:12:49Z</time>
      </trkpt>
      <trkpt lat="48.65668" lon="-2.36892">
        <ele>35.3</ele>
        <time>2016-07-05T12:12:58Z</time>
      </trkpt>
      <trkpt lat="48.65659" lon="-2.36896">
        <ele>35.3</ele>
        <time>2016-07-05T12:13:07Z</time>
      </trkpt>
      <trkpt lat="48.6565" lon="-2.36901">
        <ele>35.3</ele>
        <time>2016-07-05T12:13:16Z</time>
      </trkpt>
      <trkpt lat="48.65642" lon="-2.36906">
        <ele>27.4</ele>
        <time>2016-07-05T12:13:25Z</time>
      </trkpt>
      <trkpt lat="48.65633" lon="-2.36911">
        <ele>38.9</ele>
        <time>2016-07-05T12:13:34Z</time>
      </trkpt>
      <trkpt lat="48.65623" lon="-2.36912">
        <ele>32.3</ele>
        <time>2016-07-05T12:13:43Z</time>
      </trkpt>
      <trkpt lat="48.65613" lon="-2.36911">
        <ele>40.3</ele>
        <time>2016-07-05T12:13:52Z</time>
      </trkpt>
      <trkpt lat="48.65605" lon="-2.36917">
        <ele>33.6</ele>
        <time>2016-07-05T12:14:03Z</time>
      </trkpt>
      <trkpt lat="48.65597" lon="-2.36925">
        <ele>38.5</ele>
        <time>2016-07-05T12:14:12Z</time>
      </trkpt>
      <trkpt lat="48.6559" lon="-2.36934">
        <ele>36.5</ele>
        <time>2016-07-05T12:14:21Z</time>
      </trkpt>
      <trkpt lat="48.65582" lon="-2.36939">
        <ele>35.8</ele>
        <time>2016-07-05T12:14:28Z</time>
      </trkpt>
      <trkpt lat="48.65573" lon="-2.36945">
        <ele>35.8</ele>
        <time>2016-07-05T12:14:38Z</time>
      </trkpt>
      <trkpt lat="48.65569" lon="-2.36957">
        <ele>32.7</ele>
        <time>2016-07-05T12:14:51Z</time>
      </trkpt>
      <trkpt lat="48.65566" lon="-2.3697">
        <ele>32.3</ele>
        <time>2016-07-05T12:14:59Z</time>
      </trkpt>
      <trkpt lat="48.65563" lon="-2.36983">
        <ele>32.3</ele>
        <time>2016-07-05T12:15:16Z</time>
      </trkpt>
      <trkpt lat="48.6556" lon="-2.36997">
        <ele>32.6</ele>
        <time>2016-07-05T12:15:22Z</time>
      </trkpt>
      <trkpt lat="48.65559" lon="-2.37012">
        <ele>33.1</ele>
        <time>2016-07-05T12:15:28Z</time>
      </trkpt>
      <trkpt lat="48.65561" lon="-2.37026">
        <ele>33.9</ele>
        <time>2016-07-05T12:15:35Z</time>
      </trkpt>
      <trkpt lat="48.65564" lon="-2.37039">
        <ele>32.9</ele>
        <time>2016-07-05T12:15:45Z</time>
      </trkpt>
      <trkpt lat="48.65567" lon="-2.37054">
        <ele>32.7</ele>
        <time>2016-07-05T12:15:54Z</time>
      </trkpt>
      <trkpt lat="48.65567" lon="-2.3707">
        <ele>32.7</ele>
        <time>2016-07-05T12:16:02Z</time>
      </trkpt>
      <trkpt lat="48.65566" lon="-2.37085">
        <ele>33.3</ele>
        <time>2016-07-05T12:16:08Z</time>
      </trkpt>
      <trkpt lat="48.65569" lon="-2.37099">
        <ele>32.9</ele>
        <time>2016-07-05T12:16:16Z</time>
      </trkpt>
      <trkpt lat="48.65571" lon="-2.37114">
        <ele>32.2</ele>
        <time>2016-07-05T12:16:25Z</time>
      </trkpt>
      <trkpt lat="48.65569" lon="-2.3713">
        <ele>32.6</ele>
        <time>2016-07-05T12:16:32Z</time>
      </trkpt>
      <trkpt lat="48.65571" lon="-2.37145">
        <ele>33.2</ele>
        <time>2016-07-05T12:16:42Z</time>
      </trkpt>
      <trkpt lat="48.65568" lon="-2.37159">
        <ele>33.1</ele>
        <time>2016-07-05T12:16:51Z</time>
      </trkpt>
      <trkpt lat="48.65564" lon="-2.37171">
        <ele>33</ele>
        <time>2016-07-05T12:16:59Z</time>
      </trkpt>
      <trkpt lat="48.65557" lon="-2.37182">
        <ele>34</ele>
        <time>2016-07-05T12:17:08Z</time>
      </trkpt>
      <trkpt lat="48.65551" lon="-2.37192">
        <ele>33.3</ele>
        <time>2016-07-05T12:17:16Z</time>
      </trkpt>
      <trkpt lat="48.65545" lon="-2.37203">
        <ele>35</ele>
        <time>2016-07-05T12:17:24Z</time>
      </trkpt>
      <trkpt lat="48.65539" lon="-2.37215">
        <ele>34.6</ele>
        <time>2016-07-05T12:17:32Z</time>
      </trkpt>
      <trkpt lat="48.65531" lon="-2.37224">
        <ele>35.2</ele>
        <time>2016-07-05T12:17:41Z</time>
      </trkpt>
      <trkpt lat="48.65525" lon="-2.37233">
        <ele>35.2</ele>
        <time>2016-07-05T12:17:49Z</time>
      </trkpt>
      <trkpt lat="48.65516" lon="-2.37241">
        <ele>35.7</ele>
        <time>2016-07-05T12:17:56Z</time>
      </trkpt>
      <trkpt lat="48.65507" lon="-2.37245">
        <ele>36.6</ele>
        <time>2016-07-05T12:18:04Z</time>
      </trkpt>
      <trkpt lat="48.65497" lon="-2.37241">
        <ele>37.6</ele>
        <time>2016-07-05T12:18:14Z</time>
      </trkpt>
      <trkpt lat="48.65487" lon="-2.37241">
        <ele>39</ele>
        <time>2016-07-05T12:18:28Z</time>
      </trkpt>
      <trkpt lat="48.65477" lon="-2.37237">
        <ele>39.7</ele>
        <time>2016-07-05T12:18:37Z</time>
      </trkpt>
      <trkpt lat="48.65468" lon="-2.37239">
        <ele>41.4</ele>
        <time>2016-07-05T12:19:11Z</time>
      </trkpt>
      <trkpt lat="48.65459" lon="-2.37243">
        <ele>41.2</ele>
        <time>2016-07-05T12:19:32Z</time>
      </trkpt>
      <trkpt lat="48.6545" lon="-2.37248">
        <ele>41.6</ele>
        <time>2016-07-05T12:19:40Z</time>
      </trkpt>
      <trkpt lat="48.65441" lon="-2.37254">
        <ele>41.8</ele>
        <time>2016-07-05T12:19:48Z</time>
      </trkpt>
      <trkpt lat="48.65431" lon="-2.37256">
        <ele>41</ele>
        <time>2016-07-05T12:19:58Z</time>
      </trkpt>
      <trkpt lat="48.65421" lon="-2.37255">
        <ele>39</ele>
        <time>2016-07-05T12:20:08Z</time>
      </trkpt>
      <trkpt lat="48.65413" lon="-2.37248">
        <ele>39.6</ele>
        <time>2016-07-05T12:20:16Z</time>
      </trkpt>
      <trkpt lat="48.65404" lon="-2.37249">
        <ele>36.5</ele>
        <time>2016-07-05T12:20:32Z</time>
      </trkpt>
      <trkpt lat="48.65395" lon="-2.37256">
        <ele>37</ele>
        <time>2016-07-05T12:20:42Z</time>
      </trkpt>
      <trkpt lat="48.65386" lon="-2.37261">
        <ele>35.3</ele>
        <time>2016-07-05T12:20:52Z</time>
      </trkpt>
      <trkpt lat="48.65377" lon="-2.37253">
        <ele>35.2</ele>
        <time>2016-07-05T12:21:00Z</time>
      </trkpt>
      <trkpt lat="48.65367" lon="-2.37254">
        <ele>34.4</ele>
        <time>2016-07-05T12:21:12Z</time>
      </trkpt>
      <trkpt lat="48.65358" lon="-2.37257">
        <ele>33.7</ele>
        <time>2016-07-05T12:21:20Z</time>
      </trkpt>
      <trkpt lat="48.65349" lon="-2.37253">
        <ele>32.5</ele>
        <time>2016-07-05T12:21:31Z</time>
      </trkpt>
      <trkpt lat="48.6534" lon="-2.37251">
        <ele>29.9</ele>
        <time>2016-07-05T12:21:48Z</time>
      </trkpt>
      <trkpt lat="48.65333" lon="-2.3726">
        <ele>28.9</ele>
        <time>2016-07-05T12:22:03Z</time>
      </trkpt>
      <trkpt lat="48.65329" lon="-2.37273">
        <ele>28</ele>
        <time>2016-07-05T12:22:13Z</time>
      </trkpt>
      <trkpt lat="48.65322" lon="-2.37282">
        <ele>26.2</ele>
        <time>2016-07-05T12:22:23Z</time>
      </trkpt>
      <trkpt lat="48.65311" lon="-2.3728">
        <ele>23.7</ele>
        <time>2016-07-05T12:22:49Z</time>
      </trkpt>
      <trkpt lat="48.65303" lon="-2.37286">
        <ele>21</ele>
        <time>2016-07-05T12:23:01Z</time>
      </trkpt>
      <trkpt lat="48.65293" lon="-2.37287">
        <ele>20.7</ele>
        <time>2016-07-05T12:23:07Z</time>
      </trkpt>
      <trkpt lat="48.65284" lon="-2.37285">
        <ele>19.5</ele>
        <time>2016-07-05T12:23:21Z</time>
      </trkpt>
      <trkpt lat="48.65277" lon="-2.37296">
        <ele>18.2</ele>
        <time>2016-07-05T12:23:51Z</time>
      </trkpt>
      <trkpt lat="48.65271" lon="-2.37308">
        <ele>17.2</ele>
        <time>2016-07-05T12:23:59Z</time>
      </trkpt>
      <trkpt lat="48.65265" lon="-2.37318">
        <ele>16.5</ele>
        <time>2016-07-05T12:24:06Z</time>
      </trkpt>
      <trkpt lat="48.65257" lon="-2.37329">
        <ele>16.2</ele>
        <time>2016-07-05T12:24:15Z</time>
      </trkpt>
      <trkpt lat="48.6525" lon="-2.3734">
        <ele>15.7</ele>
        <time>2016-07-05T12:24:23Z</time>
      </trkpt>
      <trkpt lat="48.65242" lon="-2.37348">
        <ele>16.1</ele>
        <time>2016-07-05T12:24:32Z</time>
      </trkpt>
      <trkpt lat="48.65233" lon="-2.37355">
        <ele>17</ele>
        <time>2016-07-05T12:24:39Z</time>
      </trkpt>
      <trkpt lat="48.65225" lon="-2.37363">
        <ele>17.5</ele>
        <time>2016-07-05T12:24:48Z</time>
      </trkpt>
      <trkpt lat="48.65216" lon="-2.37367">
        <ele>17.7</ele>
        <time>2016-07-05T12:24:57Z</time>
      </trkpt>
      <trkpt lat="48.65206" lon="-2.37369">
        <ele>18.7</ele>
        <time>2016-07-05T12:25:06Z</time>
      </trkpt>
      <trkpt lat="48.65196" lon="-2.37369">
        <ele>20.6</ele>
        <time>2016-07-05T12:25:41Z</time>
      </trkpt>
      <trkpt lat="48.65187" lon="-2.37368">
        <ele>21</ele>
        <time>2016-07-05T12:25:51Z</time>
      </trkpt>
      <trkpt lat="48.65178" lon="-2.37367">
        <ele>21.4</ele>
        <time>2016-07-05T12:25:59Z</time>
      </trkpt>
      <trkpt lat="48.65168" lon="-2.37363">
        <ele>22.9</ele>
        <time>2016-07-05T12:26:09Z</time>
      </trkpt>
      <trkpt lat="48.65159" lon="-2.37359">
        <ele>23.9</ele>
        <time>2016-07-05T12:26:18Z</time>
      </trkpt>
      <trkpt lat="48.65149" lon="-2.37356">
        <ele>24.6</ele>
        <time>2016-07-05T12:26:27Z</time>
      </trkpt>
      <trkpt lat="48.65148" lon="-2.3737">
        <ele>27.1</ele>
        <time>2016-07-05T12:26:52Z</time>
      </trkpt>
      <trkpt lat="48.65147" lon="-2.37384">
        <ele>27.2</ele>
        <time>2016-07-05T12:27:03Z</time>
      </trkpt>
      <trkpt lat="48.6515" lon="-2.37397">
        <ele>25.6</ele>
        <time>2016-07-05T12:27:35Z</time>
      </trkpt>
      <trkpt lat="48.65144" lon="-2.3741">
        <ele>26.9</ele>
        <time>2016-07-05T12:27:41Z</time>
      </trkpt>
      <trkpt lat="48.65138" lon="-2.37421">
        <ele>27.1</ele>
        <time>2016-07-05T12:27:45Z</time>
      </trkpt>
      <trkpt lat="48.65136" lon="-2.37435">
        <ele>28.5</ele>
        <time>2016-07-05T12:27:55Z</time>
      </trkpt>
      <trkpt lat="48.65133" lon="-2.37449">
        <ele>34</ele>
        <time>2016-07-05T12:29:42Z</time>
      </trkpt>
      <trkpt lat="48.65124" lon="-2.37455">
        <ele>35.1</ele>
        <time>2016-07-05T12:29:49Z</time>
      </trkpt>
      <trkpt lat="48.65115" lon="-2.3745">
        <ele>36.6</ele>
        <time>2016-07-05T12:29:58Z</time>
      </trkpt>
      <trkpt lat="48.65108" lon="-2.37462">
        <ele>38</ele>
        <time>2016-07-05T12:30:51Z</time>
      </trkpt>
      <trkpt lat="48.65102" lon="-2.37476">
        <ele>38.6</ele>
        <time>2016-07-05T12:30:57Z</time>
      </trkpt>
      <trkpt lat="48.65097" lon="-2.37489">
        <ele>40.2</ele>
        <time>2016-07-05T12:31:09Z</time>
      </trkpt>
      <trkpt lat="48.65091" lon="-2.37498">
        <ele>41.7</ele>
        <time>2016-07-05T12:31:17Z</time>
      </trkpt>
      <trkpt lat="48.65081" lon="-2.37492">
        <ele>42.8</ele>
        <time>2016-07-05T12:31:27Z</time>
      </trkpt>
      <trkpt lat="48.65071" lon="-2.37488">
        <ele>43.2</ele>
        <time>2016-07-05T12:31:36Z</time>
      </trkpt>
      <trkpt lat="48.65064" lon="-2.3748">
        <ele>43.6</ele>
        <time>2016-07-05T12:31:58Z</time>
      </trkpt>
      <trkpt lat="48.65056" lon="-2.37472">
        <ele>43.7</ele>
        <time>2016-07-05T12:32:04Z</time>
      </trkpt>
      <trkpt lat="48.65047" lon="-2.37475">
        <ele>44.5</ele>
        <time>2016-07-05T12:32:14Z</time>
      </trkpt>
      <trkpt lat="48.65044" lon="-2.37488">
        <ele>45.8</ele>
        <time>2016-07-05T12:32:24Z</time>
      </trkpt>
      <trkpt lat="48.65043" lon="-2.37503">
        <ele>46.9</ele>
        <time>2016-07-05T12:32:36Z</time>
      </trkpt>
      <trkpt lat="48.65037" lon="-2.37513">
        <ele>47.7</ele>
        <time>2016-07-05T12:32:43Z</time>
      </trkpt>
      <trkpt lat="48.6503" lon="-2.37524">
        <ele>47.6</ele>
        <time>2016-07-05T12:33:01Z</time>
      </trkpt>
      <trkpt lat="48.65026" lon="-2.37537">
        <ele>46.8</ele>
        <time>2016-07-05T12:33:13Z</time>
      </trkpt>
      <trkpt lat="48.6502" lon="-2.37547">
        <ele>47.5</ele>
        <time>2016-07-05T12:33:21Z</time>
      </trkpt>
      <trkpt lat="48.65016" lon="-2.3756">
        <ele>47.2</ele>
        <time>2016-07-05T12:33:28Z</time>
      </trkpt>
      <trkpt lat="48.65012" lon="-2.37573">
        <ele>47.2</ele>
        <time>2016-07-05T12:33:35Z</time>
      </trkpt>
      <trkpt lat="48.65004" lon="-2.37582">
        <ele>47.9</ele>
        <time>2016-07-05T12:33:44Z</time>
      </trkpt>
      <trkpt lat="48.64999" lon="-2.37594">
        <ele>48.3</ele>
        <time>2016-07-05T12:33:52Z</time>
      </trkpt>
      <trkpt lat="48.64999" lon="-2.37608">
        <ele>49.2</ele>
        <time>2016-07-05T12:34:02Z</time>
      </trkpt>
      <trkpt lat="48.64998" lon="-2.37623">
        <ele>49.2</ele>
        <time>2016-07-05T12:34:14Z</time>
      </trkpt>
      <trkpt lat="48.64995" lon="-2.37636">
        <ele>49.8</ele>
        <time>2016-07-05T12:34:24Z</time>
      </trkpt>
      <trkpt lat="48.6499" lon="-2.37649">
        <ele>49.6</ele>
        <time>2016-07-05T12:34:54Z</time>
      </trkpt>
      <trkpt lat="48.64988" lon="-2.37663">
        <ele>49.9</ele>
        <time>2016-07-05T12:34:59Z</time>
      </trkpt>
      <trkpt lat="48.64985" lon="-2.37676">
        <ele>50.7</ele>
        <time>2016-07-05T12:35:04Z</time>
      </trkpt>
      <trkpt lat="48.64979" lon="-2.37687">
        <ele>50.7</ele>
        <time>2016-07-05T12:35:11Z</time>
      </trkpt>
      <trkpt lat="48.64972" lon="-2.37697">
        <ele>51.5</ele>
        <time>2016-07-05T12:35:19Z</time>
      </trkpt>
      <trkpt lat="48.64963" lon="-2.37706">
        <ele>51.3</ele>
        <time>2016-07-05T12:35:28Z</time>
      </trkpt>
      <trkpt lat="48.64954" lon="-2.37711">
        <ele>52</ele>
        <time>2016-07-05T12:35:36Z</time>
      </trkpt>
      <trkpt lat="48.64945" lon="-2.37714">
        <ele>52.5</ele>
        <time>2016-07-05T12:35:46Z</time>
      </trkpt>
      <trkpt lat="48.64939" lon="-2.37725">
        <ele>52.8</ele>
        <time>2016-07-05T12:36:21Z</time>
      </trkpt>
      <trkpt lat="48.64938" lon="-2.37739">
        <ele>53.2</ele>
        <time>2016-07-05T12:36:28Z</time>
      </trkpt>
      <trkpt lat="48.64931" lon="-2.3775">
        <ele>52.5</ele>
        <time>2016-07-05T12:36:35Z</time>
      </trkpt>
      <trkpt lat="48.64929" lon="-2.37763">
        <ele>52.6</ele>
        <time>2016-07-05T12:36:44Z</time>
      </trkpt>
      <trkpt lat="48.64924" lon="-2.37775">
        <ele>52.3</ele>
        <time>2016-07-05T12:36:52Z</time>
      </trkpt>
      <trkpt lat="48.64919" lon="-2.37786">
        <ele>52</ele>
        <time>2016-07-05T12:37:00Z</time>
      </trkpt>
      <trkpt lat="48.64913" lon="-2.378">
        <ele>51.9</ele>
        <time>2016-07-05T12:37:09Z</time>
      </trkpt>
      <trkpt lat="48.64911" lon="-2.37816">
        <ele>52.1</ele>
        <time>2016-07-05T12:37:17Z</time>
      </trkpt>
      <trkpt lat="48.64906" lon="-2.3783">
        <ele>52.2</ele>
        <time>2016-07-05T12:37:26Z</time>
      </trkpt>
      <trkpt lat="48.64903" lon="-2.37842">
        <ele>51.5</ele>
        <time>2016-07-05T12:37:34Z</time>
      </trkpt>
      <trkpt lat="48.64894" lon="-2.37847">
        <ele>52.1</ele>
        <time>2016-07-05T12:37:42Z</time>
      </trkpt>
      <trkpt lat="48.6489" lon="-2.37859">
        <ele>52</ele>
        <time>2016-07-05T12:37:49Z</time>
      </trkpt>
      <trkpt lat="48.64888" lon="-2.37873">
        <ele>51.9</ele>
        <time>2016-07-05T12:37:58Z</time>
      </trkpt>
      <trkpt lat="48.64889" lon="-2.37888">
        <ele>51.9</ele>
        <time>2016-07-05T12:38:07Z</time>
      </trkpt>
      <trkpt lat="48.64886" lon="-2.37901">
        <ele>51.7</ele>
        <time>2016-07-05T12:38:14Z</time>
      </trkpt>
      <trkpt lat="48.64884" lon="-2.37915">
        <ele>52.1</ele>
        <time>2016-07-05T12:38:21Z</time>
      </trkpt>
      <trkpt lat="48.64884" lon="-2.3793">
        <ele>52.7</ele>
        <time>2016-07-05T12:38:29Z</time>
      </trkpt>
      <trkpt lat="48.64875" lon="-2.37932">
        <ele>51.1</ele>
        <time>2016-07-05T12:38:42Z</time>
      </trkpt>
      <trkpt lat="48.64866" lon="-2.37934">
        <ele>51.9</ele>
        <time>2016-07-05T12:38:53Z</time>
      </trkpt>
      <trkpt lat="48.64856" lon="-2.37934">
        <ele>52.3</ele>
        <time>2016-07-05T12:39:03Z</time>
      </trkpt>
      <trkpt lat="48.64847" lon="-2.37931">
        <ele>54.1</ele>
        <time>2016-07-05T12:39:48Z</time>
      </trkpt>
      <trkpt lat="48.64847" lon="-2.37946">
        <ele>53.8</ele>
        <time>2016-07-05T12:40:01Z</time>
      </trkpt>
      <trkpt lat="48.64845" lon="-2.3796">
        <ele>54.9</ele>
        <time>2016-07-05T12:40:10Z</time>
      </trkpt>
      <trkpt lat="48.64847" lon="-2.37974">
        <ele>53.1</ele>
        <time>2016-07-05T12:40:32Z</time>
      </trkpt>
      <trkpt lat="48.64846" lon="-2.37988">
        <ele>53.2</ele>
        <time>2016-07-05T12:40:37Z</time>
      </trkpt>
      <trkpt lat="48.6485" lon="-2.38001">
        <ele>52.3</ele>
        <time>2016-07-05T12:40:46Z</time>
      </trkpt>
      <trkpt lat="48.64848" lon="-2.38015">
        <ele>52.2</ele>
        <time>2016-07-05T12:40:53Z</time>
      </trkpt>
      <trkpt lat="48.64846" lon="-2.38032">
        <ele>53.4</ele>
        <time>2016-07-05T12:41:02Z</time>
      </trkpt>
      <trkpt lat="48.64841" lon="-2.38046">
        <ele>53.3</ele>
        <time>2016-07-05T12:41:11Z</time>
      </trkpt>
      <trkpt lat="48.64836" lon="-2.38057">
        <ele>53.6</ele>
        <time>2016-07-05T12:41:18Z</time>
      </trkpt>
      <trkpt lat="48.6483" lon="-2.3807">
        <ele>52.9</ele>
        <time>2016-07-05T12:41:26Z</time>
      </trkpt>
      <trkpt lat="48.64825" lon="-2.38081">
        <ele>53</ele>
        <time>2016-07-05T12:41:34Z</time>
      </trkpt>
      <trkpt lat="48.64817" lon="-2.38089">
        <ele>53.4</ele>
        <time>2016-07-05T12:41:43Z</time>
      </trkpt>
      <trkpt lat="48.64814" lon="-2.38102">
        <ele>53.8</ele>
        <time>2016-07-05T12:41:52Z</time>
      </trkpt>
      <trkpt lat="48.64813" lon="-2.38116">
        <ele>54.2</ele>
        <time>2016-07-05T12:42:05Z</time>
      </trkpt>
      <trkpt lat="48.6482" lon="-2.38126">
        <ele>52.9</ele>
        <time>2016-07-05T12:42:43Z</time>
      </trkpt>
      <trkpt lat="48.64828" lon="-2.38135">
        <ele>51.9</ele>
        <time>2016-07-05T12:42:51Z</time>
      </trkpt>
      <trkpt lat="48.64833" lon="-2.38147">
        <ele>52</ele>
        <time>2016-07-05T12:42:59Z</time>
      </trkpt>
      <trkpt lat="48.64837" lon="-2.3816">
        <ele>52.2</ele>
        <time>2016-07-05T12:43:07Z</time>
      </trkpt>
      <trkpt lat="48.64834" lon="-2.38172">
        <ele>51.4</ele>
        <time>2016-07-05T12:43:14Z</time>
      </trkpt>
      <trkpt lat="48.64828" lon="-2.38184">
        <ele>53.1</ele>
        <time>2016-07-05T12:43:22Z</time>
      </trkpt>
      <trkpt lat="48.64822" lon="-2.38196">
        <ele>52</ele>
        <time>2016-07-05T12:43:31Z</time>
      </trkpt>
      <trkpt lat="48.64815" lon="-2.38204">
        <ele>53.1</ele>
        <time>2016-07-05T12:43:39Z</time>
      </trkpt>
      <trkpt lat="48.64808" lon="-2.38215">
        <ele>53.4</ele>
        <time>2016-07-05T12:43:48Z</time>
      </trkpt>
      <trkpt lat="48.64803" lon="-2.38228">
        <ele>54.5</ele>
        <time>2016-07-05T12:43:57Z</time>
      </trkpt>
      <trkpt lat="48.64798" lon="-2.3824">
        <ele>54.5</ele>
        <time>2016-07-05T12:44:06Z</time>
      </trkpt>
      <trkpt lat="48.64792" lon="-2.38252">
        <ele>54.8</ele>
        <time>2016-07-05T12:44:16Z</time>
      </trkpt>
      <trkpt lat="48.64785" lon="-2.3826">
        <ele>54.4</ele>
        <time>2016-07-05T12:44:24Z</time>
      </trkpt>
      <trkpt lat="48.64778" lon="-2.3827">
        <ele>54.6</ele>
        <time>2016-07-05T12:44:32Z</time>
      </trkpt>
      <trkpt lat="48.64775" lon="-2.38284">
        <ele>54.7</ele>
        <time>2016-07-05T12:44:41Z</time>
      </trkpt>
      <trkpt lat="48.64772" lon="-2.38299">
        <ele>55.9</ele>
        <time>2016-07-05T12:44:51Z</time>
      </trkpt>
      <trkpt lat="48.64767" lon="-2.38312">
        <ele>55.9</ele>
        <time>2016-07-05T12:45:26Z</time>
      </trkpt>
      <trkpt lat="48.64761" lon="-2.38324">
        <ele>55.9</ele>
        <time>2016-07-05T12:45:40Z</time>
      </trkpt>
      <trkpt lat="48.64756" lon="-2.38337">
        <ele>56</ele>
        <time>2016-07-05T12:45:45Z</time>
      </trkpt>
      <trkpt lat="48.64752" lon="-2.3835">
        <ele>56.2</ele>
        <time>2016-07-05T12:45:51Z</time>
      </trkpt>
      <trkpt lat="48.64746" lon="-2.38362">
        <ele>57.5</ele>
        <time>2016-07-05T12:45:57Z</time>
      </trkpt>
      <trkpt lat="48.6474" lon="-2.38373">
        <ele>56.4</ele>
        <time>2016-07-05T12:46:04Z</time>
      </trkpt>
      <trkpt lat="48.64736" lon="-2.38384">
        <ele>56.6</ele>
        <time>2016-07-05T12:46:12Z</time>
      </trkpt>
      <trkpt lat="48.64729" lon="-2.38396">
        <ele>56.4</ele>
        <time>2016-07-05T12:46:21Z</time>
      </trkpt>
      <trkpt lat="48.64722" lon="-2.38406">
        <ele>56.7</ele>
        <time>2016-07-05T12:46:29Z</time>
      </trkpt>
      <trkpt lat="48.64721" lon="-2.38421">
        <ele>55.9</ele>
        <time>2016-07-05T12:46:40Z</time>
      </trkpt>
      <trkpt lat="48.64726" lon="-2.38433">
        <ele>55.9</ele>
        <time>2016-07-05T12:46:48Z</time>
      </trkpt>
      <trkpt lat="48.64735" lon="-2.38441">
        <ele>55.7</ele>
        <time>2016-07-05T12:47:00Z</time>
      </trkpt>
      <trkpt lat="48.64743" lon="-2.38449">
        <ele>54.8</ele>
        <time>2016-07-05T12:47:07Z</time>
      </trkpt>
      <trkpt lat="48.64747" lon="-2.38462">
        <ele>55</ele>
        <time>2016-07-05T12:47:16Z</time>
      </trkpt>
      <trkpt lat="48.64746" lon="-2.38476">
        <ele>55.2</ele>
        <time>2016-07-05T12:47:23Z</time>
      </trkpt>
      <trkpt lat="48.64745" lon="-2.38492">
        <ele>55.2</ele>
        <time>2016-07-05T12:47:33Z</time>
      </trkpt>
      <trkpt lat="48.64742" lon="-2.38506">
        <ele>54.8</ele>
        <time>2016-07-05T12:47:40Z</time>
      </trkpt>
      <trkpt lat="48.64742" lon="-2.38521">
        <ele>54.3</ele>
        <time>2016-07-05T12:47:49Z</time>
      </trkpt>
      <trkpt lat="48.64737" lon="-2.38534">
        <ele>55.1</ele>
        <time>2016-07-05T12:47:58Z</time>
      </trkpt>
      <trkpt lat="48.64732" lon="-2.38547">
        <ele>55.2</ele>
        <time>2016-07-05T12:48:03Z</time>
      </trkpt>
      <trkpt lat="48.64729" lon="-2.38561">
        <ele>54.9</ele>
        <time>2016-07-05T12:48:12Z</time>
      </trkpt>
      <trkpt lat="48.64725" lon="-2.38574">
        <ele>55.1</ele>
        <time>2016-07-05T12:48:18Z</time>
      </trkpt>
      <trkpt lat="48.64721" lon="-2.38588">
        <ele>56.2</ele>
        <time>2016-07-05T12:48:27Z</time>
      </trkpt>
      <trkpt lat="48.6472" lon="-2.38602">
        <ele>55.8</ele>
        <time>2016-07-05T12:48:34Z</time>
      </trkpt>
      <trkpt lat="48.64719" lon="-2.38616">
        <ele>55.9</ele>
        <time>2016-07-05T12:49:15Z</time>
      </trkpt>
      <trkpt lat="48.64714" lon="-2.38629">
        <ele>56.9</ele>
        <time>2016-07-05T12:49:21Z</time>
      </trkpt>
      <trkpt lat="48.64712" lon="-2.38642">
        <ele>56.5</ele>
        <time>2016-07-05T12:49:27Z</time>
      </trkpt>
      <trkpt lat="48.64709" lon="-2.38656">
        <ele>57.1</ele>
        <time>2016-07-05T12:49:33Z</time>
      </trkpt>
      <trkpt lat="48.64708" lon="-2.38671">
        <ele>56.8</ele>
        <time>2016-07-05T12:49:41Z</time>
      </trkpt>
      <trkpt lat="48.64708" lon="-2.38685">
        <ele>57.5</ele>
        <time>2016-07-05T12:49:46Z</time>
      </trkpt>
      <trkpt lat="48.6471" lon="-2.38698">
        <ele>57.5</ele>
        <time>2016-07-05T12:49:56Z</time>
      </trkpt>
      <trkpt lat="48.64713" lon="-2.38712">
        <ele>56.6</ele>
        <time>2016-07-05T12:50:13Z</time>
      </trkpt>
      <trkpt lat="48.64711" lon="-2.38726">
        <ele>57.3</ele>
        <time>2016-07-05T12:50:41Z</time>
      </trkpt>
      <trkpt lat="48.6471" lon="-2.38741">
        <ele>57.9</ele>
        <time>2016-07-05T12:50:47Z</time>
      </trkpt>
      <trkpt lat="48.64705" lon="-2.38753">
        <ele>57.4</ele>
        <time>2016-07-05T12:51:07Z</time>
      </trkpt>
      <trkpt lat="48.64697" lon="-2.38761">
        <ele>57.3</ele>
        <time>2016-07-05T12:51:14Z</time>
      </trkpt>
      <trkpt lat="48.64688" lon="-2.38763">
        <ele>57.8</ele>
        <time>2016-07-05T12:51:20Z</time>
      </trkpt>
      <trkpt lat="48.64679" lon="-2.38769">
        <ele>57.5</ele>
        <time>2016-07-05T12:51:26Z</time>
      </trkpt>
      <trkpt lat="48.64671" lon="-2.38775">
        <ele>57.2</ele>
        <time>2016-07-05T12:51:32Z</time>
      </trkpt>
      <trkpt lat="48.64664" lon="-2.38784">
        <ele>57.1</ele>
        <time>2016-07-05T12:51:39Z</time>
      </trkpt>
      <trkpt lat="48.64655" lon="-2.3879">
        <ele>57.5</ele>
        <time>2016-07-05T12:51:46Z</time>
      </trkpt>
      <trkpt lat="48.64647" lon="-2.38796">
        <ele>58.3</ele>
        <time>2016-07-05T12:51:55Z</time>
      </trkpt>
      <trkpt lat="48.64638" lon="-2.38802">
        <ele>58.7</ele>
        <time>2016-07-05T12:52:02Z</time>
      </trkpt>
      <trkpt lat="48.64632" lon="-2.38812">
        <ele>58.2</ele>
        <time>2016-07-05T12:52:09Z</time>
      </trkpt>
      <trkpt lat="48.64626" lon="-2.38824">
        <ele>58.7</ele>
        <time>2016-07-05T12:52:17Z</time>
      </trkpt>
      <trkpt lat="48.64619" lon="-2.38834">
        <ele>58.8</ele>
        <time>2016-07-05T12:52:23Z</time>
      </trkpt>
      <trkpt lat="48.64614" lon="-2.38845">
        <ele>58.7</ele>
        <time>2016-07-05T12:52:36Z</time>
      </trkpt>
      <trkpt lat="48.64612" lon="-2.38859">
        <ele>59.2</ele>
        <time>2016-07-05T12:52:43Z</time>
      </trkpt>
      <trkpt lat="48.64606" lon="-2.38871">
        <ele>60</ele>
        <time>2016-07-05T12:52:50Z</time>
      </trkpt>
      <trkpt lat="48.64601" lon="-2.38883">
        <ele>60.4</ele>
        <time>2016-07-05T12:52:56Z</time>
      </trkpt>
      <trkpt lat="48.64592" lon="-2.38891">
        <ele>60.5</ele>
        <time>2016-07-05T12:53:05Z</time>
      </trkpt>
      <trkpt lat="48.64583" lon="-2.38893">
        <ele>60.9</ele>
        <time>2016-07-05T12:53:12Z</time>
      </trkpt>
      <trkpt lat="48.64573" lon="-2.38904">
        <ele>62.1</ele>
        <time>2016-07-05T12:53:22Z</time>
      </trkpt>
      <trkpt lat="48.64571" lon="-2.38918">
        <ele>61.6</ele>
        <time>2016-07-05T12:53:29Z</time>
      </trkpt>
      <trkpt lat="48.64565" lon="-2.38931">
        <ele>62.2</ele>
        <time>2016-07-05T12:53:38Z</time>
      </trkpt>
      <trkpt lat="48.64565" lon="-2.38946">
        <ele>62.2</ele>
        <time>2016-07-05T12:53:47Z</time>
      </trkpt>
      <trkpt lat="48.64558" lon="-2.38957">
        <ele>61.9</ele>
        <time>2016-07-05T12:53:56Z</time>
      </trkpt>
      <trkpt lat="48.64549" lon="-2.38965">
        <ele>62.8</ele>
        <time>2016-07-05T12:54:04Z</time>
      </trkpt>
      <trkpt lat="48.6454" lon="-2.38972">
        <ele>64.1</ele>
        <time>2016-07-05T12:54:13Z</time>
      </trkpt>
      <trkpt lat="48.64531" lon="-2.38978">
        <ele>64.2</ele>
        <time>2016-07-05T12:54:22Z</time>
      </trkpt>
      <trkpt lat="48.64524" lon="-2.38989">
        <ele>63</ele>
        <time>2016-07-05T12:54:28Z</time>
      </trkpt>
      <trkpt lat="48.64518" lon="-2.39">
        <ele>63.4</ele>
        <time>2016-07-05T12:54:37Z</time>
      </trkpt>
      <trkpt lat="48.64514" lon="-2.39014">
        <ele>62.9</ele>
        <time>2016-07-05T12:54:45Z</time>
      </trkpt>
      <trkpt lat="48.64506" lon="-2.39025">
        <ele>63.5</ele>
        <time>2016-07-05T12:55:26Z</time>
      </trkpt>
      <trkpt lat="48.64497" lon="-2.39032">
        <ele>63.2</ele>
        <time>2016-07-05T12:55:35Z</time>
      </trkpt>
      <trkpt lat="48.64488" lon="-2.39038">
        <ele>62.2</ele>
        <time>2016-07-05T12:55:43Z</time>
      </trkpt>
      <trkpt lat="48.6448" lon="-2.39046">
        <ele>62.4</ele>
        <time>2016-07-05T12:55:50Z</time>
      </trkpt>
      <trkpt lat="48.64484" lon="-2.39058">
        <ele>62.1</ele>
        <time>2016-07-05T12:56:00Z</time>
      </trkpt>
      <trkpt lat="48.64482" lon="-2.39073">
        <ele>61.5</ele>
        <time>2016-07-05T12:56:08Z</time>
      </trkpt>
      <trkpt lat="48.64475" lon="-2.39086">
        <ele>62.2</ele>
        <time>2016-07-05T12:56:13Z</time>
      </trkpt>
      <trkpt lat="48.64465" lon="-2.39086">
        <ele>60.8</ele>
        <time>2016-07-05T12:56:38Z</time>
      </trkpt>
      <trkpt lat="48.64457" lon="-2.39091">
        <ele>60</ele>
        <time>2016-07-05T12:56:45Z</time>
      </trkpt>
      <trkpt lat="48.64447" lon="-2.39095">
        <ele>59.1</ele>
        <time>2016-07-05T12:56:56Z</time>
      </trkpt>
      <trkpt lat="48.64439" lon="-2.39105">
        <ele>57.9</ele>
        <time>2016-07-05T12:57:06Z</time>
      </trkpt>
      <trkpt lat="48.6443" lon="-2.39109">
        <ele>57</ele>
        <time>2016-07-05T12:57:13Z</time>
      </trkpt>
      <trkpt lat="48.64421" lon="-2.39115">
        <ele>56</ele>
        <time>2016-07-05T12:57:20Z</time>
      </trkpt>
      <trkpt lat="48.64412" lon="-2.39119">
        <ele>56.2</ele>
        <time>2016-07-05T12:57:28Z</time>
      </trkpt>
      <trkpt lat="48.64403" lon="-2.39123">
        <ele>54.1</ele>
        <time>2016-07-05T12:57:36Z</time>
      </trkpt>
      <trkpt lat="48.64393" lon="-2.39125">
        <ele>53.6</ele>
        <time>2016-07-05T12:57:43Z</time>
      </trkpt>
      <trkpt lat="48.64384" lon="-2.39127">
        <ele>51.7</ele>
        <time>2016-07-05T12:57:52Z</time>
      </trkpt>
      <trkpt lat="48.64374" lon="-2.3913">
        <ele>51.8</ele>
        <time>2016-07-05T12:57:59Z</time>
      </trkpt>
      <trkpt lat="48.64364" lon="-2.39135">
        <ele>51.4</ele>
        <time>2016-07-05T12:58:07Z</time>
      </trkpt>
      <trkpt lat="48.64355" lon="-2.39138">
        <ele>50.9</ele>
        <time>2016-07-05T12:58:14Z</time>
      </trkpt>
      <trkpt lat="48.64345" lon="-2.39142">
        <ele>50</ele>
        <time>2016-07-05T12:58:22Z</time>
      </trkpt>
      <trkpt lat="48.64336" lon="-2.39144">
        <ele>49.7</ele>
        <time>2016-07-05T12:58:30Z</time>
      </trkpt>
      <trkpt lat="48.64327" lon="-2.39147">
        <ele>47.4</ele>
        <time>2016-07-05T12:58:38Z</time>
      </trkpt>
      <trkpt lat="48.64317" lon="-2.3915">
        <ele>45.6</ele>
        <time>2016-07-05T12:58:46Z</time>
      </trkpt>
      <trkpt lat="48.64307" lon="-2.39154">
        <ele>45.1</ele>
        <time>2016-07-05T12:58:54Z</time>
      </trkpt>
      <trkpt lat="48.64298" lon="-2.39158">
        <ele>44.9</ele>
        <time>2016-07-05T12:59:03Z</time>
      </trkpt>
      <trkpt lat="48.6429" lon="-2.39162">
        <ele>44.2</ele>
        <time>2016-07-05T12:59:10Z</time>
      </trkpt>
      <trkpt lat="48.6428" lon="-2.39166">
        <ele>45.4</ele>
        <time>2016-07-05T12:59:18Z</time>
      </trkpt>
      <trkpt lat="48.6427" lon="-2.3917">
        <ele>44.4</ele>
        <time>2016-07-05T12:59:25Z</time>
      </trkpt>
      <trkpt lat="48.64262" lon="-2.39175">
        <ele>43</ele>
        <time>2016-07-05T12:59:33Z</time>
      </trkpt>
      <trkpt lat="48.64253" lon="-2.3918">
        <ele>43.1</ele>
        <time>2016-07-05T12:59:41Z</time>
      </trkpt>
      <trkpt lat="48.64244" lon="-2.39186">
        <ele>41.9</ele>
        <time>2016-07-05T12:59:49Z</time>
      </trkpt>
      <trkpt lat="48.64236" lon="-2.39194">
        <ele>41.2</ele>
        <time>2016-07-05T12:59:58Z</time>
      </trkpt>
      <trkpt lat="48.64227" lon="-2.39202">
        <ele>41.9</ele>
        <time>2016-07-05T13:00:06Z</time>
      </trkpt>
      <trkpt lat="48.64219" lon="-2.39212">
        <ele>42.8</ele>
        <time>2016-07-05T13:00:14Z</time>
      </trkpt>
      <trkpt lat="48.64211" lon="-2.39221">
        <ele>42.1</ele>
        <time>2016-07-05T13:00:21Z</time>
      </trkpt>
      <trkpt lat="48.64204" lon="-2.3923">
        <ele>40.2</ele>
        <time>2016-07-05T13:00:28Z</time>
      </trkpt>
      <trkpt lat="48.64197" lon="-2.39241">
        <ele>39.4</ele>
        <time>2016-07-05T13:00:36Z</time>
      </trkpt>
      <trkpt lat="48.64192" lon="-2.39252">
        <ele>40.6</ele>
        <time>2016-07-05T13:00:43Z</time>
      </trkpt>
      <trkpt lat="48.64187" lon="-2.39263">
        <ele>38.6</ele>
        <time>2016-07-05T13:00:51Z</time>
      </trkpt>
      <trkpt lat="48.64181" lon="-2.39275">
        <ele>38.6</ele>
        <time>2016-07-05T13:00:58Z</time>
      </trkpt>
      <trkpt lat="48.64176" lon="-2.39289">
        <ele>38.9</ele>
        <time>2016-07-05T13:01:05Z</time>
      </trkpt>
      <trkpt lat="48.6417" lon="-2.39302">
        <ele>37.9</ele>
        <time>2016-07-05T13:01:14Z</time>
      </trkpt>
      <trkpt lat="48.64167" lon="-2.39316">
        <ele>36.6</ele>
        <time>2016-07-05T13:01:22Z</time>
      </trkpt>
      <trkpt lat="48.64163" lon="-2.3933">
        <ele>36.6</ele>
        <time>2016-07-05T13:01:30Z</time>
      </trkpt>
      <trkpt lat="48.64158" lon="-2.39344">
        <ele>36.7</ele>
        <time>2016-07-05T13:01:37Z</time>
      </trkpt>
      <trkpt lat="48.64157" lon="-2.39359">
        <ele>36</ele>
        <time>2016-07-05T13:01:47Z</time>
      </trkpt>
      <trkpt lat="48.64155" lon="-2.39372">
        <ele>36.8</ele>
        <time>2016-07-05T13:01:54Z</time>
      </trkpt>
      <trkpt lat="48.64161" lon="-2.39383">
        <ele>32.3</ele>
        <time>2016-07-05T13:03:08Z</time>
      </trkpt>
      <trkpt lat="48.6417" lon="-2.39383">
        <ele>31.5</ele>
        <time>2016-07-05T13:03:12Z</time>
      </trkpt>
      <trkpt lat="48.64173" lon="-2.39396">
        <ele>30.9</ele>
        <time>2016-07-05T13:03:17Z</time>
      </trkpt>
      <trkpt lat="48.64178" lon="-2.3941">
        <ele>30.4</ele>
        <time>2016-07-05T13:03:24Z</time>
      </trkpt>
      <trkpt lat="48.64187" lon="-2.39413">
        <ele>29.5</ele>
        <time>2016-07-05T13:03:32Z</time>
      </trkpt>
      <trkpt lat="48.64196" lon="-2.39424">
        <ele>28.9</ele>
        <time>2016-07-05T13:03:38Z</time>
      </trkpt>
      <trkpt lat="48.64205" lon="-2.39435">
        <ele>27.6</ele>
        <time>2016-07-05T13:03:42Z</time>
      </trkpt>
      <trkpt lat="48.64216" lon="-2.39438">
        <ele>27.4</ele>
        <time>2016-07-05T13:03:52Z</time>
      </trkpt>
      <trkpt lat="48.6422" lon="-2.3945">
        <ele>24.6</ele>
        <time>2016-07-05T13:04:07Z</time>
      </trkpt>
      <trkpt lat="48.64228" lon="-2.39459">
        <ele>22.6</ele>
        <time>2016-07-05T13:04:19Z</time>
      </trkpt>
      <trkpt lat="48.64237" lon="-2.39465">
        <ele>21.3</ele>
        <time>2016-07-05T13:04:29Z</time>
      </trkpt>
      <trkpt lat="48.64247" lon="-2.39469">
        <ele>20</ele>
        <time>2016-07-05T13:04:38Z</time>
      </trkpt>
      <trkpt lat="48.64256" lon="-2.39474">
        <ele>19.5</ele>
        <time>2016-07-05T13:04:42Z</time>
      </trkpt>
      <trkpt lat="48.64265" lon="-2.3948">
        <ele>17.5</ele>
        <time>2016-07-05T13:04:50Z</time>
      </trkpt>
      <trkpt lat="48.64274" lon="-2.3949">
        <ele>15.5</ele>
        <time>2016-07-05T13:05:03Z</time>
      </trkpt>
      <trkpt lat="48.64283" lon="-2.39495">
        <ele>13.5</ele>
        <time>2016-07-05T13:05:11Z</time>
      </trkpt>
      <trkpt lat="48.64283" lon="-2.3951">
        <ele>14.2</ele>
        <time>2016-07-05T13:05:54Z</time>
      </trkpt>
      <trkpt lat="48.64277" lon="-2.3952">
        <ele>15</ele>
        <time>2016-07-05T13:06:01Z</time>
      </trkpt>
      <trkpt lat="48.64272" lon="-2.39533">
        <ele>14.8</ele>
        <time>2016-07-05T13:06:12Z</time>
      </trkpt>
      <trkpt lat="48.64267" lon="-2.39546">
        <ele>15.2</ele>
        <time>2016-07-05T13:06:20Z</time>
      </trkpt>
      <trkpt lat="48.64261" lon="-2.39558">
        <ele>14.7</ele>
        <time>2016-07-05T13:06:28Z</time>
      </trkpt>
      <trkpt lat="48.64256" lon="-2.39569">
        <ele>15</ele>
        <time>2016-07-05T13:06:35Z</time>
      </trkpt>
      <trkpt lat="48.64252" lon="-2.39582">
        <ele>16.6</ele>
        <time>2016-07-05T13:06:41Z</time>
      </trkpt>
      <trkpt lat="48.64248" lon="-2.39595">
        <ele>15.6</ele>
        <time>2016-07-05T13:06:48Z</time>
      </trkpt>
      <trkpt lat="48.64243" lon="-2.39607">
        <ele>16.7</ele>
        <time>2016-07-05T13:06:54Z</time>
      </trkpt>
      <trkpt lat="48.64237" lon="-2.39619">
        <ele>16</ele>
        <time>2016-07-05T13:07:01Z</time>
      </trkpt>
      <trkpt lat="48.64233" lon="-2.39633">
        <ele>17</ele>
        <time>2016-07-05T13:07:10Z</time>
      </trkpt>
      <trkpt lat="48.64229" lon="-2.39646">
        <ele>17.1</ele>
        <time>2016-07-05T13:07:17Z</time>
      </trkpt>
      <trkpt lat="48.64224" lon="-2.39659">
        <ele>17.6</ele>
        <time>2016-07-05T13:07:25Z</time>
      </trkpt>
      <trkpt lat="48.6422" lon="-2.39672">
        <ele>17.6</ele>
        <time>2016-07-05T13:07:32Z</time>
      </trkpt>
      <trkpt lat="48.64216" lon="-2.39685">
        <ele>17.6</ele>
        <time>2016-07-05T13:07:40Z</time>
      </trkpt>
      <trkpt lat="48.64213" lon="-2.39698">
        <ele>16.9</ele>
        <time>2016-07-05T13:07:48Z</time>
      </trkpt>
      <trkpt lat="48.64209" lon="-2.39712">
        <ele>17.4</ele>
        <time>2016-07-05T13:07:56Z</time>
      </trkpt>
      <trkpt lat="48.64206" lon="-2.39725">
        <ele>18.3</ele>
        <time>2016-07-05T13:08:03Z</time>
      </trkpt>
      <trkpt lat="48.64203" lon="-2.39738">
        <ele>17.6</ele>
        <time>2016-07-05T13:08:09Z</time>
      </trkpt>
      <trkpt lat="48.642" lon="-2.39752">
        <ele>16.9</ele>
        <time>2016-07-05T13:08:16Z</time>
      </trkpt>
      <trkpt lat="48.64195" lon="-2.39765">
        <ele>17.7</ele>
        <time>2016-07-05T13:08:23Z</time>
      </trkpt>
      <trkpt lat="48.64192" lon="-2.39778">
        <ele>17.4</ele>
        <time>2016-07-05T13:08:30Z</time>
      </trkpt>
      <trkpt lat="48.64188" lon="-2.39791">
        <ele>16.9</ele>
        <time>2016-07-05T13:08:39Z</time>
      </trkpt>
      <trkpt lat="48.64185" lon="-2.39804">
        <ele>18.4</ele>
        <time>2016-07-05T13:08:46Z</time>
      </trkpt>
      <trkpt lat="48.64181" lon="-2.39817">
        <ele>17.5</ele>
        <time>2016-07-05T13:08:53Z</time>
      </trkpt>
      <trkpt lat="48.64179" lon="-2.3983">
        <ele>18.7</ele>
        <time>2016-07-05T13:09:00Z</time>
      </trkpt>
      <trkpt lat="48.64175" lon="-2.39842">
        <ele>18.7</ele>
        <time>2016-07-05T13:09:08Z</time>
      </trkpt>
      <trkpt lat="48.64171" lon="-2.39855">
        <ele>18.6</ele>
        <time>2016-07-05T13:09:16Z</time>
      </trkpt>
      <trkpt lat="48.64167" lon="-2.39868">
        <ele>19.9</ele>
        <time>2016-07-05T13:09:23Z</time>
      </trkpt>
      <trkpt lat="48.64164" lon="-2.39882">
        <ele>20.6</ele>
        <time>2016-07-05T13:09:36Z</time>
      </trkpt>
      <trkpt lat="48.64159" lon="-2.39896">
        <ele>20.5</ele>
        <time>2016-07-05T13:09:46Z</time>
      </trkpt>
      <trkpt lat="48.64156" lon="-2.3991">
        <ele>21</ele>
        <time>2016-07-05T13:09:52Z</time>
      </trkpt>
      <trkpt lat="48.64151" lon="-2.39924">
        <ele>19.8</ele>
        <time>2016-07-05T13:09:59Z</time>
      </trkpt>
      <trkpt lat="48.64146" lon="-2.39939">
        <ele>21.5</ele>
        <time>2016-07-05T13:10:05Z</time>
      </trkpt>
      <trkpt lat="48.64146" lon="-2.39953">
        <ele>21.6</ele>
        <time>2016-07-05T13:10:10Z</time>
      </trkpt>
      <trkpt lat="48.64142" lon="-2.39966">
        <ele>21.4</ele>
        <time>2016-07-05T13:10:19Z</time>
      </trkpt>
      <trkpt lat="48.6414" lon="-2.39981">
        <ele>21.2</ele>
        <time>2016-07-05T13:10:27Z</time>
      </trkpt>
      <trkpt lat="48.64136" lon="-2.39994">
        <ele>21.7</ele>
        <time>2016-07-05T13:10:35Z</time>
      </trkpt>
      <trkpt lat="48.64133" lon="-2.40009">
        <ele>21.1</ele>
        <time>2016-07-05T13:10:49Z</time>
      </trkpt>
      <trkpt lat="48.6413" lon="-2.40023">
        <ele>21.3</ele>
        <time>2016-07-05T13:11:01Z</time>
      </trkpt>
      <trkpt lat="48.64129" lon="-2.40039">
        <ele>20.7</ele>
        <time>2016-07-05T13:11:08Z</time>
      </trkpt>
      <trkpt lat="48.64127" lon="-2.40055">
        <ele>20.8</ele>
        <time>2016-07-05T13:11:13Z</time>
      </trkpt>
      <trkpt lat="48.64127" lon="-2.4007">
        <ele>20.4</ele>
        <time>2016-07-05T13:11:20Z</time>
      </trkpt>
      <trkpt lat="48.64127" lon="-2.40085">
        <ele>19.8</ele>
        <time>2016-07-05T13:11:28Z</time>
      </trkpt>
      <trkpt lat="48.64126" lon="-2.401">
        <ele>18.5</ele>
        <time>2016-07-05T13:11:36Z</time>
      </trkpt>
      <trkpt lat="48.64123" lon="-2.40113">
        <ele>19.1</ele>
        <time>2016-07-05T13:11:45Z</time>
      </trkpt>
      <trkpt lat="48.64122" lon="-2.40126">
        <ele>18.6</ele>
        <time>2016-07-05T13:11:52Z</time>
      </trkpt>
      <trkpt lat="48.64121" lon="-2.40142">
        <ele>18.6</ele>
        <time>2016-07-05T13:12:00Z</time>
      </trkpt>
      <trkpt lat="48.6412" lon="-2.40156">
        <ele>17.9</ele>
        <time>2016-07-05T13:12:09Z</time>
      </trkpt>
      <trkpt lat="48.64119" lon="-2.4017">
        <ele>17</ele>
        <time>2016-07-05T13:12:18Z</time>
      </trkpt>
      <trkpt lat="48.64119" lon="-2.40184">
        <ele>17.5</ele>
        <time>2016-07-05T13:12:26Z</time>
      </trkpt>
      <trkpt lat="48.64117" lon="-2.40198">
        <ele>17.8</ele>
        <time>2016-07-05T13:12:33Z</time>
      </trkpt>
      <trkpt lat="48.64116" lon="-2.40212">
        <ele>17.4</ele>
        <time>2016-07-05T13:12:40Z</time>
      </trkpt>
      <trkpt lat="48.64115" lon="-2.40226">
        <ele>17.7</ele>
        <time>2016-07-05T13:12:47Z</time>
      </trkpt>
      <trkpt lat="48.64113" lon="-2.40242">
        <ele>16.9</ele>
        <time>2016-07-05T13:12:56Z</time>
      </trkpt>
      <trkpt lat="48.64113" lon="-2.40256">
        <ele>17.5</ele>
        <time>2016-07-05T13:13:03Z</time>
      </trkpt>
      <trkpt lat="48.64111" lon="-2.40271">
        <ele>16.8</ele>
        <time>2016-07-05T13:13:11Z</time>
      </trkpt>
      <trkpt lat="48.64111" lon="-2.40285">
        <ele>16.4</ele>
        <time>2016-07-05T13:13:18Z</time>
      </trkpt>
      <trkpt lat="48.6411" lon="-2.40301">
        <ele>16.7</ele>
        <time>2016-07-05T13:13:26Z</time>
      </trkpt>
      <trkpt lat="48.6411" lon="-2.40316">
        <ele>17.3</ele>
        <time>2016-07-05T13:13:34Z</time>
      </trkpt>
      <trkpt lat="48.64108" lon="-2.40331">
        <ele>16.8</ele>
        <time>2016-07-05T13:13:41Z</time>
      </trkpt>
      <trkpt lat="48.64107" lon="-2.40345">
        <ele>17.4</ele>
        <time>2016-07-05T13:13:51Z</time>
      </trkpt>
      <trkpt lat="48.64106" lon="-2.40359">
        <ele>17.6</ele>
        <time>2016-07-05T13:14:28Z</time>
      </trkpt>
      <trkpt lat="48.64104" lon="-2.40373">
        <ele>17.2</ele>
        <time>2016-07-05T13:14:36Z</time>
      </trkpt>
      <trkpt lat="48.64104" lon="-2.40388">
        <ele>17.2</ele>
        <time>2016-07-05T13:14:44Z</time>
      </trkpt>
      <trkpt lat="48.64103" lon="-2.40403">
        <ele>17.7</ele>
        <time>2016-07-05T13:14:54Z</time>
      </trkpt>
      <trkpt lat="48.64101" lon="-2.40417">
        <ele>18.5</ele>
        <time>2016-07-05T13:15:01Z</time>
      </trkpt>
      <trkpt lat="48.64098" lon="-2.40431">
        <ele>18.2</ele>
        <time>2016-07-05T13:15:10Z</time>
      </trkpt>
      <trkpt lat="48.64096" lon="-2.40446">
        <ele>18.3</ele>
        <time>2016-07-05T13:15:18Z</time>
      </trkpt>
      <trkpt lat="48.64093" lon="-2.40459">
        <ele>17.3</ele>
        <time>2016-07-05T13:15:25Z</time>
      </trkpt>
      <trkpt lat="48.64093" lon="-2.40474">
        <ele>19.3</ele>
        <time>2016-07-05T13:15:32Z</time>
      </trkpt>
      <trkpt lat="48.64093" lon="-2.40488">
        <ele>20.6</ele>
        <time>2016-07-05T13:15:40Z</time>
      </trkpt>
      <trkpt lat="48.64093" lon="-2.40503">
        <ele>18.3</ele>
        <time>2016-07-05T13:15:48Z</time>
      </trkpt>
      <trkpt lat="48.64093" lon="-2.40518">
        <ele>17.4</ele>
        <time>2016-07-05T13:15:55Z</time>
      </trkpt>
      <trkpt lat="48.64092" lon="-2.40532">
        <ele>18.2</ele>
        <time>2016-07-05T13:16:03Z</time>
      </trkpt>
      <trkpt lat="48.6409" lon="-2.40547">
        <ele>16.9</ele>
        <time>2016-07-05T13:16:11Z</time>
      </trkpt>
      <trkpt lat="48.64089" lon="-2.40561">
        <ele>12.6</ele>
        <time>2016-07-05T13:16:19Z</time>
      </trkpt>
      <trkpt lat="48.64089" lon="-2.40575">
        <ele>14.2</ele>
        <time>2016-07-05T13:16:26Z</time>
      </trkpt>
      <trkpt lat="48.64088" lon="-2.4059">
        <ele>22.7</ele>
        <time>2016-07-05T13:16:34Z</time>
      </trkpt>
      <trkpt lat="48.64087" lon="-2.40604">
        <ele>19.9</ele>
        <time>2016-07-05T13:16:41Z</time>
      </trkpt>
      <trkpt lat="48.64087" lon="-2.40618">
        <ele>18.6</ele>
        <time>2016-07-05T13:16:50Z</time>
      </trkpt>
      <trkpt lat="48.64087" lon="-2.40634">
        <ele>17.9</ele>
        <time>2016-07-05T13:16:58Z</time>
      </trkpt>
      <trkpt lat="48.64087" lon="-2.40648">
        <ele>17.8</ele>
        <time>2016-07-05T13:17:06Z</time>
      </trkpt>
      <trkpt lat="48.64083" lon="-2.4066">
        <ele>16</ele>
        <time>2016-07-05T13:17:15Z</time>
      </trkpt>
      <trkpt lat="48.64081" lon="-2.40675">
        <ele>17.4</ele>
        <time>2016-07-05T13:17:34Z</time>
      </trkpt>
      <trkpt lat="48.64081" lon="-2.40689">
        <ele>17.3</ele>
        <time>2016-07-05T13:17:41Z</time>
      </trkpt>
      <trkpt lat="48.6408" lon="-2.40703">
        <ele>17.5</ele>
        <time>2016-07-05T13:17:49Z</time>
      </trkpt>
      <trkpt lat="48.6408" lon="-2.40717">
        <ele>17.9</ele>
        <time>2016-07-05T13:17:58Z</time>
      </trkpt>
      <trkpt lat="48.6408" lon="-2.40732">
        <ele>18.4</ele>
        <time>2016-07-05T13:18:06Z</time>
      </trkpt>
      <trkpt lat="48.64078" lon="-2.40748">
        <ele>18.5</ele>
        <time>2016-07-05T13:18:15Z</time>
      </trkpt>
      <trkpt lat="48.64076" lon="-2.40762">
        <ele>18.9</ele>
        <time>2016-07-05T13:18:22Z</time>
      </trkpt>
      <trkpt lat="48.64076" lon="-2.40776">
        <ele>18.7</ele>
        <time>2016-07-05T13:18:30Z</time>
      </trkpt>
      <trkpt lat="48.64076" lon="-2.4079">
        <ele>18.5</ele>
        <time>2016-07-05T13:19:12Z</time>
      </trkpt>
      <trkpt lat="48.64078" lon="-2.40805">
        <ele>18</ele>
        <time>2016-07-05T13:19:21Z</time>
      </trkpt>
      <trkpt lat="48.64077" lon="-2.40819">
        <ele>18.6</ele>
        <time>2016-07-05T13:19:28Z</time>
      </trkpt>
      <trkpt lat="48.64078" lon="-2.40834">
        <ele>18.4</ele>
        <time>2016-07-05T13:19:37Z</time>
      </trkpt>
      <trkpt lat="48.64077" lon="-2.40849">
        <ele>19.1</ele>
        <time>2016-07-05T13:19:45Z</time>
      </trkpt>
      <trkpt lat="48.64077" lon="-2.40864">
        <ele>19.3</ele>
        <time>2016-07-05T13:19:54Z</time>
      </trkpt>
      <trkpt lat="48.64078" lon="-2.40878">
        <ele>20</ele>
        <time>2016-07-05T13:20:02Z</time>
      </trkpt>
      <trkpt lat="48.6408" lon="-2.40892">
        <ele>19.4</ele>
        <time>2016-07-05T13:20:10Z</time>
      </trkpt>
      <trkpt lat="48.64079" lon="-2.40907">
        <ele>19.6</ele>
        <time>2016-07-05T13:20:19Z</time>
      </trkpt>
      <trkpt lat="48.64079" lon="-2.40921">
        <ele>20.1</ele>
        <time>2016-07-05T13:20:43Z</time>
      </trkpt>
      <trkpt lat="48.6408" lon="-2.40936">
        <ele>19.5</ele>
        <time>2016-07-05T13:21:00Z</time>
      </trkpt>
      <trkpt lat="48.6408" lon="-2.40952">
        <ele>18.9</ele>
        <time>2016-07-05T13:21:08Z</time>
      </trkpt>
      <trkpt lat="48.6408" lon="-2.40967">
        <ele>19.6</ele>
        <time>2016-07-05T13:21:16Z</time>
      </trkpt>
      <trkpt lat="48.64081" lon="-2.40982">
        <ele>18.7</ele>
        <time>2016-07-05T13:21:25Z</time>
      </trkpt>
      <trkpt lat="48.64081" lon="-2.40997">
        <ele>18.9</ele>
        <time>2016-07-05T13:21:33Z</time>
      </trkpt>
      <trkpt lat="48.64081" lon="-2.41011">
        <ele>18.8</ele>
        <time>2016-07-05T13:21:41Z</time>
      </trkpt>
      <trkpt lat="48.64081" lon="-2.41026">
        <ele>18.9</ele>
        <time>2016-07-05T13:21:49Z</time>
      </trkpt>
      <trkpt lat="48.64081" lon="-2.41041">
        <ele>19.2</ele>
        <time>2016-07-05T13:21:57Z</time>
      </trkpt>
      <trkpt lat="48.64082" lon="-2.41055">
        <ele>19.5</ele>
        <time>2016-07-05T13:22:06Z</time>
      </trkpt>
      <trkpt lat="48.64076" lon="-2.41067">
        <ele>19</ele>
        <time>2016-07-05T13:24:15Z</time>
      </trkpt>
      <trkpt lat="48.64067" lon="-2.41068">
        <ele>18.9</ele>
        <time>2016-07-05T13:24:25Z</time>
      </trkpt>
      <trkpt lat="48.64057" lon="-2.41069">
        <ele>19.7</ele>
        <time>2016-07-05T13:24:34Z</time>
      </trkpt>
      <trkpt lat="48.64048" lon="-2.41067">
        <ele>19.1</ele>
        <time>2016-07-05T13:25:15Z</time>
      </trkpt>
      <trkpt lat="48.64038" lon="-2.41068">
        <ele>18.5</ele>
        <time>2016-07-05T13:25:23Z</time>
      </trkpt>
      <trkpt lat="48.64029" lon="-2.4107">
        <ele>18.4</ele>
        <time>2016-07-05T13:25:30Z</time>
      </trkpt>
      <trkpt lat="48.64019" lon="-2.4107">
        <ele>17.5</ele>
        <time>2016-07-05T13:25:38Z</time>
      </trkpt>
      <trkpt lat="48.64009" lon="-2.4107">
        <ele>17.4</ele>
        <time>2016-07-05T13:25:46Z</time>
      </trkpt>
      <trkpt lat="48.63999" lon="-2.41071">
        <ele>16.8</ele>
        <time>2016-07-05T13:25:55Z</time>
      </trkpt>
      <trkpt lat="48.63989" lon="-2.41073">
        <ele>17.9</ele>
        <time>2016-07-05T13:26:03Z</time>
      </trkpt>
      <trkpt lat="48.63979" lon="-2.41076">
        <ele>17.2</ele>
        <time>2016-07-05T13:26:10Z</time>
      </trkpt>
      <trkpt lat="48.63969" lon="-2.41076">
        <ele>17</ele>
        <time>2016-07-05T13:26:17Z</time>
      </trkpt>
      <trkpt lat="48.6396" lon="-2.4108">
        <ele>17.9</ele>
        <time>2016-07-05T13:26:25Z</time>
      </trkpt>
      <trkpt lat="48.6395" lon="-2.41083">
        <ele>16.8</ele>
        <time>2016-07-05T13:26:32Z</time>
      </trkpt>
      <trkpt lat="48.6394" lon="-2.41085">
        <ele>16.6</ele>
        <time>2016-07-05T13:26:39Z</time>
      </trkpt>
      <trkpt lat="48.6393" lon="-2.4109">
        <ele>16.6</ele>
        <time>2016-07-05T13:26:48Z</time>
      </trkpt>
      <trkpt lat="48.63921" lon="-2.41092">
        <ele>17.7</ele>
        <time>2016-07-05T13:26:56Z</time>
      </trkpt>
      <trkpt lat="48.63912" lon="-2.41097">
        <ele>17.2</ele>
        <time>2016-07-05T13:27:04Z</time>
      </trkpt>
      <trkpt lat="48.63903" lon="-2.41102">
        <ele>16.3</ele>
        <time>2016-07-05T13:28:05Z</time>
      </trkpt>
      <trkpt lat="48.63895" lon="-2.4111">
        <ele>14.4</ele>
        <time>2016-07-05T13:28:14Z</time>
      </trkpt>
      <trkpt lat="48.63886" lon="-2.4111">
        <ele>12.5</ele>
        <time>2016-07-05T13:28:34Z</time>
      </trkpt>
      <trkpt lat="48.63879" lon="-2.41099">
        <ele>12.5</ele>
        <time>2016-07-05T13:28:43Z</time>
      </trkpt>
      <trkpt lat="48.63872" lon="-2.41089">
        <ele>13</ele>
        <time>2016-07-05T13:28:52Z</time>
      </trkpt>
      <trkpt lat="48.63865" lon="-2.4108">
        <ele>13.6</ele>
        <time>2016-07-05T13:29:14Z</time>
      </trkpt>
      <trkpt lat="48.63858" lon="-2.4107">
        <ele>12.6</ele>
        <time>2016-07-05T13:29:20Z</time>
      </trkpt>
      <trkpt lat="48.63848" lon="-2.41063">
        <ele>12.1</ele>
        <time>2016-07-05T13:29:30Z</time>
      </trkpt>
      <trkpt lat="48.6384" lon="-2.41056">
        <ele>13.6</ele>
        <time>2016-07-05T13:29:36Z</time>
      </trkpt>
      <trkpt lat="48.63831" lon="-2.4105">
        <ele>13.3</ele>
        <time>2016-07-05T13:29:43Z</time>
      </trkpt>
      <trkpt lat="48.63823" lon="-2.41041">
        <ele>14.1</ele>
        <time>2016-07-05T13:29:53Z</time>
      </trkpt>
      <trkpt lat="48.63814" lon="-2.41036">
        <ele>14.6</ele>
        <time>2016-07-05T13:30:01Z</time>
      </trkpt>
      <trkpt lat="48.63807" lon="-2.41026">
        <ele>15.1</ele>
        <time>2016-07-05T13:30:12Z</time>
      </trkpt>
      <trkpt lat="48.63798" lon="-2.41019">
        <ele>15</ele>
        <time>2016-07-05T13:30:19Z</time>
      </trkpt>
      <trkpt lat="48.63789" lon="-2.41014">
        <ele>15</ele>
        <time>2016-07-05T13:30:25Z</time>
      </trkpt>
      <trkpt lat="48.6378" lon="-2.41008">
        <ele>14.6</ele>
        <time>2016-07-05T13:30:30Z</time>
      </trkpt>
      <trkpt lat="48.63774" lon="-2.40998">
        <ele>13.9</ele>
        <time>2016-07-05T13:30:38Z</time>
      </trkpt>
      <trkpt lat="48.63766" lon="-2.40993">
        <ele>13.8</ele>
        <time>2016-07-05T13:30:49Z</time>
      </trkpt>
      <trkpt lat="48.63756" lon="-2.40988">
        <ele>13.7</ele>
        <time>2016-07-05T13:30:58Z</time>
      </trkpt>
      <trkpt lat="48.63749" lon="-2.40979">
        <ele>13.7</ele>
        <time>2016-07-05T13:31:06Z</time>
      </trkpt>
      <trkpt lat="48.63741" lon="-2.40972">
        <ele>14.6</ele>
        <time>2016-07-05T13:31:14Z</time>
      </trkpt>
      <trkpt lat="48.63731" lon="-2.40965">
        <ele>14.8</ele>
        <time>2016-07-05T13:31:23Z</time>
      </trkpt>
      <trkpt lat="48.63723" lon="-2.4096">
        <ele>14.6</ele>
        <time>2016-07-05T13:31:30Z</time>
      </trkpt>
      <trkpt lat="48.63715" lon="-2.40954">
        <ele>13.2</ele>
        <time>2016-07-05T13:31:38Z</time>
      </trkpt>
      <trkpt lat="48.63707" lon="-2.40947">
        <ele>13.3</ele>
        <time>2016-07-05T13:31:43Z</time>
      </trkpt>
      <trkpt lat="48.63697" lon="-2.40944">
        <ele>13.2</ele>
        <time>2016-07-05T13:31:49Z</time>
      </trkpt>
      <trkpt lat="48.63687" lon="-2.40939">
        <ele>12</ele>
        <time>2016-07-05T13:31:56Z</time>
      </trkpt>
      <trkpt lat="48.63678" lon="-2.40933">
        <ele>12.3</ele>
        <time>2016-07-05T13:32:06Z</time>
      </trkpt>
      <trkpt lat="48.63669" lon="-2.40928">
        <ele>12.8</ele>
        <time>2016-07-05T13:32:14Z</time>
      </trkpt>
      <trkpt lat="48.6366" lon="-2.40924">
        <ele>12.5</ele>
        <time>2016-07-05T13:32:20Z</time>
      </trkpt>
      <trkpt lat="48.63651" lon="-2.4092">
        <ele>13.3</ele>
        <time>2016-07-05T13:32:28Z</time>
      </trkpt>
      <trkpt lat="48.63643" lon="-2.40915">
        <ele>13.4</ele>
        <time>2016-07-05T13:32:37Z</time>
      </trkpt>
      <trkpt lat="48.63635" lon="-2.40908">
        <ele>13.2</ele>
        <time>2016-07-05T13:32:47Z</time>
      </trkpt>
      <trkpt lat="48.63626" lon="-2.40899">
        <ele>7.6</ele>
        <time>2016-07-05T13:33:01Z</time>
      </trkpt>
      <trkpt lat="48.63617" lon="-2.40893">
        <ele>15</ele>
        <time>2016-07-05T13:33:12Z</time>
      </trkpt>
      <trkpt lat="48.63608" lon="-2.40887">
        <ele>12.9</ele>
        <time>2016-07-05T13:33:19Z</time>
      </trkpt>
      <trkpt lat="48.636" lon="-2.40879">
        <ele>12.7</ele>
        <time>2016-07-05T13:33:23Z</time>
      </trkpt>
      <trkpt lat="48.6359" lon="-2.40873">
        <ele>16.4</ele>
        <time>2016-07-05T13:33:28Z</time>
      </trkpt>
      <trkpt lat="48.6358" lon="-2.40874">
        <ele>10.8</ele>
        <time>2016-07-05T13:33:37Z</time>
      </trkpt>
      <trkpt lat="48.63571" lon="-2.4088">
        <ele>14.8</ele>
        <time>2016-07-05T13:33:51Z</time>
      </trkpt>
      <trkpt lat="48.63564" lon="-2.40889">
        <ele>15</ele>
        <time>2016-07-05T13:33:58Z</time>
      </trkpt>
      <trkpt lat="48.63555" lon="-2.40898">
        <ele>14.6</ele>
        <time>2016-07-05T13:34:06Z</time>
      </trkpt>
      <trkpt lat="48.63548" lon="-2.40908">
        <ele>14</ele>
        <time>2016-07-05T13:34:14Z</time>
      </trkpt>
      <trkpt lat="48.63542" lon="-2.4092">
        <ele>13.2</ele>
        <time>2016-07-05T13:34:21Z</time>
      </trkpt>
      <trkpt lat="48.63535" lon="-2.40928">
        <ele>13.9</ele>
        <time>2016-07-05T13:34:29Z</time>
      </trkpt>
      <trkpt lat="48.63528" lon="-2.40938">
        <ele>13.2</ele>
        <time>2016-07-05T13:34:45Z</time>
      </trkpt>
      <trkpt lat="48.63522" lon="-2.40948">
        <ele>17.1</ele>
        <time>2016-07-05T13:34:52Z</time>
      </trkpt>
      <trkpt lat="48.63516" lon="-2.40959">
        <ele>10.9</ele>
        <time>2016-07-05T13:35:00Z</time>
      </trkpt>
      <trkpt lat="48.63509" lon="-2.40969">
        <ele>11.8</ele>
        <time>2016-07-05T13:35:07Z</time>
      </trkpt>
      <trkpt lat="48.63503" lon="-2.40981">
        <ele>13.9</ele>
        <time>2016-07-05T13:35:18Z</time>
      </trkpt>
      <trkpt lat="48.63496" lon="-2.4099">
        <ele>16.2</ele>
        <time>2016-07-05T13:35:25Z</time>
      </trkpt>
      <trkpt lat="48.6349" lon="-2.41002">
        <ele>11</ele>
        <time>2016-07-05T13:35:33Z</time>
      </trkpt>
      <trkpt lat="48.63484" lon="-2.41013">
        <ele>11.6</ele>
        <time>2016-07-05T13:35:40Z</time>
      </trkpt>
      <trkpt lat="48.63477" lon="-2.41024">
        <ele>10.9</ele>
        <time>2016-07-05T13:35:47Z</time>
      </trkpt>
      <trkpt lat="48.63471" lon="-2.41034">
        <ele>11.1</ele>
        <time>2016-07-05T13:35:54Z</time>
      </trkpt>
      <trkpt lat="48.63462" lon="-2.41031">
        <ele>15.9</ele>
        <time>2016-07-05T13:36:05Z</time>
      </trkpt>
      <trkpt lat="48.63452" lon="-2.41024">
        <ele>14.5</ele>
        <time>2016-07-05T13:36:14Z</time>
      </trkpt>
      <trkpt lat="48.63442" lon="-2.41021">
        <ele>12.7</ele>
        <time>2016-07-05T13:37:40Z</time>
      </trkpt>
      <trkpt lat="48.63433" lon="-2.41024">
        <ele>10.3</ele>
        <time>2016-07-05T13:37:52Z</time>
      </trkpt>
      <trkpt lat="48.63423" lon="-2.41026">
        <ele>12.1</ele>
        <time>2016-07-05T13:38:01Z</time>
      </trkpt>
      <trkpt lat="48.63414" lon="-2.41031">
        <ele>12.7</ele>
        <time>2016-07-05T13:38:09Z</time>
      </trkpt>
      <trkpt lat="48.63404" lon="-2.41035">
        <ele>13.2</ele>
        <time>2016-07-05T13:38:18Z</time>
      </trkpt>
      <trkpt lat="48.63398" lon="-2.41046">
        <ele>15.3</ele>
        <time>2016-07-05T13:38:30Z</time>
      </trkpt>
      <trkpt lat="48.63389" lon="-2.41051">
        <ele>13.9</ele>
        <time>2016-07-05T13:38:38Z</time>
      </trkpt>
      <trkpt lat="48.6338" lon="-2.41056">
        <ele>13.4</ele>
        <time>2016-07-05T13:38:45Z</time>
      </trkpt>
      <trkpt lat="48.63372" lon="-2.41065">
        <ele>12.8</ele>
        <time>2016-07-05T13:38:53Z</time>
      </trkpt>
      <trkpt lat="48.63365" lon="-2.41072">
        <ele>15</ele>
        <time>2016-07-05T13:39:01Z</time>
      </trkpt>
      <trkpt lat="48.63356" lon="-2.41074">
        <ele>15</ele>
        <time>2016-07-05T13:39:15Z</time>
      </trkpt>
      <trkpt lat="48.63349" lon="-2.41063">
        <ele>14.5</ele>
        <time>2016-07-05T13:39:37Z</time>
      </trkpt>
      <trkpt lat="48.6334" lon="-2.41063">
        <ele>15.9</ele>
        <time>2016-07-05T13:40:05Z</time>
      </trkpt>
      <trkpt lat="48.6333" lon="-2.41066">
        <ele>16</ele>
        <time>2016-07-05T13:40:14Z</time>
      </trkpt>
      <trkpt lat="48.63322" lon="-2.4107">
        <ele>16.9</ele>
        <time>2016-07-05T13:40:22Z</time>
      </trkpt>
      <trkpt lat="48.63312" lon="-2.41074">
        <ele>17.4</ele>
        <time>2016-07-05T13:40:29Z</time>
      </trkpt>
      <trkpt lat="48.63303" lon="-2.41079">
        <ele>18.3</ele>
        <time>2016-07-05T13:40:42Z</time>
      </trkpt>
      <trkpt lat="48.63294" lon="-2.4108">
        <ele>18</ele>
        <time>2016-07-05T13:41:18Z</time>
      </trkpt>
      <trkpt lat="48.63284" lon="-2.41081">
        <ele>17.9</ele>
        <time>2016-07-05T13:41:28Z</time>
      </trkpt>
      <trkpt lat="48.63275" lon="-2.41086">
        <ele>20.5</ele>
        <time>2016-07-05T13:41:36Z</time>
      </trkpt>
      <trkpt lat="48.63266" lon="-2.41092">
        <ele>18.7</ele>
        <time>2016-07-05T13:41:42Z</time>
      </trkpt>
      <trkpt lat="48.63256" lon="-2.4109">
        <ele>21</ele>
        <time>2016-07-05T13:41:51Z</time>
      </trkpt>
      <trkpt lat="48.63247" lon="-2.4109">
        <ele>19.8</ele>
        <time>2016-07-05T13:41:59Z</time>
      </trkpt>
      <trkpt lat="48.63237" lon="-2.41091">
        <ele>21.2</ele>
        <time>2016-07-05T13:42:06Z</time>
      </trkpt>
      <trkpt lat="48.63227" lon="-2.41091">
        <ele>22.3</ele>
        <time>2016-07-05T13:42:14Z</time>
      </trkpt>
      <trkpt lat="48.63218" lon="-2.41085">
        <ele>21.1</ele>
        <time>2016-07-05T13:42:23Z</time>
      </trkpt>
      <trkpt lat="48.63208" lon="-2.41088">
        <ele>22.3</ele>
        <time>2016-07-05T13:42:32Z</time>
      </trkpt>
      <trkpt lat="48.63199" lon="-2.41092">
        <ele>23.9</ele>
        <time>2016-07-05T13:42:49Z</time>
      </trkpt>
      <trkpt lat="48.63189" lon="-2.41091">
        <ele>23.5</ele>
        <time>2016-07-05T13:42:57Z</time>
      </trkpt>
      <trkpt lat="48.6318" lon="-2.41088">
        <ele>24.7</ele>
        <time>2016-07-05T13:43:05Z</time>
      </trkpt>
      <trkpt lat="48.63171" lon="-2.41087">
        <ele>25</ele>
        <time>2016-07-05T13:43:12Z</time>
      </trkpt>
      <trkpt lat="48.63161" lon="-2.41089">
        <ele>26.7</ele>
        <time>2016-07-05T13:43:19Z</time>
      </trkpt>
      <trkpt lat="48.63151" lon="-2.41087">
        <ele>26.1</ele>
        <time>2016-07-05T13:43:28Z</time>
      </trkpt>
      <trkpt lat="48.63142" lon="-2.41089">
        <ele>27</ele>
        <time>2016-07-05T13:43:35Z</time>
      </trkpt>
      <trkpt lat="48.63132" lon="-2.41089">
        <ele>28</ele>
        <time>2016-07-05T13:43:50Z</time>
      </trkpt>
      <trkpt lat="48.63123" lon="-2.4109">
        <ele>28.9</ele>
        <time>2016-07-05T13:43:57Z</time>
      </trkpt>
      <trkpt lat="48.63113" lon="-2.41095">
        <ele>29.7</ele>
        <time>2016-07-05T13:44:04Z</time>
      </trkpt>
      <trkpt lat="48.63104" lon="-2.41098">
        <ele>29.7</ele>
        <time>2016-07-05T13:44:10Z</time>
      </trkpt>
      <trkpt lat="48.63095" lon="-2.41099">
        <ele>30.5</ele>
        <time>2016-07-05T13:44:18Z</time>
      </trkpt>
      <trkpt lat="48.63086" lon="-2.41098">
        <ele>30.4</ele>
        <time>2016-07-05T13:44:25Z</time>
      </trkpt>
      <trkpt lat="48.63077" lon="-2.41097">
        <ele>30.7</ele>
        <time>2016-07-05T13:44:33Z</time>
      </trkpt>
      <trkpt lat="48.63068" lon="-2.41095">
        <ele>31.8</ele>
        <time>2016-07-05T13:44:41Z</time>
      </trkpt>
      <trkpt lat="48.63058" lon="-2.41092">
        <ele>31.3</ele>
        <time>2016-07-05T13:44:49Z</time>
      </trkpt>
      <trkpt lat="48.63048" lon="-2.41091">
        <ele>32.5</ele>
        <time>2016-07-05T13:44:57Z</time>
      </trkpt>
      <trkpt lat="48.63038" lon="-2.41088">
        <ele>31.9</ele>
        <time>2016-07-05T13:45:06Z</time>
      </trkpt>
      <trkpt lat="48.63029" lon="-2.41086">
        <ele>33</ele>
        <time>2016-07-05T13:45:14Z</time>
      </trkpt>
      <trkpt lat="48.6302" lon="-2.41084">
        <ele>33.9</ele>
        <time>2016-07-05T13:45:22Z</time>
      </trkpt>
      <trkpt lat="48.63011" lon="-2.41079">
        <ele>34.1</ele>
        <time>2016-07-05T13:45:30Z</time>
      </trkpt>
      <trkpt lat="48.63002" lon="-2.41073">
        <ele>34.7</ele>
        <time>2016-07-05T13:45:39Z</time>
      </trkpt>
      <trkpt lat="48.62993" lon="-2.41074">
        <ele>35.7</ele>
        <time>2016-07-05T13:45:46Z</time>
      </trkpt>
      <trkpt lat="48.62983" lon="-2.41075">
        <ele>35.2</ele>
        <time>2016-07-05T13:45:53Z</time>
      </trkpt>
      <trkpt lat="48.62973" lon="-2.41073">
        <ele>36.4</ele>
        <time>2016-07-05T13:46:01Z</time>
      </trkpt>
      <trkpt lat="48.62964" lon="-2.41068">
        <ele>37.2</ele>
        <time>2016-07-05T13:46:10Z</time>
      </trkpt>
      <trkpt lat="48.62954" lon="-2.41072">
        <ele>37.2</ele>
        <time>2016-07-05T13:46:17Z</time>
      </trkpt>
      <trkpt lat="48.62946" lon="-2.41067">
        <ele>38</ele>
        <time>2016-07-05T13:46:27Z</time>
      </trkpt>
      <trkpt lat="48.62936" lon="-2.41069">
        <ele>37.8</ele>
        <time>2016-07-05T13:46:36Z</time>
      </trkpt>
      <trkpt lat="48.62927" lon="-2.41069">
        <ele>39.6</ele>
        <time>2016-07-05T13:47:01Z</time>
      </trkpt>
      <trkpt lat="48.62917" lon="-2.41068">
        <ele>38.7</ele>
        <time>2016-07-05T13:47:09Z</time>
      </trkpt>
      <trkpt lat="48.62908" lon="-2.41067">
        <ele>37.7</ele>
        <time>2016-07-05T13:47:17Z</time>
      </trkpt>
      <trkpt lat="48.62899" lon="-2.41068">
        <ele>38</ele>
        <time>2016-07-05T13:47:25Z</time>
      </trkpt>
      <trkpt lat="48.62889" lon="-2.41067">
        <ele>38.8</ele>
        <time>2016-07-05T13:47:33Z</time>
      </trkpt>
      <trkpt lat="48.62879" lon="-2.41065">
        <ele>41.1</ele>
        <time>2016-07-05T13:47:41Z</time>
      </trkpt>
      <trkpt lat="48.6287" lon="-2.41064">
        <ele>40.6</ele>
        <time>2016-07-05T13:47:48Z</time>
      </trkpt>
      <trkpt lat="48.6286" lon="-2.41062">
        <ele>38.8</ele>
        <time>2016-07-05T13:47:56Z</time>
      </trkpt>
      <trkpt lat="48.62851" lon="-2.41059">
        <ele>42.5</ele>
        <time>2016-07-05T13:48:05Z</time>
      </trkpt>
      <trkpt lat="48.62841" lon="-2.41056">
        <ele>42.8</ele>
        <time>2016-07-05T13:48:15Z</time>
      </trkpt>
      <trkpt lat="48.62832" lon="-2.41055">
        <ele>41.4</ele>
        <time>2016-07-05T13:48:22Z</time>
      </trkpt>
      <trkpt lat="48.62823" lon="-2.41053">
        <ele>40</ele>
        <time>2016-07-05T13:48:29Z</time>
      </trkpt>
      <trkpt lat="48.62814" lon="-2.41051">
        <ele>39.4</ele>
        <time>2016-07-05T13:48:36Z</time>
      </trkpt>
      <trkpt lat="48.62805" lon="-2.41049">
        <ele>42.5</ele>
        <time>2016-07-05T13:48:44Z</time>
      </trkpt>
      <trkpt lat="48.62795" lon="-2.41045">
        <ele>42.2</ele>
        <time>2016-07-05T13:48:52Z</time>
      </trkpt>
      <trkpt lat="48.62786" lon="-2.41043">
        <ele>41.2</ele>
        <time>2016-07-05T13:49:00Z</time>
      </trkpt>
      <trkpt lat="48.62777" lon="-2.41041">
        <ele>41.7</ele>
        <time>2016-07-05T13:49:10Z</time>
      </trkpt>
      <trkpt lat="48.62767" lon="-2.41038">
        <ele>41.5</ele>
        <time>2016-07-05T13:49:18Z</time>
      </trkpt>
      <trkpt lat="48.62758" lon="-2.41035">
        <ele>41.5</ele>
        <time>2016-07-05T13:49:26Z</time>
      </trkpt>
      <trkpt lat="48.62748" lon="-2.41032">
        <ele>41.1</ele>
        <time>2016-07-05T13:49:33Z</time>
      </trkpt>
      <trkpt lat="48.62739" lon="-2.41028">
        <ele>40.3</ele>
        <time>2016-07-05T13:49:40Z</time>
      </trkpt>
      <trkpt lat="48.62729" lon="-2.41026">
        <ele>40</ele>
        <time>2016-07-05T13:49:48Z</time>
      </trkpt>
      <trkpt lat="48.6272" lon="-2.41023">
        <ele>41.2</ele>
        <time>2016-07-05T13:49:55Z</time>
      </trkpt>
      <trkpt lat="48.62711" lon="-2.4102">
        <ele>42.4</ele>
        <time>2016-07-05T13:50:02Z</time>
      </trkpt>
      <trkpt lat="48.62702" lon="-2.41018">
        <ele>40.2</ele>
        <time>2016-07-05T13:50:10Z</time>
      </trkpt>
      <trkpt lat="48.62693" lon="-2.41015">
        <ele>40.6</ele>
        <time>2016-07-05T13:50:17Z</time>
      </trkpt>
      <trkpt lat="48.62683" lon="-2.41011">
        <ele>40.6</ele>
        <time>2016-07-05T13:50:24Z</time>
      </trkpt>
      <trkpt lat="48.62673" lon="-2.41009">
        <ele>38.7</ele>
        <time>2016-07-05T13:50:32Z</time>
      </trkpt>
      <trkpt lat="48.62663" lon="-2.41005">
        <ele>40.9</ele>
        <time>2016-07-05T13:50:40Z</time>
      </trkpt>
      <trkpt lat="48.62653" lon="-2.41002">
        <ele>41.4</ele>
        <time>2016-07-05T13:50:48Z</time>
      </trkpt>
      <trkpt lat="48.62643" lon="-2.41001">
        <ele>40.3</ele>
        <time>2016-07-05T13:50:56Z</time>
      </trkpt>
      <trkpt lat="48.62633" lon="-2.40997">
        <ele>40.8</ele>
        <time>2016-07-05T13:51:04Z</time>
      </trkpt>
      <trkpt lat="48.62624" lon="-2.40993">
        <ele>39.9</ele>
        <time>2016-07-05T13:51:11Z</time>
      </trkpt>
      <trkpt lat="48.62615" lon="-2.4099">
        <ele>38.9</ele>
        <time>2016-07-05T13:51:18Z</time>
      </trkpt>
      <trkpt lat="48.62606" lon="-2.40987">
        <ele>40.4</ele>
        <time>2016-07-05T13:51:26Z</time>
      </trkpt>
      <trkpt lat="48.62597" lon="-2.40984">
        <ele>41.1</ele>
        <time>2016-07-05T13:51:33Z</time>
      </trkpt>
      <trkpt lat="48.62587" lon="-2.40981">
        <ele>42</ele>
        <time>2016-07-05T13:51:40Z</time>
      </trkpt>
      <trkpt lat="48.62578" lon="-2.40977">
        <ele>40.4</ele>
        <time>2016-07-05T13:51:48Z</time>
      </trkpt>
      <trkpt lat="48.62569" lon="-2.40974">
        <ele>40.4</ele>
        <time>2016-07-05T13:51:55Z</time>
      </trkpt>
      <trkpt lat="48.6256" lon="-2.4097">
        <ele>39.4</ele>
        <time>2016-07-05T13:52:03Z</time>
      </trkpt>
      <trkpt lat="48.6256" lon="-2.40956">
        <ele>40.8</ele>
        <time>2016-07-05T13:52:16Z</time>
      </trkpt>
      <trkpt lat="48.62563" lon="-2.40941">
        <ele>40.1</ele>
        <time>2016-07-05T13:52:26Z</time>
      </trkpt>
      <trkpt lat="48.62566" lon="-2.40927">
        <ele>39.9</ele>
        <time>2016-07-05T13:52:32Z</time>
      </trkpt>
      <trkpt lat="48.62568" lon="-2.40914">
        <ele>39.7</ele>
        <time>2016-07-05T13:52:39Z</time>
      </trkpt>
      <trkpt lat="48.62572" lon="-2.409">
        <ele>40.5</ele>
        <time>2016-07-05T13:52:48Z</time>
      </trkpt>
      <trkpt lat="48.62578" lon="-2.40888">
        <ele>39.9</ele>
        <time>2016-07-05T13:52:56Z</time>
      </trkpt>
      <trkpt lat="48.62579" lon="-2.40889">
        <ele>39.8</ele>
        <time>2016-07-05T13:53:47Z</time>
      </trkpt>
    </trkseg>
  </trk>
</gpx>